[[{"header":{"parameterUnit":"m.s-1","parameterCategory":1,"la1":31.0,"la2":29.5877,"lo1":-88.7671,"lo2":-86.6584,"dy":0.0162,"dx":0.0185,"nx":115,"ny":88,"refTime":"2023-05-13T06:00:00:Z","depth":0,"parameterNumber":2,"parameterNumberName":"U-component_of_WINDS"},"data":[0.0,0.0,0.0,0.0,0.0,0.0,0.0,0.0,0.0,0.0,0.0,0.0,0.0,0.0,0.0,0.0,0.0,0.0,0.0,0.0,0.0,0.0,0.0,0.0,0.0,0.0,0.0,0.0,0.0,0.0,0.0,0.0,0.0,0.0,0.0,0.0,0.0,0.0,0.0,0.0,0.0,0.0,0.0,0.0,0.0,0.0,0.0,0.0,0.0,0.0,0.0,0.0,0.0,0.0,0.0,0.0,0.0,0.0,0.0,0.0,0.0,0.0,0.0,0.0,0.0,0.0,0.0,0.0,0.0,0.0,0.0,0.0,0.0,0.0,0.0,0.0,0.0,0.0,0.0,0.0,0.0,0.0,0.0,0.0,0.0,0.0,0.0,0.0,0.0,0.0,0.0,0.0,0.0,0.0,0.0,0.0,0.0,0.0,0.0,0.0,0.0,0.0,0.0,0.0,0.0,0.0,0.0,0.0,0.0,0.0,0.0,0.0,0.0,0.0,0.0,0.0,0.0,0.0,0.0,0.0,0.0,0.0,0.0,0.0,0.0,0.0,0.0,0.0,0.0,0.0,0.0,0.0,0.0,0.0,0.0,0.0,0.0,0.0,0.0,0.0,0.0,0.0,0.0,0.0,0.0,0.0,0.0,0.0,0.0,0.0,0.0,0.0,0.0,0.0,0.0,0.0,0.0,0.0,0.0,0.0,0.0,0.0,0.0,0.0,0.0,0.0,0.0,0.0,0.0,0.0,0.0,0.0,0.0,0.0,0.0,0.0,0.0,0.0,0.0,0.0,0.0,0.0,0.0,0.0,0.0,0.0,0.0,0.0,0.0,0.0,0.0,0.0,0.0,0.0,0.0,0.0,0.0,0.0,0.0,0.0,0.0,0.0,0.0,0.0,0.0,0.0,0.0,0.0,0.0,0.0,0.0,0.0,0.0,0.0,0.0,0.0,0.0,0.0,0.0,0.0,0.0,0.0,0.0,0.0,0.0,0.0,0.0,0.0,0.0,0.0,0.0,0.0,0.0,0.0,0.0,0.0,0.0,0.0,0.0,0.0,0.0,0.0,0.0,0.0,0.0,0.0,0.0,0.0,0.0,0.0,0.0,0.0,0.0,0.0,0.0,0.0,0.0,0.0,0.0,0.0,0.0,0.0,0.0,0.0,0.0,0.0,0.0,0.0,0.0,0.0,0.0,0.0,0.0,0.0,0.0,0.0,0.0,0.0,0.0,0.0,0.0,0.0,0.0,0.0,0.0,0.0,0.0,0.0,0.0,0.0,0.0,0.0,0.0,0.0,0.0,0.0,0.0,0.0,0.0,0.0,0.0,0.0,0.0,0.0,0.0,0.0,0.0,0.0,0.0,0.0,0.0,0.0,0.0,0.0,0.0,0.0,0.0,0.0,0.0,0.0,0.0,0.0,0.0,0.0,0.0,0.0,0.0,0.0,0.0,0.0,0.0,0.0,0.0,0.0,0.0,0.0,0.0,0.0,0.0,0.0,0.0,0.0,0.0,0.0,0.0,0.0,0.0,0.0,0.0,0.0,0.0,0.0,0.0,0.0,0.0,0.0,0.0,0.0,0.0,0.0,0.0,0.0,0.0,0.0,0.0,0.0,0.0,0.0,0.0,0.0,0.0,0.0,0.0,0.0,0.0,0.0,0.0,0.0,0.0,0.0,0.0,0.0,0.0,0.0,0.0,0.0,0.0,0.0,0.0,0.0,0.0,0.0,0.0,0.0,0.0,0.0,0.0,0.0,0.0,0.0,0.0,0.0,0.0,0.0,0.0,0.0,0.0,0.0,0.0,0.0,0.0,0.0,0.0,0.0,0.0,0.0,0.0,0.0,0.0,0.0,0.0,0.0,0.0,0.0,0.0,0.0,0.0,0.0,0.0,0.0,0.0,0.0,0.0,0.0,0.0,0.0,0.0,0.0,0.0,0.0,0.0,0.0,0.0,0.0,0.0,0.0,0.0,0.0,0.0,0.0,0.0,0.0,0.0,0.0,0.0,0.0,0.0,0.0,0.0,0.0,0.0,0.0,0.0,0.0,0.0,0.0,0.0,0.0,0.0,0.0,0.0,0.0,0.0,0.0,0.0,0.0,0.0,0.0,0.0,0.0,0.0,0.0,0.0,0.0,0.0,0.0,0.0,0.0,0.0,0.0,0.0,0.0,0.0,0.0,0.0,0.0,0.0,0.0,0.0,0.0,0.0,0.0,0.0,0.0,0.0,0.0,0.0,0.0,0.0,0.0,0.0,0.0,0.0,0.0,0.0,0.0,0.0,0.0,0.0,0.0,0.0,0.0,0.0,0.0,0.0,0.0,0.0,0.0,0.0,0.0,0.0,0.0,0.0,0.0,0.0,0.0,0.0,0.0,0.0,0.0,0.0,0.0,0.0,0.0,0.0,0.0,0.0,0.0,0.0,0.0,0.0,0.0,0.0,0.0,0.0,0.0,0.0,0.0,0.0,0.0,0.0,0.0,0.0,0.0,0.0,0.0,0.0,0.0,0.0,0.0,0.0,0.0,0.0,0.0,0.0,0.0,0.0,0.0,0.0,0.0,0.0,0.0,0.0,0.0,0.0,0.0,0.0,0.0,0.0,0.0,0.0,0.0,0.0,0.0,0.0,0.0,0.0,0.0,0.0,0.0,0.0,0.0,0.0,0.0,0.0,0.0,0.0,0.0,0.0,0.0,0.0,0.0,0.0,0.0,0.0,0.0,0.0,0.0,0.0,0.0,0.0,0.0,0.0,0.0,0.0,0.0,0.0,0.0,0.0,0.0,0.0,0.0,0.0,0.0,0.0,0.0,0.0,0.0,0.0,0.0,0.0,0.0,0.0,0.0,0.0,0.0,0.0,0.0,0.0,0.0,0.0,0.0,0.0,0.0,0.0,0.0,0.0,0.0,0.0,0.0,0.0,0.0,0.0,0.0,0.0,0.0,0.0,0.0,0.0,0.0,0.0,0.0,0.0,0.0,0.0,0.0,0.0,0.0,0.0,0.0,0.0,0.0,0.0,0.0,0.0,0.0,0.0,0.0,0.0,0.0,0.0,0.0,0.0,0.0,0.0,0.0,0.0,0.0,0.0,0.0,0.0,0.0,0.0,0.0,0.0,0.0,0.0,0.0,0.0,0.0,0.0,0.0,0.0,0.0,0.0,0.0,0.0,0.0,0.0,0.0,0.0,0.0,0.0,0.0,0.0,0.0,0.0,0.0,0.0,0.0,0.0,0.0,0.0,0.0,0.0,0.0,0.0,0.0,0.0,0.0,0.0,0.0,0.0,0.0,0.0,0.0,0.0,0.0,0.0,0.0,0.0,0.0,0.0,0.0,0.0,0.0,0.0,0.0,0.0,0.0,0.0,0.0,0.0,0.0,0.0,0.0,0.0,0.0,0.0,0.0,0.0,0.0,0.0,0.0,0.0,0.0,0.0,0.0,0.0,0.0,0.0,0.0,0.0,0.0,0.0,0.0,0.0,0.0,0.0,0.0,0.0,0.0,0.0,0.0,0.0,0.0,0.0,0.0,0.0,0.0,0.0,0.0,0.0,0.0,0.0,0.0,0.0,0.0,0.0,0.0,0.0,0.0,0.0,0.0,0.0,0.0,0.0,0.0,0.0,0.0,0.0,0.0,0.0,0.0,0.0,0.0,0.0,0.0,0.0,0.0,0.0,0.0,0.0,0.0,0.0,0.0,0.0,0.0,0.0,0.0,0.0,0.0,0.0,0.0,0.0,0.0,0.0,0.0,0.0,0.0,0.0,0.0,0.0,0.0,0.0,0.0,0.0,0.0,0.0,0.0,0.0,0.0,0.0,0.0,0.0,0.0,0.0,0.0,0.0,0.0,0.0,0.0,0.0,0.0,0.0,0.0,0.0,0.0,0.0,0.0,0.0,0.0,0.0,0.0,0.0,0.0,0.0,0.0,0.0,0.0,0.0,0.0,0.0,0.0,0.0,0.0,0.0,0.0,0.0,0.0,0.0,0.0,0.0,0.0,0.0,0.0,0.0,0.0,0.0,0.0,0.0,0.0,0.0,0.0,0.0,0.0,0.0,0.0,0.0,0.0,0.0,0.0,0.0,0.0,0.0,0.0,0.0,0.0,0.0,0.0,0.0,0.0,0.0,0.0,0.0,0.0,0.0,0.0,0.0,0.0,0.0,0.0,0.0,0.0,0.0,0.0,0.0,0.0,0.0,0.0,0.0,0.0,0.0,0.0,0.0,0.0,0.0,0.0,0.0,0.0,0.0,0.0,0.0,0.0,0.0,0.0,-1.4777,0.0,0.0,0.0,0.0,0.0,0.0,0.0,0.0,0.0,0.0,0.0,0.0,0.0,0.0,0.0,0.0,0.0,0.0,0.0,0.0,0.0,0.0,0.0,0.0,0.0,0.0,0.0,0.0,0.0,0.0,0.0,0.0,0.0,0.0,0.0,0.0,0.0,0.0,0.0,0.0,0.0,0.0,0.0,0.0,0.0,0.0,0.0,0.0,0.0,0.0,0.0,0.0,0.0,0.0,0.0,0.0,0.0,0.0,0.0,0.0,0.0,0.0,0.0,0.0,0.0,0.0,0.0,0.0,0.0,0.0,0.0,0.0,0.0,0.0,0.0,0.0,0.0,0.0,0.0,0.0,0.0,0.0,0.0,0.0,0.0,0.0,0.0,0.0,0.0,0.0,0.0,0.0,0.0,0.0,0.0,0.0,0.0,0.0,0.0,0.0,0.0,0.0,0.0,0.0,0.0,0.0,0.0,0.0,0.0,0.0,-1.4814,-1.431,-1.524,-1.558,-1.5137,0.0,0.0,0.0,0.0,0.0,0.0,0.0,0.0,0.0,0.0,0.0,0.0,0.0,0.0,0.0,0.0,0.0,0.0,0.0,0.0,0.0,0.0,0.0,0.0,0.0,0.0,0.0,0.0,0.0,0.0,0.0,0.0,0.0,0.0,0.0,0.0,0.0,0.0,0.0,0.0,0.0,0.0,0.0,0.0,0.0,0.0,0.0,0.0,0.0,0.0,0.0,0.0,0.0,0.0,0.0,0.0,0.0,0.0,0.0,0.0,0.0,0.0,0.0,0.0,0.0,0.0,0.0,0.0,0.0,0.0,0.0,0.0,0.0,0.0,0.0,0.0,0.0,0.0,0.0,0.0,0.0,0.0,0.0,0.0,0.0,0.0,0.0,0.0,0.0,0.0,0.0,0.0,0.0,0.0,0.0,0.0,0.0,0.0,0.0,0.0,0.0,0.0,0.0,0.0,0.0,0.0,0.0,0.0,0.0,0.0,0.0,0.0,-1.527,-1.5682,-1.524,0.0,0.0,0.0,0.0,0.0,0.0,0.0,0.0,0.0,0.0,0.0,0.0,0.0,0.0,0.0,0.0,0.0,0.0,0.0,0.0,0.0,0.0,0.0,0.0,0.0,0.0,0.0,0.0,0.0,0.0,0.0,0.0,0.0,0.0,0.0,0.0,0.0,0.0,0.0,0.0,0.0,0.0,0.0,0.0,0.0,0.0,0.0,0.0,0.0,0.0,0.0,0.0,0.0,0.0,0.0,0.0,0.0,0.0,0.0,0.0,0.0,0.0,0.0,0.0,0.0,0.0,0.0,0.0,0.0,0.0,0.0,0.0,0.0,0.0,0.0,0.0,0.0,0.0,0.0,0.0,0.0,0.0,0.0,0.0,0.0,0.0,0.0,0.0,0.0,0.0,0.0,0.0,0.0,0.0,0.0,0.0,0.0,0.0,0.0,0.0,0.0,0.0,0.0,0.0,0.0,0.0,0.0,0.0,0.0,0.0,-1.4246,-1.4533,-1.4968,0.0,-1.4696,0.0,0.0,0.0,0.0,0.0,0.0,0.0,0.0,0.0,0.0,0.0,0.0,0.0,0.0,0.0,0.0,0.0,0.0,0.0,0.0,0.0,0.0,0.0,0.0,0.0,0.0,0.0,0.0,0.0,0.0,0.0,0.0,0.0,0.0,0.0,0.0,0.0,0.0,0.0,0.0,0.0,0.0,0.0,0.0,0.0,0.0,0.0,0.0,0.0,0.0,0.0,0.0,0.0,0.0,0.0,0.0,0.0,0.0,0.0,0.0,0.0,0.0,0.0,0.0,0.0,0.0,0.0,0.0,0.0,0.0,0.0,0.0,0.0,0.0,0.0,0.0,0.0,0.0,0.0,0.0,0.0,0.0,0.0,0.0,0.0,0.0,0.0,0.0,0.0,0.0,0.0,0.0,0.0,0.0,0.0,0.0,0.0,0.0,0.0,0.0,0.0,0.0,0.0,0.0,0.0,0.0,0.0,0.0,0.0,0.0,-1.4876,-1.4998,-1.5389,-1.5181,0.0,0.0,0.0,0.0,0.0,0.0,0.0,0.0,0.0,0.0,0.0,0.0,0.0,0.0,0.0,0.0,0.0,0.0,0.0,0.0,0.0,0.0,0.0,0.0,0.0,0.0,0.0,0.0,0.0,0.0,0.0,0.0,0.0,0.0,0.0,0.0,0.0,0.0,0.0,0.0,0.0,0.0,0.0,0.0,0.0,0.0,0.0,0.0,0.0,0.0,0.0,0.0,0.0,0.0,0.0,0.0,0.0,0.0,0.0,0.0,0.0,0.0,0.0,0.0,0.0,0.0,0.0,0.0,0.0,0.0,0.0,0.0,0.0,0.0,0.0,0.0,0.0,0.0,0.0,0.0,0.0,0.0,0.0,0.0,0.0,0.0,0.0,0.0,0.0,0.0,0.0,0.0,0.0,0.0,0.0,0.0,0.0,0.0,0.0,0.0,0.0,0.0,0.0,0.0,0.0,0.0,0.0,0.0,0.0,0.0,-1.5145,-1.5315,-1.5389,-1.5697,-1.5477,-1.4567,0.0,0.0,0.0,0.0,0.0,0.0,0.0,0.0,0.0,0.0,0.0,0.0,0.0,0.0,0.0,0.0,0.0,0.0,0.0,0.0,0.0,0.0,0.0,0.0,0.0,0.0,0.0,0.0,0.0,0.0,0.0,0.0,0.0,0.0,0.0,0.0,0.0,0.0,0.0,0.0,0.0,0.0,0.0,0.0,0.0,0.0,0.0,0.0,0.0,0.0,0.0,0.0,0.0,0.0,0.0,0.0,0.0,0.0,0.0,0.0,0.0,0.0,0.0,0.0,0.0,0.0,0.0,0.0,0.0,0.0,0.0,0.0,0.0,0.0,0.0,0.0,0.0,0.0,0.0,0.0,0.0,0.0,0.0,0.0,0.0,0.0,0.0,0.0,0.0,0.0,0.0,0.0,0.0,0.0,0.0,0.0,0.0,0.0,0.0,0.0,0.0,0.0,0.0,0.0,0.0,0.0,0.0,0.0,-1.5945,-1.5442,-1.5269,-1.558,-1.5726,-1.577,0.0,0.0,0.0,0.0,0.0,0.0,0.0,0.0,0.0,0.0,0.0,0.0,0.0,0.0,0.0,0.0,0.0,0.0,0.0,0.0,0.0,0.0,0.0,0.0,0.0,0.0,0.0,0.0,0.0,0.0,0.0,0.0,0.0,0.0,0.0,0.0,0.0,0.0,0.0,0.0,0.0,0.0,0.0,0.0,0.0,0.0,0.0,0.0,0.0,0.0,0.0,0.0,0.0,0.0,0.0,0.0,0.0,0.0,0.0,0.0,0.0,0.0,0.0,0.0,0.0,0.0,0.0,0.0,0.0,0.0,0.0,0.0,0.0,0.0,0.0,0.0,0.0,0.0,0.0,0.0,0.0,0.0,0.0,0.0,0.0,0.0,0.0,0.0,0.0,0.0,0.0,0.0,0.0,0.0,0.0,0.0,0.0,0.0,0.0,0.0,0.0,0.0,0.0,0.0,0.0,0.0,0.0,0.0,0.0,-1.5758,-1.5886,-1.594,-1.5926,-1.5983,-1.597,0.0,0.0,0.0,0.0,0.0,0.0,0.0,0.0,0.0,0.0,0.0,0.0,0.0,0.0,0.0,0.0,0.0,0.0,0.0,0.0,0.0,0.0,0.0,0.0,0.0,0.0,0.0,0.0,0.0,0.0,0.0,0.0,0.0,0.0,0.0,0.0,0.0,0.0,0.0,0.0,0.0,0.0,0.0,0.0,0.0,0.0,0.0,0.0,0.0,0.0,0.0,0.0,0.0,0.0,0.0,0.0,0.0,0.0,0.0,0.0,0.0,0.0,0.0,0.0,0.0,0.0,0.0,0.0,0.0,0.0,0.0,0.0,0.0,0.0,0.0,0.0,0.0,0.0,0.0,0.0,0.0,0.0,0.0,0.0,0.0,0.0,0.0,0.0,0.0,0.0,0.0,0.0,0.0,0.0,0.0,0.0,0.0,0.0,0.0,0.0,0.0,0.0,0.0,0.0,0.0,0.0,0.0,0.0,0.0,-1.6218,0.0,-1.6732,-1.639,-1.6432,-1.6268,0.0,0.0,0.0,0.0,0.0,0.0,0.0,0.0,0.0,0.0,0.0,0.0,0.0,0.0,0.0,0.0,0.0,0.0,0.0,0.0,0.0,0.0,0.0,0.0,0.0,0.0,0.0,0.0,0.0,0.0,0.0,0.0,0.0,0.0,0.0,0.0,0.0,0.0,0.0,0.0,0.0,0.0,0.0,0.0,0.0,0.0,0.0,0.0,0.0,0.0,0.0,0.0,0.0,0.0,0.0,0.0,0.0,0.0,0.0,0.0,0.0,0.0,0.0,0.0,0.0,0.0,0.0,0.0,0.0,0.0,0.0,0.0,0.0,0.0,0.0,0.0,0.0,0.0,0.0,0.0,0.0,0.0,0.0,0.0,0.0,0.0,0.0,0.0,0.0,0.0,0.0,0.0,0.0,0.0,0.0,0.0,0.0,0.0,0.0,0.0,0.0,0.0,0.0,0.0,0.0,0.0,0.0,0.0,-1.635,-1.7525,-1.7847,-1.7638,-1.6955,-1.6985,-1.6696,0.0,0.0,0.0,0.0,0.0,0.0,0.0,0.0,0.0,0.0,0.0,0.0,0.0,0.0,0.0,0.0,0.0,0.0,0.0,0.0,0.0,0.0,0.0,0.0,0.0,0.0,0.0,0.0,0.0,0.0,0.0,0.0,0.0,0.0,0.0,0.0,0.0,0.0,0.0,0.0,0.0,0.0,0.0,0.0,0.0,0.0,0.0,0.0,0.0,0.0,0.0,0.0,0.0,0.0,0.0,0.0,0.0,0.0,0.0,0.0,0.0,0.0,0.0,0.0,0.0,0.0,0.0,0.0,0.0,0.0,0.0,0.0,0.0,0.0,0.0,0.0,0.0,0.0,0.0,0.0,0.0,0.0,0.0,0.0,0.0,0.0,0.0,0.0,0.0,0.0,0.0,0.0,0.0,0.0,0.0,0.0,0.0,0.0,0.0,0.0,0.0,0.0,0.0,0.0,0.0,0.0,0.0,0.0,0.0,-1.8051,-1.8362,-1.8299,-1.7884,-1.7854,-1.7441,0.0,0.0,0.0,0.0,0.0,0.0,0.0,0.0,0.0,0.0,0.0,0.0,0.0,0.0,0.0,0.0,0.0,0.0,0.0,0.0,0.0,0.0,0.0,0.0,0.0,0.0,0.0,0.0,0.0,0.0,0.0,0.0,0.0,0.0,0.0,0.0,0.0,0.0,0.0,0.0,0.0,0.0,0.0,0.0,0.0,0.0,0.0,0.0,0.0,0.0,0.0,0.0,0.0,0.0,0.0,0.0,0.0,0.0,0.0,0.0,0.0,0.0,0.0,0.0,0.0,0.0,0.0,0.0,0.0,0.0,0.0,0.0,0.0,0.0,0.0,0.0,0.0,0.0,0.0,0.0,0.0,0.0,0.0,0.0,0.0,0.0,0.0,0.0,0.0,0.0,0.0,0.0,0.0,0.0,0.0,0.0,0.0,0.0,0.0,0.0,0.0,0.0,0.0,0.0,0.0,0.0,0.0,0.0,0.0,-1.8324,-1.8362,-1.8377,-1.8242,-1.8208,-1.7817,-1.7015,0.0,0.0,0.0,0.0,0.0,0.0,0.0,0.0,0.0,0.0,0.0,0.0,0.0,0.0,0.0,0.0,0.0,0.0,0.0,0.0,0.0,0.0,0.0,0.0,0.0,0.0,0.0,0.0,0.0,0.0,0.0,0.0,0.0,0.0,0.0,0.0,0.0,0.0,0.0,0.0,0.0,0.0,0.0,0.0,0.0,0.0,0.0,0.0,0.0,0.0,0.0,0.0,0.0,0.0,0.0,0.0,0.0,0.0,0.0,0.0,0.0,0.0,0.0,0.0,0.0,0.0,0.0,0.0,0.0,0.0,0.0,0.0,0.0,0.0,0.0,0.0,0.0,0.0,0.0,0.0,0.0,0.0,0.0,0.0,0.0,0.0,0.0,0.0,0.0,0.0,0.0,0.0,0.0,0.0,0.0,0.0,0.0,0.0,0.0,0.0,0.0,0.0,0.0,0.0,0.0,0.0,0.0,0.0,-1.8268,-1.7944,-1.7892,-1.821,-1.8193,-1.7863,0.0,0.0,0.0,0.0,0.0,0.0,0.0,0.0,0.0,0.0,0.0,0.0,0.0,0.0,0.0,0.0,0.0,0.0,0.0,0.0,0.0,0.0,0.0,0.0,0.0,0.0,0.0,0.0,0.0,0.0,0.0,0.0,0.0,0.0,0.0,0.0,0.0,0.0,0.0,0.0,0.0,0.0,0.0,0.0,0.0,0.0,0.0,0.0,0.0,0.0,0.0,0.0,0.0,0.0,0.0,0.0,0.0,0.0,0.0,0.0,0.0,0.0,0.0,0.0,0.0,0.0,0.0,0.0,0.0,0.0,0.0,0.0,0.0,0.0,0.0,0.0,0.0,0.0,0.0,0.0,0.0,0.0,0.0,0.0,0.0,0.0,0.0,0.0,0.0,0.0,0.0,0.0,0.0,0.0,0.0,0.0,0.0,0.0,0.0,0.0,0.0,0.0,0.0,0.0,0.0,0.0,0.0,0.0,0.0,-1.693,-1.6408,-1.6821,-1.8249,-1.8603,-1.8453,0.0,0.0,0.0,0.0,0.0,0.0,0.0,0.0,0.0,0.0,0.0,0.0,0.0,0.0,0.0,0.0,0.0,0.0,0.0,0.0,0.0,0.0,0.0,0.0,0.0,0.0,0.0,0.0,0.0,0.0,0.0,0.0,0.0,0.0,0.0,0.0,0.0,0.0,0.0,0.0,0.0,0.0,0.0,0.0,0.0,0.0,0.0,0.0,0.0,0.0,0.0,0.0,0.0,0.0,0.0,0.0,0.0,0.0,0.0,0.0,0.0,0.0,0.0,0.0,0.0,0.0,0.0,0.0,0.0,0.0,0.0,0.0,0.0,0.0,0.0,0.0,0.0,0.0,0.0,0.0,0.0,0.0,0.0,0.0,0.0,0.0,0.0,0.0,0.0,0.0,0.0,0.0,0.0,0.0,0.0,0.0,0.0,0.0,0.0,0.0,0.0,0.0,0.0,0.0,0.0,0.0,0.0,0.0,-1.6879,-1.6211,-1.58,-1.6116,-1.7275,-1.7809,-1.8112,0.0,0.0,0.0,0.0,0.0,0.0,0.0,0.0,0.0,0.0,0.0,0.0,0.0,0.0,0.0,0.0,0.0,0.0,0.0,0.0,0.0,0.0,0.0,0.0,0.0,0.0,0.0,0.0,0.0,0.0,0.0,0.0,0.0,0.0,0.0,0.0,0.0,0.0,0.0,0.0,0.0,0.0,0.0,0.0,0.0,0.0,0.0,0.0,0.0,0.0,0.0,0.0,0.0,0.0,0.0,0.0,0.0,0.0,0.0,0.0,0.0,0.0,0.0,0.0,0.0,0.0,0.0,0.0,0.0,0.0,0.0,0.0,0.0,0.0,0.0,0.0,0.0,0.0,0.0,0.0,0.0,0.0,0.0,0.0,0.0,0.0,0.0,0.0,0.0,0.0,0.0,0.0,0.0,0.0,0.0,0.0,0.0,0.0,0.0,0.0,0.0,0.0,0.0,0.0,0.0,0.0,0.0,0.0,-1.6919,-1.582,-1.5733,-1.573,-1.5864,-1.6512,-1.7398,0.0,0.0,0.0,0.0,0.0,0.0,0.0,0.0,0.0,0.0,0.0,0.0,0.0,0.0,0.0,0.0,0.0,0.0,0.0,0.0,0.0,0.0,0.0,0.0,0.0,0.0,0.0,0.0,0.0,0.0,0.0,0.0,0.0,0.0,0.0,0.0,0.0,0.0,0.0,0.0,0.0,0.0,0.0,0.0,0.0,0.0,0.0,0.0,0.0,0.0,0.0,0.0,0.0,0.0,0.0,0.0,0.0,0.0,0.0,0.0,0.0,0.0,0.0,0.0,0.0,0.0,0.0,0.0,0.0,0.0,0.0,0.0,0.0,0.0,0.0,0.0,0.0,0.0,0.0,0.0,0.0,0.0,0.0,0.0,0.0,0.0,0.0,0.0,0.0,0.0,0.0,0.0,0.0,0.0,0.0,0.0,0.0,0.0,0.0,0.0,0.0,0.0,0.0,0.0,0.0,0.0,0.0,0.0,-1.6185,-1.5098,-1.5295,-1.5478,-1.5536,-1.639,-1.7365,0.0,0.0,0.0,0.0,0.0,0.0,0.0,0.0,0.0,0.0,0.0,0.0,0.0,0.0,0.0,0.0,0.0,0.0,0.0,0.0,0.0,0.0,0.0,0.0,0.0,0.0,0.0,0.0,0.0,0.0,0.0,0.0,0.0,0.0,0.0,0.0,0.0,0.0,0.0,0.0,0.0,0.0,0.0,0.0,0.0,0.0,0.0,0.0,-0.1123,0.0,0.0,0.0,0.0,0.0,0.0,0.0,0.0,0.0,0.0,0.0,0.0,0.0,0.0,0.0,0.0,0.0,0.0,0.0,0.0,0.0,0.0,0.0,0.0,0.0,0.0,0.0,0.0,0.0,0.0,0.0,0.0,0.0,0.0,0.0,0.0,0.0,0.0,0.0,0.0,0.0,0.0,0.0,0.0,0.0,0.0,0.0,0.0,0.0,0.0,0.0,0.0,0.0,0.0,0.0,0.0,0.0,0.0,0.0,-1.6031,-1.5109,-1.5295,-1.542,-1.5429,-1.5994,-1.6985,0.0,0.0,0.0,0.0,0.0,0.0,0.0,0.0,0.0,0.0,0.0,0.0,0.0,0.0,0.0,0.0,0.0,0.0,0.0,0.0,0.0,0.0,0.0,0.0,0.0,0.0,0.0,0.0,0.0,0.0,0.0,0.0,0.0,0.0,0.0,0.0,0.0,0.0,0.0,0.0,0.0,0.0,0.0,0.0,0.0,0.0,0.0,0.0,0.0,0.0,0.0,0.0,0.0,0.0,0.0,0.0,0.0,0.0,0.0,0.0,0.0,0.0,0.0,0.0,0.0,0.0,0.0,0.0,0.0,0.0,0.0,0.0,0.0,0.0,0.0,0.0,0.0,0.0,0.0,0.0,0.0,0.0,0.0,0.0,0.0,0.0,0.0,0.0,0.0,0.0,0.0,0.0,0.0,0.0,0.0,0.0,0.0,0.0,0.0,0.0,0.0,0.0,0.0,0.0,0.0,0.0,0.0,-1.6193,-1.5957,-1.5405,-1.5439,-1.5547,-1.5596,-1.5762,-1.6744,-1.8537,0.0,0.0,0.0,0.0,0.0,0.0,0.0,0.0,0.0,0.0,0.0,0.0,0.0,0.0,0.0,0.0,0.0,0.0,0.0,0.0,0.0,0.0,0.0,0.0,0.0,0.0,0.0,0.0,0.0,0.0,0.0,0.0,0.0,0.0,0.0,0.0,0.0,0.0,-0.2254,-0.2179,0.0,0.0,0.0,0.0,0.0,0.0,0.0,0.0,-0.1159,0.0,0.0,0.0,0.0,0.0,0.0,0.0,0.0,0.0,0.0,0.0,0.0,0.0,0.0,0.0,0.0,0.0,0.0,0.0,0.0,0.0,0.0,0.0,0.0,0.0,0.0,0.0,0.0,0.0,0.0,0.0,0.0,0.0,0.0,0.0,0.0,0.0,0.0,0.0,0.0,0.0,0.0,0.0,0.0,0.0,0.0,0.0,0.0,0.0,0.0,0.0,0.0,0.0,0.0,0.0,0.0,-1.536,-1.5302,-1.5207,-1.5169,-1.5689,-1.6133,-1.6465,-1.6821,-1.7601,-1.8738,0.0,0.0,0.0,0.0,0.0,0.0,0.0,0.0,0.0,0.0,0.0,0.0,0.0,0.0,0.0,0.0,0.0,0.0,0.0,0.0,0.0,0.0,0.0,0.0,0.0,0.0,0.0,0.0,0.0,0.0,0.0,0.0,0.0,0.0,0.0,0.0,0.0,0.0,0.0,-0.2456,-0.2211,0.0,0.0,0.0,0.0,0.0,0.0,0.0,0.0,-0.0947,0.0,0.0,0.0,0.0,0.0,0.0,0.0,0.0,0.0,0.0,0.0,0.0,0.0,0.0,0.0,0.0,0.0,0.0,0.0,0.0,0.0,0.0,0.0,0.0,0.0,0.0,0.0,0.0,0.0,0.0,0.0,0.0,0.0,0.0,0.0,0.0,0.0,0.0,0.0,0.0,0.0,0.0,0.0,0.0,0.0,0.0,0.0,0.0,0.0,0.0,0.0,0.0,0.0,0.0,0.0,-1.5748,-1.5397,-1.523,-1.5376,-1.6023,-1.6514,-1.6709,-1.7043,-1.7622,0.0,0.0,0.0,0.0,0.0,0.0,0.0,0.0,0.0,0.0,0.0,0.0,0.0,0.0,0.0,0.0,0.0,0.0,0.0,0.0,0.0,0.0,0.0,0.0,0.0,0.0,0.0,0.0,0.0,0.0,0.0,0.0,0.0,0.0,0.0,0.0,0.0,0.0,0.0,0.0,-0.3084,-0.3303,-0.3093,0.0,0.0,0.0,0.0,0.0,0.0,-0.1005,-0.0807,0.0,0.0,0.0,0.0,0.0,0.0,0.0,0.0,0.0,0.0,0.0,0.0,0.0,0.0,0.0,0.0,0.0,0.0,0.0,0.0,0.0,0.0,0.0,0.0,0.0,0.0,0.0,0.0,0.0,0.0,0.0,0.0,0.0,0.0,0.0,0.0,0.0,0.0,0.0,0.0,0.0,0.0,0.0,0.0,0.0,0.0,0.0,0.0,0.0,0.0,0.0,0.0,0.0,0.0,0.0,-1.6252,-1.5695,-1.5473,-1.5735,-1.6462,-1.6904,-1.6963,-1.7312,-1.7838,0.0,0.0,0.0,0.0,0.0,0.0,0.0,0.0,0.0,0.0,0.0,0.0,0.0,0.0,0.0,0.0,0.0,0.0,0.0,0.0,0.0,0.0,0.0,0.0,0.0,0.0,0.0,0.0,0.0,0.0,0.0,0.0,0.0,0.0,0.0,0.0,0.0,0.0,0.0,0.0,0.0,-0.4369,-0.4468,-0.2833,0.0,0.0,0.0,0.0,-0.1055,-0.1251,0.0,0.0,0.0,0.0,0.0,0.0,0.0,0.0,0.0,0.0,0.0,0.0,0.0,0.0,0.0,0.0,0.0,0.0,0.0,0.0,0.0,0.0,0.0,0.0,0.0,0.0,0.0,0.0,0.0,0.0,0.0,0.0,0.0,0.0,0.0,0.0,0.0,0.0,0.0,0.0,0.0,0.0,0.0,0.0,0.0,0.0,0.0,0.0,0.0,0.0,0.0,0.0,0.0,0.0,0.0,0.0,-1.6115,-1.5614,-1.5565,-1.612,-1.6882,-1.748,-1.7822,-1.8462,-1.8988,0.0,0.0,0.0,0.0,0.0,0.0,0.0,0.0,0.0,0.0,0.0,0.0,0.0,0.0,0.0,0.0,0.0,0.0,0.0,0.0,0.0,0.0,0.0,0.0,0.0,0.0,0.0,0.0,0.0,0.0,0.0,0.0,0.0,0.0,0.0,0.0,0.0,0.0,0.0,0.0,0.0,-0.456,-0.6063,-0.3797,-0.193,0.0,0.0,-0.2679,-0.3076,-0.3673,0.0,0.0,0.0,0.0,0.0,0.0,0.0,0.0,0.0,0.0,0.0,0.0,0.0,0.0,0.0,0.0,0.0,0.0,0.0,0.0,0.0,0.0,0.0,0.0,0.0,0.0,0.0,0.0,0.0,0.0,0.0,0.0,0.0,0.0,0.0,0.0,0.0,0.0,0.0,0.0,0.0,0.0,0.0,0.0,0.0,0.0,0.0,0.0,0.0,0.0,0.0,0.0,0.0,0.0,0.0,-1.5647,-1.6351,-1.5846,-1.5905,-1.6578,-1.7379,-1.7822,-1.7998,-1.8633,-1.9089,0.0,0.0,0.0,0.0,0.0,0.0,0.0,0.0,0.0,0.0,0.0,0.0,0.0,0.0,0.0,0.0,0.0,0.0,0.0,0.0,0.0,0.0,0.0,0.0,0.0,0.0,0.0,0.0,0.0,0.0,0.0,0.0,0.0,0.0,0.0,0.0,0.0,0.0,0.0,0.0,0.0,0.0,-0.5348,-0.4002,0.0,0.0,0.0,-0.2929,-0.3332,0.0,0.0,0.0,0.0,0.0,0.0,0.0,0.0,0.0,0.0,0.0,0.0,0.0,0.0,0.0,0.0,0.0,0.0,0.0,0.0,0.0,0.0,0.0,0.0,0.0,0.0,0.0,0.0,0.0,0.0,0.0,0.0,0.0,0.0,0.0,0.0,0.0,0.0,0.0,0.0,0.0,0.0,0.0,0.0,0.0,0.0,0.0,0.0,0.0,0.0,0.0,0.0,0.0,0.0,0.0,0.0,0.0,-1.6549,-1.6225,-1.6306,-1.6932,-1.7588,-1.8008,-1.8046,-1.8493,0.0,0.0,0.0,0.0,0.0,0.0,0.0,0.0,0.0,0.0,0.0,0.0,0.0,0.0,0.0,0.0,0.0,0.0,0.0,0.0,0.0,0.0,0.0,0.0,0.0,0.0,0.0,-0.4117,0.0,0.0,0.0,0.0,0.0,0.0,0.0,0.0,0.0,0.0,0.0,0.0,0.0,0.0,-0.502,-0.4901,-0.4324,-0.4037,0.0,0.0,-0.2645,-0.3426,-0.3775,-0.3852,0.0,0.0,0.0,0.0,0.0,0.0,0.0,0.0,0.0,0.0,0.0,0.0,0.0,0.0,0.0,0.0,0.0,0.0,0.0,0.0,0.0,0.0,0.0,0.0,0.0,0.0,0.0,0.0,0.0,0.0,0.0,0.0,0.0,0.0,0.0,0.0,0.0,0.0,0.0,0.0,0.0,0.0,0.0,0.0,0.0,0.0,0.0,0.0,0.0,0.0,0.0,0.0,0.0,0.0,0.0,-1.6592,-1.6754,-1.6862,-1.6932,-1.7647,-1.8008,-1.7988,-1.8249,-1.8623,0.0,0.0,0.0,0.0,0.0,0.0,0.0,0.0,0.0,0.0,0.0,0.0,0.0,0.0,0.0,0.0,0.0,0.0,0.0,0.0,0.0,0.0,0.0,0.0,0.0,0.0,0.0,0.0,0.0,0.0,0.0,0.0,0.0,0.0,0.0,0.0,0.0,0.0,0.0,0.0,0.0,-0.5979,-0.5674,-0.5057,-0.4769,0.0,0.0,-0.1945,-0.3849,-0.472,-0.517,-0.5152,0.0,0.0,0.0,0.0,0.0,0.0,0.0,0.0,0.0,0.0,0.0,0.0,0.0,0.0,0.0,0.0,0.0,0.0,0.0,0.0,0.0,0.0,0.0,0.0,0.0,0.0,0.0,0.0,0.0,0.0,0.0,0.0,0.0,0.0,0.0,0.0,0.0,0.0,0.0,0.0,0.0,0.0,0.0,0.0,0.0,0.0,0.0,0.0,0.0,0.0,0.0,0.0,0.0,-1.5887,-1.7368,-1.7076,-1.7148,-1.7579,-1.7862,-1.8008,-1.8008,-1.826,-1.8531,0.0,0.0,0.0,0.0,0.0,0.0,0.0,0.0,0.0,0.0,0.0,0.0,0.0,0.0,0.0,0.0,0.0,0.0,0.0,0.0,0.0,0.0,0.0,0.0,0.0,0.0,0.0,0.0,-0.5144,-0.4959,-0.4516,0.0,0.0,0.0,0.0,0.0,0.0,0.0,0.0,0.0,0.0,-0.6106,-0.6198,-0.5838,0.0,0.0,-0.4036,-0.3124,-0.4125,-0.4539,-0.4696,-0.4666,-0.4042,0.0,0.0,0.0,0.0,0.0,0.0,0.0,0.0,0.0,0.0,0.0,0.0,0.0,0.0,0.0,0.0,0.0,0.0,0.0,0.0,0.0,0.0,0.0,0.0,0.0,0.0,0.0,0.0,0.0,0.0,0.0,0.0,0.0,0.0,0.0,0.0,0.0,0.0,0.0,0.0,0.0,0.0,0.0,0.0,0.0,0.0,0.0,0.0,0.0,0.0,0.0,0.0,-1.6089,-1.7795,-1.7426,-1.751,-1.7998,-1.8008,-1.8008,-1.7988,-1.8178,-1.8321,0.0,0.0,0.0,0.0,0.0,0.0,0.0,0.0,0.0,0.0,0.0,0.0,0.0,0.0,0.0,0.0,0.0,0.0,0.0,0.0,0.0,0.0,0.0,0.0,0.0,0.0,0.0,0.0,-0.5288,-0.5155,-0.4574,0.0,0.0,0.0,0.0,0.0,0.0,0.0,0.0,0.0,0.0,-0.6379,-0.6529,-0.6254,-0.6041,-0.5803,-0.4383,-0.3549,-0.4134,-0.4089,-0.4071,-0.4277,0.0,0.0,0.0,0.0,0.0,0.0,0.0,0.0,0.0,0.0,0.0,0.0,0.0,0.0,0.0,0.0,0.0,0.0,0.0,0.0,0.0,0.0,0.0,0.0,0.0,0.0,0.0,0.0,0.0,0.0,-0.0,0.0,0.0,0.0,0.0,0.0,0.0,0.0,0.0,0.0,0.0,0.0,0.0,0.0,0.0,0.0,0.0,0.0,0.0,0.0,0.0,0.0,0.0,-1.6606,-1.7556,-1.7795,-1.794,-1.8008,-1.8008,-1.8008,-1.8008,-1.8046,-1.8056,-1.8144,0.0,0.0,0.0,0.0,0.0,0.0,0.0,0.0,0.0,0.0,0.0,0.0,0.0,0.0,0.0,0.0,0.0,0.0,0.0,0.0,0.0,0.0,0.0,0.0,0.0,0.0,-0.4222,-0.472,-0.5154,0.0,0.0,0.0,0.0,0.0,0.0,0.0,0.0,0.0,0.0,-0.6191,-0.72,-0.6522,-0.6327,-0.6054,-0.5544,-0.3727,-0.2725,-0.392,-0.3592,-0.3442,0.0,0.0,0.0,0.0,0.0,0.0,0.0,0.0,0.0,0.0,0.0,0.0,0.0,0.0,0.0,0.0,0.0,0.0,0.0,0.0,0.0,0.0,0.0,0.0,0.0,0.0,0.0,-0.0478,-0.0717,0.0,0.0,0.0,0.0,0.0,0.0,0.0,0.0,0.0,0.0,0.0,-0.3544,-0.3192,0.0,0.0,0.0,0.0,0.0,0.0,0.0,0.0,0.0,0.0,0.0,0.0,-1.5693,-1.7164,-1.7272,-1.751,-1.8008,-1.8008,-1.8008,-1.8008,-1.8008,-1.8097,-1.8319,0.0,0.0,0.0,0.0,0.0,0.0,0.0,0.0,0.0,0.0,0.0,0.0,0.0,0.0,0.0,0.0,0.0,0.0,0.0,0.0,0.0,0.0,0.0,0.0,0.0,-0.5412,0.0,0.0,0.0,0.0,0.0,0.0,0.0,0.0,0.0,0.0,0.0,-0.4961,-0.5567,-0.5584,-0.5864,-0.6846,-0.6423,-0.5697,0.0,0.0,0.0,0.0,0.0,0.0,0.0,0.0,0.0,0.0,0.0,0.0,0.0,0.0,-0.0977,-0.0829,-0.0755,-0.052,0.0363,0.0,0.0,0.0,0.0,0.0,0.0,0.0,0.0,0.0,0.0,0.0,0.0,0.0,0.0,-0.0753,0.0,-0.151,0.0,0.0,0.0,0.0,0.0,0.0,0.0,0.0,-0.2365,-0.2898,-0.3546,-0.365,-0.4152,0.0,-0.4076,-0.374,0.0,0.0,0.0,0.0,0.0,0.0,0.0,0.0,-1.4731,-1.6276,-1.6487,-1.7005,-1.7868,-1.8006,-1.8222,-1.8646,-1.8656,-1.871,-1.8933,-1.8813,-1.8521,0.0,0.0,0.0,0.0,0.0,0.0,0.0,0.0,0.0,0.0,0.0,0.0,0.0,0.0,0.0,0.0,0.0,0.0,0.0,0.0,0.0,0.0,0.0,-0.5847,0.0,0.0,0.0,0.0,0.0,0.0,0.0,0.0,0.0,-0.5103,-0.5187,-0.542,-0.5983,-0.5634,-0.5712,-0.6755,0.0,0.0,0.0,0.0,0.0,0.0,0.0,-0.1828,-0.1575,-0.2549,-0.3076,-0.2157,-0.2091,-0.2232,-0.2404,0.0,0.0,-0.2383,-0.2167,-0.1896,-0.1226,-0.1002,-0.089,-0.0722,-0.0777,-0.0834,0.0,0.0,0.0,0.0,0.0,0.0,0.0,0.0,-0.1681,-0.1699,0.0,-0.3896,0.0,0.0,0.0,0.0,0.0,-0.1205,0.0,0.0,-0.352,-0.3233,-0.1196,-0.3096,-0.4382,-0.4957,-0.4102,-0.439,-0.5745,-0.5931,0.0,0.0,0.0,0.0,0.0,0.0,-1.3777,-1.5006,-1.5637,-1.6528,-1.7692,-1.7986,-1.8605,-1.9735,-1.9837,-1.9817,-1.9797,-1.9117,-1.8446,-1.777,-1.7116,0.0,0.0,0.0,0.0,0.0,0.0,0.0,0.0,0.0,0.0,0.0,0.0,0.0,0.0,0.0,0.0,0.0,0.0,0.0,0.0,-0.6121,0.0,0.0,0.0,0.0,0.0,0.0,0.0,0.0,0.0,0.0,-0.527,-0.575,-0.607,-0.5819,0.0,0.0,0.0,0.0,-0.4591,-0.2266,-0.2286,-0.2474,-0.21,-0.221,-0.2657,-0.3519,0.0,0.0,-0.3994,-0.4109,-0.4026,-0.3271,-0.3749,-0.4321,-0.4248,-0.3116,-0.2203,-0.203,-0.1811,-0.1515,-0.1459,-0.1651,-0.1761,-0.3698,0.0,0.0,0.0,0.0,-0.2411,-0.2737,-0.3287,-0.2793,-0.2677,-0.2922,-0.3747,0.0,0.0,0.0,0.0,0.0,0.0,-0.1492,-0.2395,-0.1304,-0.1782,-0.38,-0.4439,-0.4838,-0.4991,-0.4696,-0.5052,-0.5836,-0.5904,-0.6365,-0.7255,0.0,0.0,0.0,0.0,-1.3195,-1.5136,-1.5292,-1.5888,-1.7011,-1.7669,-1.8165,-1.858,-1.881,-1.8663,-1.8064,-1.8126,-1.8067,-1.7967,-1.7203,0.0,0.0,0.0,0.0,0.0,0.0,0.0,0.0,0.0,0.0,0.0,0.0,0.0,0.0,0.0,0.0,0.0,0.0,0.0,-0.6667,-0.6782,-0.6536,0.0,0.0,0.0,0.0,0.0,0.0,0.0,0.0,0.0,-0.6745,-0.589,-0.5319,0.0,0.0,-0.4043,-0.4392,-0.3666,-0.3065,-0.298,-0.3127,0.0,-0.3795,-0.343,-0.3222,-0.354,-0.4022,-0.4284,-0.395,-0.4335,-0.4604,-0.4342,-0.4405,-0.4496,-0.4501,-0.4094,-0.3639,-0.358,-0.3514,-0.345,-0.345,-0.3514,-0.3512,-0.4731,-0.4076,-0.3591,-0.3475,-0.3614,-0.3559,-0.3843,-0.4368,-0.3997,-0.3776,-0.3785,-0.4087,-0.3693,-0.2659,-0.2867,0.0,0.0,0.0,-0.2714,-0.3072,-0.1944,-0.1975,-0.3047,-0.391,-0.4543,-0.5018,-0.5018,-0.5171,-0.5556,-0.5296,-0.5871,-0.7096,0.0,0.0,-1.0911,-1.1365,-1.2691,-1.4958,-1.511,-1.5675,-1.6868,-1.7926,-1.8455,-1.8379,-1.8692,-1.854,-1.7843,-1.7784,-1.7743,-1.7604,-1.6881,-1.6036,0.0,0.0,0.0,0.0,0.0,0.0,0.0,0.0,0.0,0.0,0.0,-0.9693,0.0,0.0,0.0,0.0,-0.848,-0.7954,-0.7704,-0.7335,0.0,0.0,0.0,0.0,0.0,0.0,0.0,-0.5935,-0.6852,-0.7489,-0.7394,-0.6535,-0.5919,-0.6015,-0.4964,-0.3905,-0.3007,0.0,-0.3146,-0.4427,-0.462,-0.4553,-0.4257,-0.4102,-0.4053,-0.4344,-0.4599,-0.4764,-0.4698,-0.4882,-0.5052,-0.5058,-0.4986,-0.4849,-0.4849,-0.4714,-0.4543,-0.4322,-0.4303,-0.4303,-0.4303,-0.4303,-0.4303,-0.5393,-0.5352,-0.4482,-0.4356,-0.4644,-0.449,-0.463,-0.5042,-0.5034,-0.4828,-0.4491,-0.4844,-0.4683,-0.4312,-0.4821,0.0,-0.4991,-0.4994,-0.4428,-0.3439,-0.4543,-0.3203,-0.0156,-0.234,-0.399,-0.5018,-0.5026,-0.5031,-0.5023,-0.4595,-0.527,-0.7146,-0.736,-0.8589,-1.0842,-1.1102,-1.2336,-1.4537,-1.4865,-1.5755,-1.717,-1.8443,-1.9027,-1.8771,-1.9027,-1.893,-1.8443,-1.7917,-1.7371,-1.6847,-1.6378,-1.5739,-1.4899,0.0,0.0,0.0,0.0,0.0,0.0,0.0,0.0,0.0,0.0,0.0,0.0,0.0,0.0,0.0,-0.884,0.0,-0.9052,-0.797,0.0,0.0,0.0,-0.723,-0.7648,-0.8072,-0.8215,-0.7829,0.0,0.0,-0.7572,-0.7542,-0.7526,-0.7349,-0.6749,-0.5277,-0.2353,-0.2976,-0.4238,-0.5927,-0.627,-0.5704,-0.4443,-0.4455,-0.4989,-0.5596,-0.582,-0.5724,-0.5698,-0.5636,-0.5516,-0.5503,-0.5444,-0.529,-0.5297,-0.5069,-0.4873,-0.4447,-0.4338,-0.4336,-0.4344,-0.4349,-0.4352,-0.5591,-0.5499,-0.5247,-0.516,-0.5241,-0.5159,-0.5175,-0.5276,-0.5103,-0.5034,-0.498,-0.5029,-0.4892,-0.4814,-0.4971,-0.4985,-0.5013,-0.501,-0.4886,-0.4621,-0.4865,-0.3209,-0.0234,-0.3125,-0.4701,-0.5023,-0.5266,-0.5391,-0.5394,-0.5586,-0.6067,-0.6885,-0.7366,-0.8734,-1.1073,-1.1276,-1.2459,-1.4579,-1.4524,-1.5389,-1.7282,-1.7713,-1.7836,-1.7747,-1.8006,-1.7683,-1.6952,-1.6968,-1.6854,-1.6766,-1.6605,-1.6277,-1.5655,-1.4283,0.0,0.0,0.0,0.0,0.0,0.0,0.0,0.0,0.0,-0.9397,-0.8842,0.0,-0.9121,0.0,-0.9896,-1.0282,-1.02,-0.9835,0.0,0.0,-0.7611,-0.8118,-0.8549,-0.9127,-0.9071,-0.7892,-0.8527,-0.9062,-0.9007,-0.9002,-0.9044,-0.9197,-0.7297,-0.5627,-0.5013,-0.4316,-0.4464,-0.5926,-0.6297,-0.6169,-0.5768,-0.577,-0.5868,-0.5983,-0.5976,-0.5935,-0.5823,-0.58,-0.5731,-0.5731,-0.5591,-0.5447,-0.5234,-0.509,-0.4931,-0.4654,-0.464,-0.464,-0.464,-0.4637,-0.464,-0.5692,-0.5545,-0.5545,-0.5594,-0.5523,-0.5415,-0.5371,-0.5363,-0.5213,-0.5183,-0.5262,-0.52,-0.5173,-0.5175,-0.5175,-0.5173,-0.5173,-0.5175,-0.5173,-0.5173,-0.5184,-0.412,-0.2335,-0.444,-0.5419,-0.5505,-0.5647,-0.5761,-0.5767,-0.6001,-0.6476,-0.735,-0.8066,-0.932,-1.1156,-1.1249,-1.2128,-1.3938,-1.4471,-1.5343,-1.6585,-1.696,-1.6895,-1.6508,-1.673,-1.6426,-1.542,-1.5723,-1.5894,-1.5848,-1.5817,-1.571,-1.541,-1.3909,-1.2873,0.0,0.0,0.0,0.0,0.0,0.0,0.0,0.0,0.0,0.0,0.0,-0.9573,-0.9349,-0.9994,-1.0266,-0.9929,-0.9688,-0.8969,-0.7664,-0.8414,-0.9251,-0.9852,-1.0205,-1.0136,-0.9377,-0.9848,-1.0234,-1.0234,-1.024,-1.012,-0.9959,-0.8265,-0.6822,-0.6209,-0.5428,-0.5309,-0.6172,-0.6311,-0.6261,-0.6261,-0.6261,-0.6234,-0.6152,-0.6132,-0.6101,-0.602,-0.6006,-0.6006,-0.6006,-0.5932,-0.5861,-0.5709,-0.556,-0.5336,-0.5113,-0.5035,-0.4921,-0.4751,-0.4726,-0.4726,-0.6042,-0.5953,-0.5763,-0.5754,-0.5738,-0.5513,-0.5415,-0.5415,-0.5398,-0.5468,-0.5455,-0.5455,-0.5371,-0.5371,-0.5371,-0.5371,-0.5371,-0.5371,-0.5371,-0.5371,-0.5377,-0.5207,-0.5116,-0.571,-0.605,-0.6133,-0.6142,-0.6142,-0.6145,-0.6248,-0.68,-0.7901,-0.891,-0.9883,-1.0947,-1.1135,-1.1812,-1.312,-1.4476,-1.5339,-1.5666,-1.6184,-1.6103,-1.5449,-1.5623,-1.5335,-1.4392,-1.4784,-1.5031,-1.4961,-1.4896,-1.4848,-1.4888,-1.3514,-1.2816,0.0,-1.1427,0.0,0.0,0.0,0.0,0.0,0.0,0.0,0.0,-1.0097,-0.9805,-0.9857,-0.9863,-0.9702,-0.94,-0.9142,-0.8829,-0.8604,-0.9471,-1.0319,-1.0971,-1.1117,-1.1117,-1.1117,-1.1117,-1.1117,-1.1093,-1.1037,-1.0663,-0.9986,-0.9115,-0.7988,-0.6816,-0.6346,-0.6207,-0.6257,-0.6261,-0.6261,-0.6261,-0.6261,-0.6261,-0.6257,-0.6247,-0.6261,-0.6244,-0.6244,-0.6251,-0.6251,-0.6237,-0.6247,-0.6257,-0.6012,-0.5857,-0.5616,-0.5458,-0.524,-0.4845,-0.4795,-0.4773,-0.767,-0.7564,-0.6362,-0.5871,-0.5858,-0.5725,-0.5665,-0.5657,-0.5648,-0.5633,-0.5627,-0.5541,-0.5455,-0.5371,-0.5371,-0.5371,-0.5371,-0.5371,-0.5371,-0.5371,-0.5371,-0.5541,-0.5797,-0.5794,-0.596,-0.6386,-0.6486,-0.6537,-0.6541,-0.674,-0.7032,-0.7239,-0.8465,-0.9266,-0.9533,0.0,0.0,0.0,-1.4448,-1.5196,-1.5295,-1.5249,-1.5276,-1.5419,-1.5049,0.0,-1.5141,-1.5275,-1.5468,-1.572,-1.5342,0.0,0.0,0.0,0.0,0.0,0.0,0.0,0.0,0.0,0.0,0.0,-1.0367,-0.9926,-1.0047,-0.9778,-0.9952,-1.0922,-1.0867,-1.0962,-1.1361,-1.1354,-1.1137,-1.063,-1.0728,-1.0935,-1.1105,-1.1117,-1.1117,-1.1117,-1.1117,-1.1117,-1.1043,-1.0519,-1.0067,-0.9841,-0.9236,-0.8318,-0.7399,-0.671,-0.6331,-0.6261,-0.6261,-0.6261,-0.6261,-0.6261,-0.6261,-0.6261,-0.6261,-0.6261,-0.6261,-0.6261,-0.6261,-0.6261,-0.6261,-0.6257,-0.6018,-0.5941,-0.5864,-0.5637,-0.5562,-0.5467,-0.5032,-0.4947,-0.4947,-0.9051,0.0,-0.8225,-0.7915,0.0,-0.7836,-0.7757,-0.7499,-0.6216,-0.5697,-0.5726,-0.5637,-0.5548,-0.5551,-0.5551,-0.5634,-0.5717,-0.572,-0.5803,-0.5886,-0.5886,-0.5886,-0.5883,-0.6147,-0.6411,-0.6761,-0.6824,-0.6857,-0.6857,-0.7017,-0.7061,-0.709,-0.8187,-0.8813,-0.8883,-1.0502,-1.1775,-1.2516,-1.3649,-1.4266,-1.4472,-1.4668,-1.4736,-1.4553,-1.4388,0.0,0.0,0.0,0.0,0.0,0.0,0.0,0.0,0.0,0.0,-1.2858,-1.2009,-1.1527,-1.1652,-1.1522,-1.1576,-1.1938,-1.1426,-1.0843,-1.0219,-1.0373,-1.0694,-1.1174,-1.1147,-1.1178,-1.152,-1.1558,-1.1409,-1.1111,-1.1117,-1.1117,-1.1117,-1.1117,-1.1117,-1.1117,-1.1117,-1.1117,-1.1111,-1.0368,-0.9765,-0.9311,-0.8627,-0.7863,-0.7103,-0.6949,-0.6795,-0.6416,-0.6261,-0.6261,-0.6261,-0.6261,-0.6261,-0.6261,-0.6261,-0.6261,-0.6261,-0.6261,-0.6261,-0.6261,-0.6261,-0.6257,-0.6177,-0.6099,-0.6025,-0.5789,-0.5398,-0.5085,-0.4776,-0.4935,-0.5093,-1.037,-1.0366,-1.0143,-1.0036,-1.0032,-1.0001,-0.9898,-0.9646,0.0,0.0,0.0,-0.5822,-0.5733,-0.5819,-0.5819,-0.5908,-0.6169,-0.6169,-0.6257,-0.6428,-0.6428,-0.6245,-0.5885,-0.652,-0.6884,-0.7064,-0.7146,-0.7139,-0.7139,-0.7139,-0.7139,-0.7228,-0.8017,-0.8632,-0.9065,-1.0712,-1.1815,-1.232,-1.2915,-1.3333,-1.3644,-1.4138,-1.4153,-1.3649,-1.3635,-1.348,-1.306,-1.3237,-1.3572,-1.3814,-1.3426,-1.3068,-1.2905,-1.254,-1.228,-1.1993,-1.1694,-1.1672,-1.1873,-1.1909,-1.2087,-1.2674,-1.2506,-1.1888,-1.0701,-1.1188,-1.1504,-1.1274,-1.125,-1.1256,-1.125,-1.1208,-1.119,-1.119,-1.1141,-1.1117,-1.1117,-1.1117,-1.1117,-1.1117,-1.1117,-1.1117,-1.1037,-1.0443,-0.969,-0.9008,-0.8169,-0.7176,-0.6567,-0.6795,-0.6949,-0.6412,-0.6261,-0.6261,-0.6261,-0.6261,-0.6261,-0.6261,-0.6261,-0.6261,-0.6261,-0.6261,-0.6261,-0.6261,-0.6261,-0.6261,-0.6261,-0.6103,-0.6022,-0.5786,-0.5079,-0.4455,-0.4302,-0.4616,-0.4854,-1.1945,-1.1834,-1.0696,-1.0147,-1.0134,-1.0059,-1.026,-1.0407,-0.7135,-0.6584,-0.8032,-0.6441,-0.5908,-0.6254,-0.608,-0.6171,-0.6343,-0.6343,-0.6343,-0.6428,-0.6428,-0.6428,-0.6609,-0.6704,-0.6881,-0.7054,-0.7139,-0.7139,-0.7139,-0.7139,-0.7139,-0.7228,-0.8017,-0.9323,-1.089,-1.2009,-1.2583,-1.2675,-1.303,-1.322,-1.3293,-1.3175,-1.3245,-1.3447,-1.304,-1.2977,-1.331,-1.3397,-1.339,-1.3419,-1.3244,-1.334,-1.3825,-1.362,-1.3439,-1.3437,-1.3316,-1.3111,-1.2584,-1.2511,-1.2626,-1.2693,-1.2668,-1.2397,-1.1744,-1.1744,-1.1854,-1.1805,-1.1787,-1.1805,-1.1799,-1.16,-1.1467,-1.1455,-1.1256,-1.1117,-1.1141,-1.1148,-1.1148,-1.1154,-1.1117,-1.1135,-1.1085,-1.0402,-0.9884,-0.9559,-0.8458,-0.7192,-0.6599,-0.6416,-0.6412,-0.6338,-0.6261,-0.6261,-0.6261,-0.6261,-0.6261,-0.6261,-0.6261,-0.6261,-0.6261,-0.6261,-0.6261,-0.6261,-0.6261,-0.6261,-0.6261,-0.5712,-0.5395,-0.5237,-0.4618,-0.3919,-0.369,-0.3694,-0.3612,-1.3414,-1.3307,-1.2704,-1.247,-1.2453,-1.2218,-1.2319,-1.2396,-1.0677,-0.9862,-0.9611,-0.8516,-0.7919,-0.7826,-0.7305,-0.7132,-0.7394,-0.6874,-0.67,-0.6786,-0.6786,-0.6786,-0.6877,-0.6969,-0.6966,-0.7139,-0.7139,-0.7139,-0.7139,-0.7139,-0.7139,-0.7139,-0.8017,-0.941,-1.1235,-1.1757,-1.2186,-1.2699,-1.2881,-1.2915,-1.2915,-1.2824,-1.2842,-1.3002,-1.2769,-1.2769,-1.3002,-1.3002,-1.3002,-1.2928,-1.2922,-1.3046,-1.332,-1.3251,-1.3195,-1.3197,-1.3137,-1.3045,-1.2705,-1.2705,-1.2705,-1.2705,-1.2705,-1.2614,-1.2367,-1.2216,-1.2071,-1.1938,-1.1926,-1.1926,-1.1926,-1.1811,-1.1745,-1.1745,-1.1624,-1.1474,-1.1462,-1.1468,-1.1474,-1.1468,-1.1468,-1.1552,-1.1552,-1.0846,-1.0377,-1.0215,-0.8871,-0.7521,-0.6652,-0.6495,-0.6434,-0.6376,-0.6261,-0.6261,-0.6264,-0.6261,-0.6261,-0.6261,-0.6261,-0.6261,-0.6261,-0.6261,-0.6264,-0.6261,-0.6261,-0.6261,-0.6264,-0.6022,-0.5789,-0.5562,-0.4592,-0.3899,-0.3591,-0.2983,-0.2423,-1.4298,-1.4298,-1.4298,-1.4298,-1.428,-1.4081,-1.3996,-1.3984,-1.3746,-1.2877,-1.1631,-1.093,-1.0249,-0.9531,-0.8697,-0.8412,-0.85,-0.7683,-0.7231,-0.7404,-0.7228,-0.7139,-0.7139,-0.7139,-0.7139,-0.7139,-0.7139,-0.7139,-0.7139,-0.7139,-0.7139,-0.7228,-0.8277,-0.9584,-1.0977,-1.1413,-1.2015,-1.2619,-1.2705,-1.2705,-1.2705,-1.2705,-1.2699,-1.2705,-1.2693,-1.2705,-1.2705,-1.2705,-1.2705,-1.2705,-1.2705,-1.2705,-1.2705,-1.2705,-1.2705,-1.2705,-1.2705,-1.2705,-1.2705,-1.2705,-1.2705,-1.2705,-1.2705,-1.2699,-1.2687,-1.2518,-1.2318,-1.2137,-1.2119,-1.2119,-1.2113,-1.2047,-1.2011,-1.2011,-1.1956,-1.1896,-1.1834,-1.184,-1.1846,-1.184,-1.1846,-1.1914,-1.176,-1.118,-1.0428,-0.9852,-0.8901,-0.7761,-0.6861,-0.6698,-0.6597,-0.6444,-0.6359,-0.6376,-0.6359,-0.6369,-0.6373,-0.6359,-0.6373,-0.6386,-0.6383,-0.6369,-0.6366,-0.6383,-0.6376,-0.6386,-0.6366,-0.6208,-0.606,-0.5836,-0.4851,-0.392,-0.384,-0.306,-0.1997,-1.4298,-1.4298,-1.4298,-1.4298,-1.4298,-1.4268,-1.425,-1.425,-1.4238,-1.3992,-1.3543,-1.3269,-1.22,-1.0663,-1.0016,-0.9943,-1.0023,-0.8882,-0.8376,-0.8292,-0.7492,-0.7139,-0.7234,-0.7143,-0.7139,-0.7139,-0.7139,-0.7143,-0.7153,-0.7153,-0.7146,-0.7316,-0.8882,-0.985,-1.0284,-1.1757,-1.2625,-1.2711,-1.2705,-1.2705,-1.2705,-1.2705,-1.2705,-1.2705,-1.2705,-1.2705,-1.2705,-1.2705,-1.2705,-1.2705,-1.2705,-1.2705,-1.2705,-1.2705,-1.2705,-1.2705,-1.2705,-1.2705,-1.2705,-1.2705,-1.2705,-1.2705,-1.2705,-1.2705,-1.2705,-1.2681,-1.2662,-1.2608,-1.2614,-1.259,-1.2614,-1.2415,-1.2282,-1.227,-1.2095,-1.1932,-1.2055,-1.2018,-1.1932,-1.2111,-1.2073,-1.1932,-1.19,-1.1243,-1.007,-0.8799,-0.8661,-0.8085,-0.7,-0.6833,-0.6829,-0.6761,-0.6743,-0.6654,-0.6637,-0.6654,-0.662,-0.663,-0.6647,-0.6627,-0.661,-0.662,-0.6654,-0.6573,-0.6624,-0.6614,-0.6456,-0.6153,-0.572,-0.5773,-0.5061,-0.418,-0.418,-0.3867,-0.3275,-1.4298,-1.4298,-1.4298,-1.4298,-1.4298,-1.4298,-1.4298,-1.4298,-1.4298,-1.4238,-1.4141,-1.3998,-1.3391,-1.2312,-1.1556,-1.1328,-1.1328,-1.0248,-0.9759,-0.975,-0.92,-0.8962,-0.8957,-0.8232,-0.7929,-0.7841,-0.7404,-0.7187,-0.7278,-0.7366,-0.7953,-0.9121,-0.9935,-1.0831,-1.2004,-1.2821,-1.3188,-1.3188,-1.3181,-1.3181,-1.3145,-1.2868,-1.2705,-1.2705,-1.2705,-1.2705,-1.2705,-1.2705,-1.2705,-1.2705,-1.2705,-1.2705,-1.2705,-1.2705,-1.2705,-1.2705,-1.2705,-1.2705,-1.2705,-1.2705,-1.2705,-1.2705,-1.2705,-1.2705,-1.2705,-1.2705,-1.2705,-1.2705,-1.2705,-1.2705,-1.2693,-1.2602,-1.2548,-1.2536,-1.2445,-1.2379,-1.2474,-1.2468,-1.2391,-1.248,-1.2474,-1.2385,-1.2302,-1.204,-1.102,-0.9592,-0.9436,-0.8917,-0.7386,-0.6963,-0.6963,-0.6963,-0.6959,-0.6875,-0.6756,-0.6702,-0.6705,-0.6705,-0.6702,-0.6702,-0.6712,-0.6702,-0.6698,-0.6709,-0.6722,-0.6722,-0.6685,-0.6529,-0.6194,-0.605,-0.5526,-0.4884,-0.4342,-0.4268,-0.3834,-1.4298,-1.4298,-1.4298,-1.4298,-1.4298,-1.4298,-1.4298,-1.4298,-1.4298,-1.4298,-1.4298,-1.4298,-1.4093,-1.3662,-1.2905,-1.259,-1.2487,-1.1502,-1.1109,-1.0997,-1.0668,-1.0243,-0.9958,-0.9473,-0.8779,-0.8247,-0.7893,-0.7598,-0.753,-0.7539,-0.834,-0.963,-1.0274,-1.1293,-1.2586,-1.3144,-1.3513,-1.3507,-1.3513,-1.3513,-1.3459,-1.3133,-1.2928,-1.2934,-1.2928,-1.2922,-1.2928,-1.2856,-1.2819,-1.2813,-1.2753,-1.2705,-1.2705,-1.2705,-1.2705,-1.2705,-1.2705,-1.2705,-1.2705,-1.2705,-1.2705,-1.2705,-1.2705,-1.2705,-1.2705,-1.2705,-1.2705,-1.2705,-1.2705,-1.2705,-1.2705,-1.2705,-1.2705,-1.2705,-1.2705,-1.2705,-1.2693,-1.2705,-1.2687,-1.2705,-1.2656,-1.2613,-1.2351,-1.2157,-1.1536,-1.024,-0.9744,-0.9602,-0.7841,-0.7305,-0.7129,-0.7139,-0.7136,-0.7051,-0.6861,-0.6844,-0.682,-0.6824,-0.6844,-0.6848,-0.682,-0.6824,-0.6824,-0.6905,-0.6844,-0.6831,-0.6878,-0.6851,-0.6814,-0.6668,-0.63,-0.5776,-0.5401,-0.5169,-0.5082,-1.4298,-1.4298,-1.4298,-1.4298,-1.4298,-1.4298,-1.4298,-1.4298,-1.4298,-1.4298,-1.4298,-1.4298,-1.428,-1.422,-1.3884,-1.3794,-1.3671,-1.2623,-1.2064,-1.1973,-1.1196,-1.0177,-0.9347,-1.0168,-0.9599,-0.8273,-0.8725,-0.8571,-0.7775,-0.7701,-0.76,-0.798,-0.985,-1.075,-1.1323,-1.2825,-1.3525,-1.3574,-1.3574,-1.3538,-1.3538,-1.3507,-1.3477,-1.3477,-1.3465,-1.3441,-1.3429,-1.323,-1.3109,-1.3103,-1.2862,-1.2717,-1.2711,-1.2711,-1.2705,-1.2705,-1.2705,-1.2705,-1.2705,-1.2705,-1.2705,-1.2705,-1.2705,-1.2705,-1.2705,-1.2705,-1.2705,-1.2705,-1.2705,-1.2705,-1.2705,-1.2705,-1.2705,-1.2705,-1.2705,-1.2705,-1.2705,-1.2705,-1.2705,-1.2705,-1.2705,-1.2443,-1.1585,-1.1322,-1.0971,-0.9918,-0.8507,-0.7636,-0.8009,-0.758,-0.7139,-0.7139,-0.7139,-0.7132,-0.7115,-0.7051,-0.7068,-0.7061,-0.7027,-0.7085,-0.7112,-0.7119,-0.7105,-0.7095,-0.7061,-0.7058,-0.7102,-0.7105,-0.7078,-0.6984,-0.697,-0.6593,-0.6331,-0.6782,-0.6694,-1.4455,-1.4298,-1.4298,-1.4298,-1.4298,-1.4298,-1.4298,-1.4298,-1.4298,-1.4298,-1.4298,-1.4298,-1.4298,-1.4286,-1.4201,-1.4159,-1.4141,-1.3661,-1.3531,-1.3414,-1.2989,-1.2538,-1.2144,-1.1523,-1.0997,-1.0546,-0.9886,-0.9677,-0.9725,-0.9168,-0.961,-1.0756,-1.1517,-1.2284,-1.2953,-1.3626,-1.4014,-1.4008,-1.4014,-1.4014,-1.4002,-1.4014,-1.4014,-1.3996,-1.3682,-1.3513,-1.3513,-1.3423,-1.3369,-1.3369,-1.3121,-1.2877,-1.276,-1.2703,-1.2705,-1.2705,-1.2705,-1.2705,-1.2705,-1.2705,-1.2705,-1.2705,-1.2705,-1.2705,-1.2705,-1.2705,-1.2705,-1.2705,-1.2705,-1.2705,-1.2705,-1.2705,-1.2705,-1.2705,-1.2705,-1.2705,-1.2705,-1.2705,-1.2705,-1.2705,-1.2699,-1.2528,-1.2186,-1.1666,-1.0977,-1.0101,-0.9611,-0.892,-0.7845,-0.7228,-0.7139,-0.7139,-0.7139,-0.7139,-0.7139,-0.7136,-0.7136,-0.7136,-0.7129,-0.7122,-0.7136,-0.7139,-0.7119,-0.7115,-0.7136,-0.7139,-0.7129,-0.7129,-0.7139,-0.7139,-0.7139,-0.7139,-0.7139,-0.7139,-0.7139,-1.4606,-1.4437,-1.4334,-1.4298,-1.4298,-1.4298,-1.4298,-1.4298,-1.4298,-1.4298,-1.4298,-1.4298,-1.4298,-1.4298,-1.4298,-1.4298,-1.4298,-1.4298,-1.4298,-1.4286,-1.4111,-1.3838,-1.342,-1.2681,-1.2138,-1.1687,-1.0824,-1.0522,-1.0953,-1.0422,-1.0877,-1.2139,-1.2533,-1.3022,-1.3709,-1.4106,-1.4298,-1.4298,-1.4298,-1.4292,-1.4298,-1.4298,-1.4298,-1.425,-1.3948,-1.3767,-1.3767,-1.3682,-1.364,-1.3604,-1.3387,-1.3117,-1.2827,-1.2754,-1.2703,-1.2717,-1.2705,-1.2705,-1.2705,-1.2705,-1.2705,-1.2705,-1.2705,-1.2705,-1.2705,-1.2705,-1.2705,-1.2705,-1.2705,-1.2705,-1.2705,-1.2705,-1.2705,-1.2705,-1.2705,-1.2705,-1.2705,-1.2705,-1.2705,-1.2705,-1.2705,-1.2699,-1.2613,-1.2095,-1.1402,-1.0448,-1.0512,-0.9634,-0.8025,-0.7228,-0.7139,-0.7139,-0.7139,-0.7139,-0.7139,-0.7139,-0.7139,-0.7139,-0.7139,-0.7139,-0.7139,-0.7139,-0.7139,-0.7139,-0.7139,-0.7139,-0.7139,-0.7139,-0.7139,-0.7139,-0.7139,-0.7139,-0.7139,-0.7139,-0.7139,-1.4727,-1.4678,-1.4425,-1.4328,-1.4334,-1.4304,-1.4298,-1.4298,-1.4298,-1.4298,-1.4298,-1.4298,-1.4298,-1.4298,-1.4298,-1.4298,-1.4298,-1.4298,-1.4298,-1.4292,-1.428,-1.3776,-1.2989,-1.364,-1.3137,-1.1691,-1.1244,-1.1249,-1.1439,-1.1258,-1.1365,-1.156,-1.2436,-1.2926,-1.2823,-1.3811,-1.4298,-1.4298,-1.4298,-1.4298,-1.4298,-1.4298,-1.4298,-1.4298,-1.4256,-1.4232,-1.425,-1.4032,-1.3912,-1.3882,-1.3658,-1.3399,-1.3105,-1.2933,-1.2721,-1.2783,-1.2723,-1.2717,-1.2705,-1.2705,-1.2705,-1.2705,-1.2705,-1.2705,-1.2705,-1.2705,-1.2705,-1.2705,-1.2705,-1.2705,-1.2705,-1.2705,-1.2705,-1.2705,-1.2705,-1.2705,-1.2705,-1.2705,-1.2705,-1.2705,-1.2705,-1.2705,-1.2705,-1.2443,-1.1923,-1.1235,-1.0458,-0.968,-0.8456,-0.7753,-0.7228,-0.7139,-0.7139,-0.7139,-0.7139,-0.7139,-0.7139,-0.7139,-0.7139,-0.7139,-0.7139,-0.7139,-0.7139,-0.7139,-0.7139,-0.7139,-0.7139,-0.7139,-0.7139,-0.7139,-0.7139,-0.7139,-0.7139,-0.7139,-0.7139,-1.4986,-1.4956,-1.4696,-1.4588,-1.4558,-1.4383,-1.4298,-1.4298,-1.4298,-1.4298,-1.4298,-1.4298,-1.4298,-1.4298,-1.4298,-1.4298,-1.4298,-1.4298,-1.4298,-1.4298,-1.4298,-1.41,-1.3908,-1.4106,-1.3998,-1.3318,-1.2538,-1.263,-1.3028,-1.2538,-1.2538,-1.3318,-1.3613,-1.3806,-1.3806,-1.4106,-1.4298,-1.4298,-1.4298,-1.4298,-1.4298,-1.4298,-1.4298,-1.4298,-1.4298,-1.4298,-1.4292,-1.4214,-1.4177,-1.4165,-1.3924,-1.3664,-1.3447,-1.3291,-1.3165,-1.3031,-1.2994,-1.2892,-1.2729,-1.2705,-1.2711,-1.2705,-1.2705,-1.2705,-1.2705,-1.2705,-1.2705,-1.2705,-1.2705,-1.2705,-1.2705,-1.2705,-1.2705,-1.2705,-1.2705,-1.2705,-1.2705,-1.2705,-1.2705,-1.2705,-1.2705,-1.2705,-1.2534,-1.2272,-1.1757,-1.1327,-1.0534,-0.9666,-0.8715,-0.8364,-0.7753,-0.7316,-0.7228,-0.7228,-0.7316,-0.7228,-0.7139,-0.7139,-0.7139,-0.7139,-0.7139,-0.7139,-0.7139,-0.7139,-0.7139,-0.7139,-0.7139,-0.7139,-0.7139,-0.7139,-0.7139,-0.7139,-0.7139,-0.7139,-0.7139,-1.5258,-1.5221,-1.4974,-1.4859,-1.4835,-1.457,-1.4346,-1.4328,-1.4334,-1.4298,-1.4298,-1.4298,-1.4298,-1.4298,-1.4298,-1.4298,-1.4298,-1.4298,-1.4298,-1.4298,-1.4298,-1.4298,-1.4298,-1.4298,-1.4298,-1.4202,-1.3607,-1.3613,-1.4196,-1.3709,-1.3613,-1.4202,-1.4298,-1.4298,-1.4298,-1.4298,-1.4298,-1.4298,-1.4298,-1.4298,-1.4298,-1.4298,-1.4298,-1.4298,-1.4298,-1.4298,-1.4298,-1.4298,-1.4298,-1.4274,-1.4135,-1.393,-1.3694,-1.375,-1.3641,-1.3332,-1.3248,-1.3151,-1.2904,-1.2874,-1.2807,-1.2735,-1.2705,-1.2705,-1.2705,-1.2705,-1.2705,-1.2705,-1.2705,-1.2705,-1.2705,-1.2705,-1.2705,-1.2705,-1.2705,-1.2705,-1.2705,-1.2705,-1.2705,-1.2705,-1.2705,-1.2705,-1.2534,-1.2272,-1.1671,-1.1327,-1.0799,-1.0096,-0.9323,-0.9061,-0.8536,-0.8101,-0.8013,-0.7925,-0.7665,-0.7404,-0.7139,-0.7139,-0.7139,-0.7139,-0.7139,-0.7139,-0.7139,-0.7139,-0.7139,-0.7139,-0.7139,-0.7139,-0.7139,-0.7139,-0.7139,-0.7139,-0.7139,-0.7139,-0.7139,-1.5517,-1.5487,-1.5234,-1.5131,-1.5095,-1.4847,-1.4604,-1.4341,-1.4346,-1.4328,-1.431,-1.4298,-1.4298,-1.4298,-1.4298,-1.4298,-1.4298,-1.4298,-1.4298,-1.4298,-1.4298,-1.4298,-1.4298,-1.4298,-1.4298,-1.4298,-1.4202,-1.4298,-1.4298,-1.4202,-1.4298,-1.4298,-1.4298,-1.4298,-1.4298,-1.4298,-1.4298,-1.4298,-1.4298,-1.4298,-1.4298,-1.4298,-1.4298,-1.4298,-1.4298,-1.4298,-1.4298,-1.4298,-1.4298,-1.4298,-1.4274,-1.4153,-1.3984,-1.4135,-1.4013,-1.3562,-1.3538,-1.3393,-1.3212,-1.3139,-1.3037,-1.2801,-1.2685,-1.2711,-1.2717,-1.2705,-1.2705,-1.2705,-1.2705,-1.2705,-1.2705,-1.2705,-1.2705,-1.2705,-1.2705,-1.2705,-1.2705,-1.2705,-1.2705,-1.2705,-1.2705,-1.2705,-1.2705,-1.2613,-1.2186,-1.1757,-1.1408,-1.0966,-1.0269,-0.9927,-0.9923,-0.9492,-0.8886,-0.8803,-0.8627,-0.7929,-0.7665,-0.7577,-0.7404,-0.7139,-0.7139,-0.7139,-0.7139,-0.7139,-0.7139,-0.7139,-0.7139,-0.7139,-0.7139,-0.7139,-0.7139,-0.7139,-0.7139,-0.7139,-0.7139,-1.5789,-1.5759,-1.5505,-1.539,-1.5354,-1.5113,-1.489,-1.4616,-1.4329,-1.4273,-1.434,-1.4298,-1.4298,-1.4298,-1.4298,-1.4298,-1.4298,-1.4298,-1.4298,-1.4298,-1.4298,-1.4298,-1.4298,-1.4298,-1.4298,-1.4298,-1.4298,-1.4298,-1.4298,-1.4298,-1.4298,-1.4298,-1.4298,-1.4298,-1.4298,-1.4298,-1.4298,-1.4298,-1.4298,-1.4298,-1.4298,-1.4298,-1.4298,-1.4298,-1.4298,-1.4298,-1.4298,-1.4298,-1.4298,-1.4298,-1.4298,-1.4274,-1.4189,-1.4272,-1.4163,-1.3857,-1.3791,-1.3688,-1.3477,-1.3417,-1.329,-1.3055,-1.2802,-1.2724,-1.2717,-1.2705,-1.2705,-1.2705,-1.2705,-1.2705,-1.2705,-1.2705,-1.2705,-1.2705,-1.2705,-1.2705,-1.2705,-1.2705,-1.2705,-1.2705,-1.2705,-1.2705,-1.2705,-1.2699,-1.2613,-1.2357,-1.2186,-1.1929,-1.1058,-1.0799,-1.0717,-1.0284,-0.985,-0.9854,-0.9506,-0.8715,-0.8189,-0.8101,-0.7665,-0.7139,-0.7139,-0.7139,-0.7139,-0.7139,-0.7139,-0.7139,-0.7139,-0.7139,-0.7139,-0.7139,-0.7139,-0.7139,-0.7139,-0.7139,-0.7139,-1.5885,-1.5879,-1.5728,-1.5662,-1.5632,-1.5384,-1.5191,-1.5123,-1.4576,-1.4416,-1.4473,-1.4346,-1.4298,-1.4298,-1.4298,-1.4298,-1.4298,-1.4298,-1.4298,-1.4298,-1.4298,-1.4298,-1.4298,-1.4298,-1.4298,-1.4298,-1.4298,-1.4298,-1.4298,-1.4298,-1.4298,-1.4298,-1.4298,-1.4298,-1.4298,-1.4298,-1.4298,-1.4298,-1.4298,-1.4298,-1.4298,-1.4298,-1.4298,-1.4298,-1.4298,-1.4298,-1.4298,-1.4298,-1.4298,-1.4298,-1.4298,-1.4298,-1.4298,-1.4298,-1.4226,-1.4069,-1.4069,-1.3954,-1.3743,-1.3682,-1.3556,-1.332,-1.3016,-1.2867,-1.2805,-1.2789,-1.2705,-1.2705,-1.2705,-1.2705,-1.2705,-1.2705,-1.2705,-1.2705,-1.2705,-1.2705,-1.2705,-1.2705,-1.2705,-1.2705,-1.2705,-1.2705,-1.2705,-1.2705,-1.2705,-1.2699,-1.2613,-1.21,-1.1499,-1.1505,-1.1246,-1.0636,-1.0125,-0.9956,-0.9331,-0.8452,-0.7925,-0.7837,-0.7753,-0.7139,-0.7139,-0.7139,-0.7139,-0.7139,-0.7139,-0.7139,-0.7139,-0.7139,-0.7139,-0.7139,-0.7139,-0.7139,-0.7139,-0.7139,-0.7139,-1.5885,-1.5885,-1.5885,-1.5885,-1.5843,-1.5644,-1.5615,-1.5621,-1.4921,-1.46,-1.4714,-1.4461,-1.4383,-1.434,-1.4328,-1.4298,-1.4298,-1.4298,-1.4298,-1.4298,-1.4298,-1.4298,-1.4298,-1.4298,-1.4298,-1.4298,-1.4298,-1.4298,-1.4298,-1.4298,-1.4298,-1.4298,-1.4298,-1.4298,-1.4298,-1.4298,-1.4298,-1.4298,-1.4298,-1.4298,-1.4298,-1.4298,-1.4298,-1.4298,-1.4298,-1.4298,-1.4298,-1.4298,-1.4298,-1.4298,-1.4298,-1.4298,-1.4298,-1.4298,-1.4292,-1.4274,-1.4244,-1.4159,-1.3996,-1.3942,-1.3833,-1.358,-1.3357,-1.3157,-1.3085,-1.2904,-1.2771,-1.2705,-1.2705,-1.2705,-1.2705,-1.2705,-1.2705,-1.2705,-1.2705,-1.2705,-1.2705,-1.2705,-1.2705,-1.2705,-1.2705,-1.2705,-1.2705,-1.2705,-1.2705,-1.2705,-1.2699,-1.2357,-1.174,-1.1381,-1.1042,-1.0539,-1.012,-0.98,-0.899,-0.8013,-0.7665,-0.7312,-0.7401,-0.7139,-0.7139,-0.7139,-0.7139,-0.7139,-0.7139,-0.7139,-0.7139,-0.7139,-0.7139,-0.7139,-0.7139,-0.7139,-0.7139,-0.7139,-0.7139,-1.5885,-1.5885,-1.5885,-1.5885,-1.5879,-1.5825,-1.5692,-1.5609,-1.5609,-1.5299,-1.4998,-1.4529,-1.4421,-1.4606,-1.4413,-1.4298,-1.4304,-1.4298,-1.4298,-1.4298,-1.4298,-1.4298,-1.4298,-1.4298,-1.4298,-1.4298,-1.4298,-1.4298,-1.4298,-1.4298,-1.4298,-1.4298,-1.4298,-1.4298,-1.4298,-1.4298,-1.4298,-1.4298,-1.4298,-1.4298,-1.4298,-1.4298,-1.4298,-1.4298,-1.4298,-1.4298,-1.4298,-1.4298,-1.4298,-1.4298,-1.4298,-1.4298,-1.4298,-1.4298,-1.4298,-1.4298,-1.4298,-1.4268,-1.422,-1.4177,-1.4099,-1.3851,-1.3719,-1.3562,-1.3151,-1.3091,-1.2928,-1.2777,-1.2705,-1.2729,-1.2705,-1.2705,-1.2705,-1.2705,-1.2705,-1.2705,-1.2705,-1.2705,-1.2705,-1.2705,-1.2705,-1.2705,-1.2705,-1.2705,-1.2705,-1.2705,-1.2613,-1.2613,-1.2072,-1.1445,-1.094,-1.0534,-0.9191,-0.8777,-0.9078,-0.8101,-0.7489,-0.7228,-0.7139,-0.7139,-0.7139,-0.7139,-0.7139,-0.7139,-0.7139,-0.7139,-0.7139,-0.7139,-0.7139,-0.7139,-0.7139,-0.7139,-0.7139,-0.7139,-0.7139,-1.5885,-1.5885,-1.5885,-1.5885,-1.5885,-1.5885,-1.5813,-1.568,-1.578,-1.5658,-1.5372,-1.5123,-1.4953,-1.4714,-1.4564,-1.4443,-1.4322,-1.4298,-1.4298,-1.4298,-1.4298,-1.4298,-1.4298,-1.4298,-1.4298,-1.4298,-1.4298,-1.4298,-1.4298,-1.4298,-1.4298,-1.4298,-1.4298,-1.4298,-1.4298,-1.4298,-1.4298,-1.4298,-1.4298,-1.4298,-1.4298,-1.4298,-1.4298,-1.4298,-1.4298,-1.4298,-1.4298,-1.4298,-1.4298,-1.4298,-1.4298,-1.4298,-1.4298,-1.4298,-1.4298,-1.4298,-1.4298,-1.4298,-1.4298,-1.4292,-1.4232,-1.4099,-1.3984,-1.3779,-1.3519,-1.3393,-1.3181,-1.2982,-1.2892,-1.2862,-1.2723,-1.2705,-1.2705,-1.2705,-1.2705,-1.2705,-1.2705,-1.2705,-1.2705,-1.2705,-1.2705,-1.2705,-1.2705,-1.2705,-1.2705,-1.2705,-1.2705,-1.2619,-1.2118,-1.1488,-1.1047,-1.026,-0.8372,-0.7767,-0.8607,-0.8273,-0.7489,-0.7228,-0.7139,-0.7139,-0.7139,-0.7139,-0.7139,-0.7139,-0.7139,-0.7139,-0.7139,-0.7139,-0.7139,-0.7139,-0.7139,-0.7139,-0.7139,-0.7139,-0.7139,-1.5885,-1.5885,-1.5885,-1.5885,-1.5885,-1.5885,-1.5885,-1.5849,-1.5884,-1.5811,-1.5621,-1.585,-1.5405,-1.4977,-1.4733,-1.4558,-1.4364,-1.4298,-1.4298,-1.4298,-1.4298,-1.4298,-1.4298,-1.4298,-1.4298,-1.4298,-1.4298,-1.4298,-1.4298,-1.4298,-1.4298,-1.4298,-1.4298,-1.4298,-1.4298,-1.4298,-1.4298,-1.4298,-1.4298,-1.4298,-1.4298,-1.4298,-1.4298,-1.4298,-1.4298,-1.4298,-1.4298,-1.4298,-1.4298,-1.4298,-1.4298,-1.4298,-1.4298,-1.4298,-1.4298,-1.4298,-1.4298,-1.4298,-1.4298,-1.4298,-1.4286,-1.428,-1.4111,-1.3948,-1.3839,-1.3664,-1.3417,-1.3188,-1.3031,-1.2904,-1.2735,-1.2705,-1.2705,-1.2705,-1.2705,-1.2705,-1.2705,-1.2705,-1.2705,-1.2705,-1.2705,-1.2705,-1.2705,-1.2705,-1.2705,-1.2705,-1.2705,-1.254,-1.2123,-1.178,-1.1419,-1.1257,-0.9803,-0.8214,-0.8698,-0.8189,-0.7401,-0.7228,-0.7139,-0.7139,-0.7139,-0.7139,-0.7139,-0.7139,-0.7139,-0.7139,-0.7139,-0.7139,-0.7139,-0.7139,-0.7139,-0.7139,-0.7139,-0.7139,-0.7146,-1.5885,-1.5885,-1.5885,-1.5885,-1.5885,-1.5885,-1.5885,-1.5885,-1.5937,-1.5825,-1.5895,-1.5891,-1.5749,-1.5366,-1.4877,-1.4582,-1.4401,-1.4322,-1.4298,-1.4298,-1.4298,-1.4298,-1.4298,-1.4298,-1.4298,-1.4298,-1.4298,-1.4298,-1.4298,-1.4298,-1.4298,-1.4298,-1.4298,-1.4298,-1.4298,-1.4298,-1.4298,-1.4298,-1.4298,-1.4298,-1.4298,-1.4298,-1.4298,-1.4298,-1.4298,-1.4298,-1.4298,-1.4298,-1.4298,-1.4298,-1.4298,-1.4298,-1.4298,-1.4298,-1.4298,-1.4298,-1.4298,-1.4298,-1.4298,-1.4298,-1.4298,-1.4286,-1.4232,-1.4099,-1.3966,-1.3851,-1.3622,-1.3236,-1.2964,-1.2777,-1.2717,-1.2705,-1.2705,-1.2705,-1.2705,-1.2705,-1.2705,-1.2705,-1.2705,-1.2705,-1.2705,-1.2705,-1.2705,-1.2705,-1.2705,-1.2705,-1.2705,-1.2705,-1.2454,-1.2283,-1.2106,-1.1957,-1.1807,-1.012,-0.8982,-0.8017,-0.7228,-0.7228,-0.7139,-0.7139,-0.7139,-0.7139,-0.7139,-0.7139,-0.7139,-0.7139,-0.7139,-0.7139,-0.7139,-0.7139,-0.7139,-0.7139,-0.7149,-0.716,-0.718,-1.5885,-1.5885,-1.5885,-1.5885,-1.5885,-1.5885,-1.5885,-1.5885,-1.5885,-1.5885,-1.5855,-1.587,-1.5737,-1.5463,-1.527,-1.4908,-1.457,-1.4346,-1.431,-1.4298,-1.4298,-1.4298,-1.4298,-1.4298,-1.4298,-1.4298,-1.4298,-1.4298,-1.4298,-1.4298,-1.4298,-1.4298,-1.4298,-1.4298,-1.4298,-1.4298,-1.4298,-1.4298,-1.4298,-1.4298,-1.4298,-1.4298,-1.4298,-1.4298,-1.4298,-1.4298,-1.4298,-1.4298,-1.4298,-1.4298,-1.4298,-1.4298,-1.4298,-1.4298,-1.4298,-1.4298,-1.4298,-1.4298,-1.4298,-1.4298,-1.4298,-1.4298,-1.4298,-1.425,-1.4147,-1.4063,-1.3845,-1.3423,-1.3085,-1.2856,-1.2723,-1.2711,-1.2705,-1.2705,-1.2705,-1.2705,-1.2705,-1.2705,-1.2705,-1.2705,-1.2705,-1.2705,-1.2705,-1.2705,-1.2705,-1.2705,-1.2705,-1.2705,-1.2705,-1.2619,-1.2448,-1.2289,-1.2055,-1.0651,-0.9244,-0.8281,-0.7316,-0.7139,-0.7139,-0.7139,-0.7139,-0.7139,-0.7139,-0.7139,-0.7139,-0.7139,-0.7139,-0.7139,-0.7139,-0.7139,-0.7139,-0.7146,-0.7166,-0.7183,-0.7221,-1.5885,-1.5885,-1.5885,-1.5885,-1.5885,-1.5885,-1.5885,-1.5885,-1.5885,-1.5885,-1.5885,-1.5873,-1.5765,-1.5608,-1.5457,-1.5203,-1.4727,-1.4467,-1.4383,-1.4298,-1.4298,-1.4298,-1.4298,-1.4298,-1.4298,-1.4298,-1.4298,-1.4298,-1.4298,-1.4298,-1.4298,-1.4298,-1.4298,-1.4298,-1.4298,-1.4298,-1.4298,-1.4298,-1.4298,-1.4298,-1.4298,-1.4298,-1.4298,-1.4298,-1.4298,-1.4298,-1.4298,-1.4298,-1.4298,-1.4298,-1.4298,-1.4298,-1.4298,-1.4298,-1.4298,-1.4298,-1.4298,-1.4298,-1.4298,-1.4298,-1.4298,-1.4298,-1.4298,-1.4292,-1.425,-1.4153,-1.4002,-1.364,-1.3183,-1.2943,-1.2856,-1.2741,-1.2711,-1.2705,-1.2705,-1.2705,-1.2705,-1.2705,-1.2705,-1.2705,-1.2705,-1.2705,-1.2705,-1.2705,-1.2705,-1.2705,-1.2705,-1.2705,-1.2705,-1.2705,-1.2534,-1.2357,-1.1849,-1.0631,-0.9584,-0.8807,-0.7841,-0.7139,-0.7139,-0.7139,-0.7139,-0.7139,-0.7139,-0.7139,-0.7139,-0.7139,-0.7139,-0.7139,-0.7139,-0.7139,-0.7139,-0.7173,-0.7231,-0.7285,-0.7329,-1.5885,-1.5885,-1.5885,-1.5885,-1.5885,-1.5885,-1.5885,-1.5885,-1.5885,-1.5885,-1.5885,-1.5885,-1.5867,-1.5783,-1.5578,-1.5203,-1.4841,-1.4654,-1.4491,-1.4328,-1.4298,-1.4298,-1.4298,-1.4298,-1.4298,-1.4298,-1.4298,-1.4298,-1.4298,-1.4298,-1.4298,-1.4298,-1.4298,-1.4298,-1.4298,-1.4298,-1.4298,-1.4298,-1.4298,-1.4298,-1.4298,-1.4298,-1.4298,-1.4298,-1.4298,-1.4298,-1.4298,-1.4298,-1.4298,-1.4298,-1.4298,-1.4298,-1.4298,-1.4298,-1.4298,-1.4298,-1.4298,-1.4298,-1.4298,-1.4298,-1.4298,-1.4298,-1.4298,-1.4298,-1.4262,-1.4129,-1.3984,-1.3888,-1.3254,-1.2945,-1.2925,-1.285,-1.2747,-1.2705,-1.2705,-1.2705,-1.2705,-1.2705,-1.2705,-1.2705,-1.2705,-1.2705,-1.2705,-1.2705,-1.2705,-1.2705,-1.2705,-1.2705,-1.2705,-1.2705,-1.2705,-1.2528,-1.2272,-1.1144,-1.0188,-0.9323,-0.8368,-0.7492,-0.7139,-0.7139,-0.7139,-0.7139,-0.7139,-0.7139,-0.7139,-0.7139,-0.7139,-0.7139,-0.7139,-0.7156,-0.7173,-0.7244,-0.7333,-0.7387,-0.7465,-1.5885,-1.5885,-1.5885,-1.5885,-1.5885,-1.5885,-1.5885,-1.5885,-1.5885,-1.5885,-1.5885,-1.5885,-1.5885,-1.5831,-1.5614,-1.5294,-1.4962,-1.4793,-1.4564,-1.4346,-1.4298,-1.4298,-1.4298,-1.4298,-1.4298,-1.4298,-1.4298,-1.4298,-1.4298,-1.4298,-1.4298,-1.4298,-1.4298,-1.4298,-1.4298,-1.4298,-1.4298,-1.4298,-1.4298,-1.4298,-1.4298,-1.4298,-1.4298,-1.4298,-1.4298,-1.4298,-1.4298,-1.4298,-1.4298,-1.4298,-1.4298,-1.4298,-1.4298,-1.4298,-1.4298,-1.4298,-1.4298,-1.4298,-1.4298,-1.4298,-1.4298,-1.4298,-1.4298,-1.4298,-1.4268,-1.4195,-1.4032,-1.3906,-1.3614,-1.3357,-1.3111,-1.3019,-1.2868,-1.2777,-1.2747,-1.2711,-1.2711,-1.2705,-1.2705,-1.2705,-1.2705,-1.2705,-1.2705,-1.2705,-1.2705,-1.2705,-1.2705,-1.2705,-1.2705,-1.2705,-1.2705,-1.2705,-1.2357,-1.1837,-1.088,-1.0014,-0.9065,-0.8101,-0.7228,-0.7228,-0.7139,-0.7139,-0.7139,-0.7139,-0.7139,-0.7139,-0.7139,-0.7139,-0.7139,-0.7173,-0.7214,-0.7302,-0.7404,-0.7597,-0.7685,-1.5885,-1.5885,-1.5885,-1.5885,-1.5885,-1.5885,-1.5885,-1.5885,-1.5885,-1.5885,-1.5885,-1.5885,-1.5885,-1.5855,-1.568,-1.5427,-1.5089,-1.4902,-1.4612,-1.4407,-1.4298,-1.4298,-1.4298,-1.4298,-1.4298,-1.4298,-1.4298,-1.4298,-1.4298,-1.4298,-1.4298,-1.4298,-1.4298,-1.4298,-1.4298,-1.4298,-1.4298,-1.4298,-1.4298,-1.4298,-1.4298,-1.4298,-1.4298,-1.4298,-1.4298,-1.4298,-1.4298,-1.4298,-1.4298,-1.4298,-1.4298,-1.4298,-1.4298,-1.4298,-1.4298,-1.4298,-1.4298,-1.4298,-1.4298,-1.4298,-1.4298,-1.4298,-1.4298,-1.4298,-1.4298,-1.4292,-1.4256,-1.4045,-1.39,-1.3573,-1.3423,-1.3284,-1.2997,-1.2859,-1.2751,-1.2777,-1.2729,-1.2735,-1.2723,-1.2705,-1.2705,-1.2705,-1.2705,-1.2705,-1.2705,-1.2705,-1.2705,-1.2705,-1.2705,-1.2705,-1.2705,-1.2705,-1.2528,-1.2095,-1.1316,-1.0448,-0.9584,-0.8715,-0.7753,-0.7228,-0.7139,-0.7139,-0.7139,-0.7139,-0.7139,-0.7139,-0.7139,-0.7139,-0.7143,-0.7177,-0.7231,-0.735,-0.7489,-0.7702,-0.7855,-1.5885,-1.5885,-1.5885,-1.5885,-1.5885,-1.5885,-1.5885,-1.5885,-1.5885,-1.5885,-1.5885,-1.5885,-1.5885,-1.5873,-1.5813,-1.5559,-1.5107,-1.5089,-1.4739,-1.4437,-1.4298,-1.4298,-1.4298,-1.4298,-1.4298,-1.4298,-1.4298,-1.4298,-1.4298,-1.4298,-1.4298,-1.4298,-1.4298,-1.4298,-1.4298,-1.4298,-1.4298,-1.4298,-1.4298,-1.4298,-1.4298,-1.4298,-1.4298,-1.4298,-1.4298,-1.4298,-1.4298,-1.4298,-1.4298,-1.4298,-1.4298,-1.4298,-1.4298,-1.4298,-1.4298,-1.4298,-1.4298,-1.4298,-1.4298,-1.4298,-1.4298,-1.4298,-1.4298,-1.4298,-1.4298,-1.4298,-1.4268,-1.422,-1.4069,-1.3918,-1.3755,-1.3628,-1.3279,-1.3093,-1.2973,-1.3012,-1.2928,-1.2795,-1.2777,-1.2723,-1.2705,-1.2705,-1.2705,-1.2705,-1.2705,-1.2705,-1.2705,-1.2705,-1.2705,-1.2705,-1.2705,-1.2705,-1.2705,-1.2272,-1.1494,-1.0626,-0.9666,-0.8798,-0.7925,-0.7401,-0.7139,-0.7139,-0.7139,-0.7139,-0.7139,-0.7139,-0.7139,-0.7139,-0.7149,-0.7177,-0.7265,-0.7441,-0.7621,-0.7824,-0.7936,-1.5885,-1.5885,-1.5885,-1.5885,-1.5885,-1.5885,-1.5885,-1.5885,-1.5885,-1.5885,-1.5885,-1.5885,-1.5885,-1.5885,-1.5861,-1.5608,-1.5161,-1.5113,-1.4757,-1.4455,-1.4298,-1.4298,-1.4298,-1.4298,-1.4298,-1.4298,-1.4298,-1.4298,-1.4298,-1.4298,-1.4298,-1.4298,-1.4298,-1.4298,-1.4298,-1.4298,-1.4298,-1.4298,-1.4298,-1.4298,-1.4298,-1.4298,-1.4298,-1.4298,-1.4298,-1.4298,-1.4298,-1.4298,-1.4298,-1.4298,-1.4298,-1.4298,-1.4298,-1.4298,-1.4298,-1.4298,-1.4298,-1.4298,-1.4298,-1.4298,-1.4298,-1.4298,-1.4298,-1.4298,-1.4298,-1.4298,-1.4298,-1.4256,-1.4201,-1.4081,-1.3888,-1.3803,-1.3664,-1.3363,-1.3237,-1.3278,-1.3163,-1.3019,-1.2871,-1.2877,-1.2813,-1.2705,-1.2705,-1.2705,-1.2705,-1.2705,-1.2705,-1.2705,-1.2705,-1.2705,-1.2705,-1.2705,-1.2705,-1.2705,-1.2009,-1.0966,-0.984,-0.8969,-0.8101,-0.7489,-0.7139,-0.7139,-0.7139,-0.7139,-0.7139,-0.7139,-0.7139,-0.7139,-0.7177,-0.7244,-0.7407,-0.7604,-0.7784,-0.795,-0.7997,-1.5885,-1.5885,-1.5885,-1.5885,-1.5885,-1.5885,-1.5885,-1.5885,-1.5885,-1.5885,-1.5885,-1.5885,-1.5885,-1.5885,-1.5873,-1.5596,-1.5221,-1.5071,-1.4751,-1.4485,-1.4298,-1.4298,-1.4298,-1.4298,-1.4298,-1.4298,-1.4298,-1.4298,-1.4298,-1.4298,-1.4298,-1.4298,-1.4298,-1.4298,-1.4298,-1.4298,-1.4298,-1.4298,-1.4298,-1.4298,-1.4298,-1.4298,-1.4298,-1.4298,-1.4298,-1.4298,-1.4298,-1.4298,-1.4298,-1.4298,-1.4298,-1.4298,-1.4298,-1.4298,-1.4298,-1.4298,-1.4298,-1.4298,-1.4298,-1.4298,-1.4298,-1.4298,-1.4298,-1.4298,-1.4298,-1.4298,-1.4298,-1.4298,-1.428,-1.4214,-1.4014,-1.4014,-1.3906,-1.3609,-1.3543,-1.3574,-1.3333,-1.3195,-1.3165,-1.3141,-1.2991,-1.297,-1.2813,-1.2813,-1.2747,-1.2735,-1.2705,-1.2705,-1.2705,-1.2705,-1.2705,-1.2705,-1.2705,-1.2705,-1.2613,-1.1139,-0.9749,-0.9314,-0.8448,-0.7489,-0.7139,-0.7139,-0.7139,-0.7139,-0.7139,-0.7139,-0.7163,-0.7193,-0.7265,-0.7343,-0.7536,-0.7743,-0.7865,-0.8004,-0.8014,-1.5885,-1.5885,-1.5885,-1.5885,-1.5885,-1.5885,-1.5885,-1.5885,-1.5885,-1.5885,-1.5885,-1.5885,-1.5885,-1.5885,-1.5885,-1.5584,-1.5203,-1.5095,-1.4817,-1.4413,-1.4298,-1.4298,-1.4298,-1.4298,-1.4298,-1.4298,-1.4298,-1.4298,-1.4298,-1.4298,-1.4298,-1.4298,-1.4298,-1.4298,-1.4298,-1.4298,-1.4298,-1.4298,-1.4298,-1.4298,-1.4298,-1.4298,-1.4298,-1.4298,-1.4298,-1.4298,-1.4298,-1.4298,-1.4298,-1.4298,-1.4298,-1.4298,-1.4298,-1.4298,-1.4298,-1.4298,-1.4298,-1.4298,-1.4298,-1.4298,-1.4298,-1.4298,-1.4298,-1.4298,-1.4298,-1.4298,-1.4298,-1.4298,-1.4298,-1.4298,-1.4268,-1.425,-1.4081,-1.399,-1.3924,-1.3863,-1.362,-1.3465,-1.3429,-1.3477,-1.3459,-1.3387,-1.3133,-1.2946,-1.2837,-1.2777,-1.2723,-1.2705,-1.2711,-1.2705,-1.2705,-1.2705,-1.2705,-1.2705,-1.2437,-1.0961,-0.9831,-0.9401,-0.8707,-0.7577,-0.7139,-0.7139,-0.7139,-0.7139,-0.7139,-0.7139,-0.72,-0.7261,-0.7377,-0.7506,-0.7678,-0.7858,-0.7974,-0.8038,-0.8038,-1.5885,-1.5885,-1.5885,-1.5885,-1.5885,-1.5885,-1.5885,-1.5885,-1.5885,-1.5885,-1.5885,-1.5885,-1.5885,-1.5885,-1.5831,-1.5596,-1.5185,-1.5089,-1.4817,-1.4352,-1.4298,-1.4298,-1.4298,-1.4298,-1.4298,-1.4298,-1.4298,-1.4298,-1.4298,-1.4298,-1.4298,-1.4298,-1.4298,-1.4298,-1.4298,-1.4298,-1.4298,-1.4298,-1.4298,-1.4298,-1.4298,-1.4298,-1.4298,-1.4298,-1.4298,-1.4298,-1.4298,-1.4298,-1.4298,-1.4298,-1.4298,-1.4298,-1.4298,-1.4298,-1.4298,-1.4298,-1.4298,-1.4298,-1.4298,-1.4298,-1.4298,-1.4298,-1.4298,-1.4298,-1.4298,-1.4298,-1.4298,-1.4298,-1.4298,-1.4298,-1.4292,-1.4292,-1.4201,-1.4201,-1.4165,-1.4153,-1.4045,-1.387,-1.3767,-1.3805,-1.3866,-1.3574,-1.3381,-1.3224,-1.3103,-1.3006,-1.2964,-1.2795,-1.2753,-1.2717,-1.2705,-1.2705,-1.2705,-1.2705,-1.218,-1.0788,-0.9836,-0.9401,-0.8536,-0.7401,-0.7139,-0.7139,-0.7139,-0.7139,-0.7139,-0.7146,-0.7255,-0.7377,-0.7539,-0.7689,-0.7831,-0.7923,-0.7997,-0.8038,-0.8038,-1.5885,-1.5885,-1.5885,-1.5885,-1.5885,-1.5885,-1.5885,-1.5885,-1.5885,-1.5885,-1.5885,-1.5885,-1.5885,-1.5867,-1.5759,-1.5559,-1.5119,-1.4986,-1.4781,-1.4334,-1.4298,-1.4298,-1.4298,-1.4298,-1.4298,-1.4298,-1.4298,-1.4298,-1.4298,-1.4298,-1.4298,-1.4298,-1.4298,-1.4298,-1.4298,-1.4298,-1.4298,-1.4298,-1.4298,-1.4298,-1.4298,-1.4298,-1.4298,-1.4298,-1.4298,-1.4298,-1.4298,-1.4298,-1.4298,-1.4298,-1.4298,-1.4298,-1.4298,-1.4298,-1.4298,-1.4298,-1.4298,-1.4298,-1.4298,-1.4298,-1.4298,-1.4298,-1.4298,-1.4298,-1.4298,-1.4298,-1.4298,-1.4298,-1.4298,-1.4298,-1.4298,-1.4298,-1.4298,-1.4292,-1.4286,-1.4274,-1.4238,-1.4051,-1.4014,-1.4048,-1.4105,-1.3884,-1.3646,-1.3525,-1.3405,-1.3314,-1.3224,-1.3037,-1.2769,-1.2807,-1.2783,-1.2777,-1.2655,-1.2552,-1.1935,-1.0788,-1.0009,-0.9492,-0.836,-0.7228,-0.7139,-0.7139,-0.7139,-0.7143,-0.7146,-0.7193,-0.7346,-0.7492,-0.7668,-0.7811,-0.7936,-0.8001,-0.8035,-0.8038,-0.8038,-1.5885,-1.5885,-1.5885,-1.5885,-1.5885,-1.5885,-1.5885,-1.5885,-1.5885,-1.5885,-1.5885,-1.5885,-1.5885,-1.5837,-1.5632,-1.5372,-1.5101,-1.4865,-1.4582,-1.4377,-1.4304,-1.4298,-1.4298,-1.4298,-1.4298,-1.4298,-1.4298,-1.4298,-1.4298,-1.4298,-1.4298,-1.4298,-1.4298,-1.4298,-1.4298,-1.4298,-1.4298,-1.4298,-1.4298,-1.4298,-1.4298,-1.4298,-1.4298,-1.4298,-1.4298,-1.4298,-1.4298,-1.4298,-1.4298,-1.4298,-1.4298,-1.4298,-1.4298,-1.4298,-1.4298,-1.4298,-1.4298,-1.4298,-1.4298,-1.4298,-1.4298,-1.4298,-1.4298,-1.4298,-1.4298,-1.4298,-1.4298,-1.4298,-1.4298,-1.4298,-1.4298,-1.4298,-1.4298,-1.4298,-1.4298,-1.4292,-1.4298,-1.425,-1.4244,-1.4226,-1.422,-1.4111,-1.3936,-1.3803,-1.3713,-1.3664,-1.3568,-1.3327,-1.3135,-1.2988,-1.2958,-1.2922,-1.2695,-1.2336,-1.1618,-1.0845,-1.0009,-0.9579,-0.8185,-0.7139,-0.7139,-0.7139,-0.7139,-0.7143,-0.7068,-0.7244,-0.7428,-0.7621,-0.7814,-0.794,-0.8011,-0.8024,-0.8038,-0.8038,-0.8038,-1.5885,-1.5885,-1.5885,-1.5885,-1.5885,-1.5885,-1.5885,-1.5885,-1.5885,-1.5885,-1.5885,-1.5885,-1.5879,-1.5861,-1.562,-1.5348,-1.5089,-1.4829,-1.457,-1.4395,-1.4298,-1.4298,-1.4298,-1.4298,-1.4298,-1.4298,-1.4298,-1.4298,-1.4298,-1.4298,-1.4298,-1.4298,-1.4298,-1.4298,-1.4298,-1.4298,-1.4298,-1.4298,-1.4298,-1.4298,-1.4298,-1.4298,-1.4298,-1.4298,-1.4298,-1.4298,-1.4298,-1.4298,-1.4298,-1.4298,-1.4298,-1.4298,-1.4298,-1.4298,-1.4298,-1.4298,-1.4298,-1.4298,-1.4298,-1.4298,-1.4298,-1.4298,-1.4298,-1.4298,-1.4298,-1.4298,-1.4298,-1.4298,-1.4298,-1.4298,-1.4298,-1.4298,-1.4298,-1.4298,-1.4298,-1.4298,-1.4298,-1.4298,-1.4298,-1.4298,-1.4298,-1.4268,-1.4111,-1.4099,-1.402,-1.3996,-1.3824,-1.3674,-1.3483,-1.3326,-1.3163,-1.3127,-1.2991,-1.2651,-1.193,-1.121,-1.0333,-0.9488,-0.8101,-0.7143,-0.7139,-0.7139,-0.7139,-0.718,-0.7244,-0.7377,-0.7543,-0.7729,-0.7906,-0.797,-0.8031,-0.8035,-0.8038,-0.8038,-0.8038,-1.5885,-1.5885,-1.5885,-1.5885,-1.5885,-1.5885,-1.5885,-1.5885,-1.5885,-1.5885,-1.5885,-1.5885,-1.5831,-1.5686,-1.5445,-1.5185,-1.4926,-1.4654,-1.4431,-1.4358,-1.4298,-1.4298,-1.4298,-1.4298,-1.4298,-1.4298,-1.4298,-1.4298,-1.4298,-1.4298,-1.4298,-1.4298,-1.4298,-1.4298,-1.4298,-1.4298,-1.4298,-1.4298,-1.4298,-1.4298,-1.4298,-1.4298,-1.4298,-1.4298,-1.4298,-1.4298,-1.4298,-1.4298,-1.4298,-1.4298,-1.4298,-1.4298,-1.4298,-1.4298,-1.4298,-1.4298,-1.4298,-1.4298,-1.4298,-1.4298,-1.4298,-1.4298,-1.4298,-1.4298,-1.4298,-1.4298,-1.4298,-1.4298,-1.4298,-1.4298,-1.4298,-1.4298,-1.4298,-1.4298,-1.4298,-1.4298,-1.4298,-1.4298,-1.4298,-1.4298,-1.4298,-1.4298,-1.4286,-1.4298,-1.4286,-1.4208,-1.4147,-1.4081,-1.3863,-1.3701,-1.3453,-1.3369,-1.3231,-1.2998,-1.2265,-1.1451,-1.0391,-0.9341,-0.8032,-0.7245,-0.7149,-0.7163,-0.7183,-0.7268,-0.7373,-0.7512,-0.7658,-0.7807,-0.796,-0.8011,-0.8038,-0.8038,-0.8038,-0.8038,-0.8038,-1.5819,-1.5807,-1.5831,-1.5807,-1.5855,-1.5843,-1.5855,-1.5879,-1.5855,-1.5867,-1.5879,-1.5885,-1.5759,-1.5547,-1.5282,-1.5016,-1.4763,-1.4503,-1.437,-1.4298,-1.4298,-1.4298,-1.4298,-1.4298,-1.4298,-1.4298,-1.4298,-1.4298,-1.4298,-1.4298,-1.4298,-1.4298,-1.4298,-1.4298,-1.4298,-1.4298,-1.4298,-1.4298,-1.4298,-1.4298,-1.4298,-1.4298,-1.4298,-1.4298,-1.4298,-1.4298,-1.4298,-1.4298,-1.4298,-1.4298,-1.4298,-1.4298,-1.4298,-1.4298,-1.4298,-1.4298,-1.4298,-1.4298,-1.4298,-1.4298,-1.4298,-1.4298,-1.4298,-1.4298,-1.4298,-1.4298,-1.4298,-1.4298,-1.4298,-1.4298,-1.4298,-1.4298,-1.4298,-1.4298,-1.4298,-1.4298,-1.4298,-1.4298,-1.4298,-1.4298,-1.4298,-1.4298,-1.4298,-1.4298,-1.4298,-1.4292,-1.428,-1.425,-1.4135,-1.3969,-1.3859,-1.3646,-1.3489,-1.3265,-1.2638,-1.1621,-1.041,-0.9139,-0.7979,-0.7434,-0.7309,-0.7282,-0.7234,-0.7339,-0.7458,-0.7617,-0.7767,-0.7899,-0.7984,-0.8018,-0.8038,-0.8038,-0.8038,-0.8038,-0.8038,-1.5294,-1.53,-1.5294,-1.5403,-1.5578,-1.5596,-1.571,-1.5867,-1.5903,-1.5927,-1.5855,-1.5855,-1.571,-1.5415,-1.5179,-1.4932,-1.4672,-1.4431,-1.4322,-1.4298,-1.4298,-1.4298,-1.4298,-1.4298,-1.4298,-1.4298,-1.4298,-1.4298,-1.4298,-1.4298,-1.4298,-1.4298,-1.4298,-1.4298,-1.4298,-1.4298,-1.4298,-1.4298,-1.4298,-1.4298,-1.4298,-1.4298,-1.4298,-1.4298,-1.4298,-1.4298,-1.4298,-1.4298,-1.4298,-1.4298,-1.4298,-1.4298,-1.4298,-1.4298,-1.4298,-1.4298,-1.4298,-1.4298,-1.4298,-1.4298,-1.4298,-1.4298,-1.4298,-1.4298,-1.4298,-1.4298,-1.4298,-1.4298,-1.4298,-1.4298,-1.4298,-1.4298,-1.4298,-1.4298,-1.4298,-1.4298,-1.4298,-1.4298,-1.4298,-1.4298,-1.4298,-1.4298,-1.4298,-1.4298,-1.4298,-1.4298,-1.4298,-1.4286,-1.428,-1.4224,-1.4194,-1.399,-1.387,-1.3525,-1.2806,-1.1852,-1.0518,-0.9456,-0.8383,-0.7923,-0.7468,-0.7438,-0.7404,-0.7448,-0.7546,-0.7706,-0.7838,-0.7936,-0.8007,-0.8031,-0.8038,-0.8038,-0.8038,-0.8038,-0.8038,-1.5113,-1.5113,-1.5113,-1.5185,-1.5306,-1.5324,-1.5409,-1.5609,-1.5737,-1.5749,-1.5535,-1.5523,-1.5403,-1.5179,-1.4986,-1.4799,-1.4558,-1.4383,-1.4316,-1.4298,-1.4298,-1.4298,-1.4298,-1.4298,-1.4298,-1.4298,-1.4298,-1.4298,-1.4298,-1.4298,-1.4298,-1.4298,-1.4298,-1.4298,-1.4298,-1.4298,-1.4298,-1.4298,-1.4298,-1.4298,-1.4298,-1.4298,-1.4298,-1.4298,-1.4298,-1.4298,-1.4298,-1.4298,-1.4298,-1.4298,-1.4298,-1.4298,-1.4298,-1.4298,-1.4298,-1.4298,-1.4298,-1.4298,-1.4298,-1.4298,-1.4298,-1.4298,-1.4298,-1.4298,-1.4298,-1.4298,-1.4298,-1.4298,-1.4298,-1.4298,-1.4298,-1.4298,-1.4298,-1.4298,-1.4298,-1.4298,-1.4298,-1.4298,-1.4298,-1.4298,-1.4298,-1.4298,-1.4298,-1.4298,-1.4298,-1.4298,-1.4298,-1.4298,-1.4298,-1.4298,-1.4298,-1.4274,-1.4111,-1.359,-1.2897,-1.1806,-1.0613,-0.9639,-0.8781,-0.8056,-0.7553,-0.7573,-0.7584,-0.7614,-0.7675,-0.779,-0.7916,-0.7991,-0.8018,-0.8035,-0.8038,-0.8038,-0.8038,-0.8038,-0.8038,-1.4986,-1.4998,-1.4998,-1.5022,-1.5059,-1.5059,-1.5089,-1.5119,-1.5524,-1.5506,-1.5065,-1.5028,-1.4865,-1.4781,-1.4702,-1.4515,-1.4377,-1.4328,-1.4304,-1.4298,-1.4298,-1.4298,-1.4298,-1.4298,-1.4298,-1.4298,-1.4298,-1.4298,-1.4298,-1.4298,-1.4298,-1.4298,-1.4298,-1.4298,-1.4298,-1.4298,-1.4298,-1.4298,-1.4298,-1.4298,-1.4298,-1.4298,-1.4298,-1.4298,-1.4298,-1.4298,-1.4298,-1.4298,-1.4298,-1.4298,-1.4298,-1.4298,-1.4298,-1.4298,-1.4298,-1.4298,-1.4298,-1.4298,-1.4298,-1.4298,-1.4298,-1.4298,-1.4298,-1.4298,-1.4298,-1.4298,-1.4298,-1.4298,-1.4298,-1.4298,-1.4298,-1.4298,-1.4298,-1.4298,-1.4298,-1.4298,-1.4298,-1.4298,-1.4298,-1.4298,-1.4298,-1.4298,-1.4298,-1.4298,-1.4298,-1.4298,-1.4298,-1.4298,-1.4298,-1.4298,-1.4298,-1.4298,-1.4232,-1.3646,-1.3086,-1.1814,-1.0687,-0.9927,-0.9132,-0.8266,-0.7651,-0.7719,-0.7756,-0.776,-0.7834,-0.7909,-0.7957,-0.8018,-0.8035,-0.8038,-0.8038,-0.8038,-0.8038,-0.8038,-0.8038,-1.4449,-1.4449,-1.4455,-1.4582,-1.4769,-1.4793,-1.4801,-1.4933,-1.5095,-1.491,-1.4634,-1.4466,-1.4509,-1.4708,-1.4714,-1.4564,-1.4334,-1.4298,-1.4298,-1.4298,-1.4298,-1.4298,-1.4298,-1.4298,-1.4298,-1.4298,-1.4298,-1.4298,-1.4298,-1.4298,-1.4298,-1.4298,-1.4298,-1.4298,-1.4298,-1.4298,-1.4298,-1.4298,-1.4298,-1.4298,-1.4298,-1.4298,-1.4298,-1.4298,-1.4298,-1.4298,-1.4298,-1.4298,-1.4298,-1.4298,-1.4298,-1.4298,-1.4298,-1.4298,-1.4298,-1.4298,-1.4298,-1.4298,-1.4298,-1.4298,-1.4298,-1.4298,-1.4298,-1.4298,-1.4298,-1.4298,-1.4298,-1.4298,-1.4298,-1.4298,-1.4298,-1.4298,-1.4298,-1.4298,-1.4298,-1.4298,-1.4298,-1.4298,-1.4298,-1.4298,-1.4298,-1.4298,-1.4298,-1.4298,-1.4298,-1.4298,-1.4298,-1.4298,-1.4298,-1.4298,-1.4298,-1.4298,-1.4298,-1.4298,-1.3992,-1.2134,-1.0863,-1.0197,-0.9401,-0.8333,-0.7834,-0.7913,-0.794,-0.7892,-0.7923,-0.7994,-0.8035,-0.8038,-0.8038,-0.8038,-0.8038,-0.8038,-0.8038,-0.8038,-0.8038]},{"header":{"parameterUnit":"m.s-1","parameterCategory":1,"la1":31.0,"la2":29.5877,"lo1":-88.7671,"lo2":-86.6584,"dy":0.0162,"dx":0.0185,"nx":115,"ny":88,"refTime":"2023-05-13T06:00:00:Z","depth":0,"parameterNumber":3,"parameterNumberName":"V-component_of_WINDS"},"data":[0.0,0.0,0.0,0.0,0.0,0.0,0.0,0.0,0.0,0.0,0.0,0.0,0.0,0.0,0.0,0.0,0.0,0.0,0.0,0.0,0.0,0.0,0.0,0.0,0.0,0.0,0.0,0.0,0.0,0.0,0.0,0.0,0.0,0.0,0.0,0.0,0.0,0.0,0.0,0.0,0.0,0.0,0.0,0.0,0.0,0.0,0.0,0.0,0.0,0.0,0.0,0.0,0.0,0.0,0.0,0.0,0.0,0.0,0.0,0.0,0.0,0.0,0.0,0.0,0.0,0.0,0.0,0.0,0.0,0.0,0.0,0.0,0.0,0.0,0.0,0.0,0.0,0.0,0.0,0.0,0.0,0.0,0.0,0.0,0.0,0.0,0.0,0.0,0.0,0.0,0.0,0.0,0.0,0.0,0.0,0.0,0.0,0.0,0.0,0.0,0.0,0.0,0.0,0.0,0.0,0.0,0.0,0.0,0.0,0.0,0.0,0.0,0.0,0.0,0.0,0.0,0.0,0.0,0.0,0.0,0.0,0.0,0.0,0.0,0.0,0.0,0.0,0.0,0.0,0.0,0.0,0.0,0.0,0.0,0.0,0.0,0.0,0.0,0.0,0.0,0.0,0.0,0.0,0.0,0.0,0.0,0.0,0.0,0.0,0.0,0.0,0.0,0.0,0.0,0.0,0.0,0.0,0.0,0.0,0.0,0.0,0.0,0.0,0.0,0.0,0.0,0.0,0.0,0.0,0.0,0.0,0.0,0.0,0.0,0.0,0.0,0.0,0.0,0.0,0.0,0.0,0.0,0.0,0.0,0.0,0.0,0.0,0.0,0.0,0.0,0.0,0.0,0.0,0.0,0.0,0.0,0.0,0.0,0.0,0.0,0.0,0.0,0.0,0.0,0.0,0.0,0.0,0.0,0.0,0.0,0.0,0.0,0.0,0.0,0.0,0.0,0.0,0.0,0.0,0.0,0.0,0.0,0.0,0.0,0.0,0.0,0.0,0.0,0.0,0.0,0.0,0.0,0.0,0.0,0.0,0.0,0.0,0.0,0.0,0.0,0.0,0.0,0.0,0.0,0.0,0.0,0.0,0.0,0.0,0.0,0.0,0.0,0.0,0.0,0.0,0.0,0.0,0.0,0.0,0.0,0.0,0.0,0.0,0.0,0.0,0.0,0.0,0.0,0.0,0.0,0.0,0.0,0.0,0.0,0.0,0.0,0.0,0.0,0.0,0.0,0.0,0.0,0.0,0.0,0.0,0.0,0.0,0.0,0.0,0.0,0.0,0.0,0.0,0.0,0.0,0.0,0.0,0.0,0.0,0.0,0.0,0.0,0.0,0.0,0.0,0.0,0.0,0.0,0.0,0.0,0.0,0.0,0.0,0.0,0.0,0.0,0.0,0.0,0.0,0.0,0.0,0.0,0.0,0.0,0.0,0.0,0.0,0.0,0.0,0.0,0.0,0.0,0.0,0.0,0.0,0.0,0.0,0.0,0.0,0.0,0.0,0.0,0.0,0.0,0.0,0.0,0.0,0.0,0.0,0.0,0.0,0.0,0.0,0.0,0.0,0.0,0.0,0.0,0.0,0.0,0.0,0.0,0.0,0.0,0.0,0.0,0.0,0.0,0.0,0.0,0.0,0.0,0.0,0.0,0.0,0.0,0.0,0.0,0.0,0.0,0.0,0.0,0.0,0.0,0.0,0.0,0.0,0.0,0.0,0.0,0.0,0.0,0.0,0.0,0.0,0.0,0.0,0.0,0.0,0.0,0.0,0.0,0.0,0.0,0.0,0.0,0.0,0.0,0.0,0.0,0.0,0.0,0.0,0.0,0.0,0.0,0.0,0.0,0.0,0.0,0.0,0.0,0.0,0.0,0.0,0.0,0.0,0.0,0.0,0.0,0.0,0.0,0.0,0.0,0.0,0.0,0.0,0.0,0.0,0.0,0.0,0.0,0.0,0.0,0.0,0.0,0.0,0.0,0.0,0.0,0.0,0.0,0.0,0.0,0.0,0.0,0.0,0.0,0.0,0.0,0.0,0.0,0.0,0.0,0.0,0.0,0.0,0.0,0.0,0.0,0.0,0.0,0.0,0.0,0.0,0.0,0.0,0.0,0.0,0.0,0.0,0.0,0.0,0.0,0.0,0.0,0.0,0.0,0.0,0.0,0.0,0.0,0.0,0.0,0.0,0.0,0.0,0.0,0.0,0.0,0.0,0.0,0.0,0.0,0.0,0.0,0.0,0.0,0.0,0.0,0.0,0.0,0.0,0.0,0.0,0.0,0.0,0.0,0.0,0.0,0.0,0.0,0.0,0.0,0.0,0.0,0.0,0.0,0.0,0.0,0.0,0.0,0.0,0.0,0.0,0.0,0.0,0.0,0.0,0.0,0.0,0.0,0.0,0.0,0.0,0.0,0.0,0.0,0.0,0.0,0.0,0.0,0.0,0.0,0.0,0.0,0.0,0.0,0.0,0.0,0.0,0.0,0.0,0.0,0.0,0.0,0.0,0.0,0.0,0.0,0.0,0.0,0.0,0.0,0.0,0.0,0.0,0.0,0.0,0.0,0.0,0.0,0.0,0.0,0.0,0.0,0.0,0.0,0.0,0.0,0.0,0.0,0.0,0.0,0.0,0.0,0.0,0.0,0.0,0.0,0.0,0.0,0.0,0.0,0.0,0.0,0.0,0.0,0.0,0.0,0.0,0.0,0.0,0.0,0.0,0.0,0.0,0.0,0.0,0.0,0.0,0.0,0.0,0.0,0.0,0.0,0.0,0.0,0.0,0.0,0.0,0.0,0.0,0.0,0.0,0.0,0.0,0.0,0.0,0.0,0.0,0.0,0.0,0.0,0.0,0.0,0.0,0.0,0.0,0.0,0.0,0.0,0.0,0.0,0.0,0.0,0.0,0.0,0.0,0.0,0.0,0.0,0.0,0.0,0.0,0.0,0.0,0.0,0.0,0.0,0.0,0.0,0.0,0.0,0.0,0.0,0.0,0.0,0.0,0.0,0.0,0.0,0.0,0.0,0.0,0.0,0.0,0.0,0.0,0.0,0.0,0.0,0.0,0.0,0.0,0.0,0.0,0.0,0.0,0.0,0.0,0.0,0.0,0.0,0.0,0.0,0.0,0.0,0.0,0.0,0.0,0.0,0.0,0.0,0.0,0.0,0.0,0.0,0.0,0.0,0.0,0.0,0.0,0.0,0.0,0.0,0.0,0.0,0.0,0.0,0.0,0.0,0.0,0.0,0.0,0.0,0.0,0.0,0.0,0.0,0.0,0.0,0.0,0.0,0.0,0.0,0.0,0.0,0.0,0.0,0.0,0.0,0.0,0.0,0.0,0.0,0.0,0.0,0.0,0.0,0.0,0.0,0.0,0.0,0.0,0.0,0.0,0.0,0.0,0.0,0.0,0.0,0.0,0.0,0.0,0.0,0.0,0.0,0.0,0.0,0.0,0.0,0.0,0.0,0.0,0.0,0.0,0.0,0.0,0.0,0.0,0.0,0.0,0.0,0.0,0.0,0.0,0.0,0.0,0.0,0.0,0.0,0.0,0.0,0.0,0.0,0.0,0.0,0.0,0.0,0.0,0.0,0.0,0.0,0.0,0.0,0.0,0.0,0.0,0.0,0.0,0.0,0.0,0.0,0.0,0.0,0.0,0.0,0.0,0.0,0.0,0.0,0.0,0.0,0.0,0.0,0.0,0.0,0.0,0.0,0.0,0.0,0.0,0.0,0.0,0.0,0.0,0.0,0.0,0.0,0.0,0.0,0.0,0.0,0.0,0.0,0.0,0.0,0.0,0.0,0.0,0.0,0.0,0.0,0.0,0.0,0.0,0.0,0.0,0.0,0.0,0.0,0.0,0.0,0.0,0.0,0.0,0.0,0.0,0.0,0.0,0.0,0.0,0.0,0.0,0.0,0.0,0.0,0.0,0.0,0.0,0.0,0.0,0.0,0.0,0.0,0.0,0.0,0.0,0.0,0.0,0.0,0.0,0.0,0.0,0.0,0.0,0.0,0.0,0.0,0.0,0.0,0.0,0.0,0.0,0.0,0.0,0.0,0.0,0.0,0.0,0.0,0.0,0.0,0.0,0.0,0.0,0.0,0.0,0.0,0.0,0.0,0.0,0.0,0.0,0.0,0.0,0.0,0.0,0.0,0.0,0.0,0.0,0.0,0.0,0.0,0.0,0.0,0.0,0.0,0.0,0.0,0.0,0.0,0.0,0.0,0.0,0.0,0.0,0.0,0.0,0.0,0.0,0.0,0.0,0.0,-1.4023,0.0,0.0,0.0,0.0,0.0,0.0,0.0,0.0,0.0,0.0,0.0,0.0,0.0,0.0,0.0,0.0,0.0,0.0,0.0,0.0,0.0,0.0,0.0,0.0,0.0,0.0,0.0,0.0,0.0,0.0,0.0,0.0,0.0,0.0,0.0,0.0,0.0,0.0,0.0,0.0,0.0,0.0,0.0,0.0,0.0,0.0,0.0,0.0,0.0,0.0,0.0,0.0,0.0,0.0,0.0,0.0,0.0,0.0,0.0,0.0,0.0,0.0,0.0,0.0,0.0,0.0,0.0,0.0,0.0,0.0,0.0,0.0,0.0,0.0,0.0,0.0,0.0,0.0,0.0,0.0,0.0,0.0,0.0,0.0,0.0,0.0,0.0,0.0,0.0,0.0,0.0,0.0,0.0,0.0,0.0,0.0,0.0,0.0,0.0,0.0,0.0,0.0,0.0,0.0,0.0,0.0,0.0,0.0,0.0,0.0,-1.4181,-1.469,-1.3722,-1.3365,-1.3749,0.0,0.0,0.0,0.0,0.0,0.0,0.0,0.0,0.0,0.0,0.0,0.0,0.0,0.0,0.0,0.0,0.0,0.0,0.0,0.0,0.0,0.0,0.0,0.0,0.0,0.0,0.0,0.0,0.0,0.0,0.0,0.0,0.0,0.0,0.0,0.0,0.0,0.0,0.0,0.0,0.0,0.0,0.0,0.0,0.0,0.0,0.0,0.0,0.0,0.0,0.0,0.0,0.0,0.0,0.0,0.0,0.0,0.0,0.0,0.0,0.0,0.0,0.0,0.0,0.0,0.0,0.0,0.0,0.0,0.0,0.0,0.0,0.0,0.0,0.0,0.0,0.0,0.0,0.0,0.0,0.0,0.0,0.0,0.0,0.0,0.0,0.0,0.0,0.0,0.0,0.0,0.0,0.0,0.0,0.0,0.0,0.0,0.0,0.0,0.0,0.0,0.0,0.0,0.0,0.0,0.0,0.0,0.0,0.0,0.0,0.0,0.0,-1.3689,-1.3276,-1.3722,0.0,0.0,0.0,0.0,0.0,0.0,0.0,0.0,0.0,0.0,0.0,0.0,0.0,0.0,0.0,0.0,0.0,0.0,0.0,0.0,0.0,0.0,0.0,0.0,0.0,0.0,0.0,0.0,0.0,0.0,0.0,0.0,0.0,0.0,0.0,0.0,0.0,0.0,0.0,0.0,0.0,0.0,0.0,0.0,0.0,0.0,0.0,0.0,0.0,0.0,0.0,0.0,0.0,0.0,0.0,0.0,0.0,0.0,0.0,0.0,0.0,0.0,0.0,0.0,0.0,0.0,0.0,0.0,0.0,0.0,0.0,0.0,0.0,0.0,0.0,0.0,0.0,0.0,0.0,0.0,0.0,0.0,0.0,0.0,0.0,0.0,0.0,0.0,0.0,0.0,0.0,0.0,0.0,0.0,0.0,0.0,0.0,0.0,0.0,0.0,0.0,0.0,0.0,0.0,0.0,0.0,0.0,0.0,0.0,0.0,-1.4752,-1.447,-1.4019,0.0,-1.4192,0.0,0.0,0.0,0.0,0.0,0.0,0.0,0.0,0.0,0.0,0.0,0.0,0.0,0.0,0.0,0.0,0.0,0.0,0.0,0.0,0.0,0.0,0.0,0.0,0.0,0.0,0.0,0.0,0.0,0.0,0.0,0.0,0.0,0.0,0.0,0.0,0.0,0.0,0.0,0.0,0.0,0.0,0.0,0.0,0.0,0.0,0.0,0.0,0.0,0.0,0.0,0.0,0.0,0.0,0.0,0.0,0.0,0.0,0.0,0.0,0.0,0.0,0.0,0.0,0.0,0.0,0.0,0.0,0.0,0.0,0.0,0.0,0.0,0.0,0.0,0.0,0.0,0.0,0.0,0.0,0.0,0.0,0.0,0.0,0.0,0.0,0.0,0.0,0.0,0.0,0.0,0.0,0.0,0.0,0.0,0.0,0.0,0.0,0.0,0.0,0.0,0.0,0.0,0.0,0.0,0.0,0.0,0.0,0.0,0.0,-1.4117,-1.3986,-1.3615,-1.3729,0.0,0.0,0.0,0.0,0.0,0.0,0.0,0.0,0.0,0.0,0.0,0.0,0.0,0.0,0.0,0.0,0.0,0.0,0.0,0.0,0.0,0.0,0.0,0.0,0.0,0.0,0.0,0.0,0.0,0.0,0.0,0.0,0.0,0.0,0.0,0.0,0.0,0.0,0.0,0.0,0.0,0.0,0.0,0.0,0.0,0.0,0.0,0.0,0.0,0.0,0.0,0.0,0.0,0.0,0.0,0.0,0.0,0.0,0.0,0.0,0.0,0.0,0.0,0.0,0.0,0.0,0.0,0.0,0.0,0.0,0.0,0.0,0.0,0.0,0.0,0.0,0.0,0.0,0.0,0.0,0.0,0.0,0.0,0.0,0.0,0.0,0.0,0.0,0.0,0.0,0.0,0.0,0.0,0.0,0.0,0.0,0.0,0.0,0.0,0.0,0.0,0.0,0.0,0.0,0.0,0.0,0.0,0.0,0.0,0.0,-1.4,-1.3669,-1.3615,-1.3288,-1.3454,-1.4128,0.0,0.0,0.0,0.0,0.0,0.0,0.0,0.0,0.0,0.0,0.0,0.0,0.0,0.0,0.0,0.0,0.0,0.0,0.0,0.0,0.0,0.0,0.0,0.0,0.0,0.0,0.0,0.0,0.0,0.0,0.0,0.0,0.0,0.0,0.0,0.0,0.0,0.0,0.0,0.0,0.0,0.0,0.0,0.0,0.0,0.0,0.0,0.0,0.0,0.0,0.0,0.0,0.0,0.0,0.0,0.0,0.0,0.0,0.0,0.0,0.0,0.0,0.0,0.0,0.0,0.0,0.0,0.0,0.0,0.0,0.0,0.0,0.0,0.0,0.0,0.0,0.0,0.0,0.0,0.0,0.0,0.0,0.0,0.0,0.0,0.0,0.0,0.0,0.0,0.0,0.0,0.0,0.0,0.0,0.0,0.0,0.0,0.0,0.0,0.0,0.0,0.0,0.0,0.0,0.0,0.0,0.0,0.0,-1.4107,-1.3965,-1.3749,-1.3425,-1.3254,-1.3232,0.0,0.0,0.0,0.0,0.0,0.0,0.0,0.0,0.0,0.0,0.0,0.0,0.0,0.0,0.0,0.0,0.0,0.0,0.0,0.0,0.0,0.0,0.0,0.0,0.0,0.0,0.0,0.0,0.0,0.0,0.0,0.0,0.0,0.0,0.0,0.0,0.0,0.0,0.0,0.0,0.0,0.0,0.0,0.0,0.0,0.0,0.0,0.0,0.0,0.0,0.0,0.0,0.0,0.0,0.0,0.0,0.0,0.0,0.0,0.0,0.0,0.0,0.0,0.0,0.0,0.0,0.0,0.0,0.0,0.0,0.0,0.0,0.0,0.0,0.0,0.0,0.0,0.0,0.0,0.0,0.0,0.0,0.0,0.0,0.0,0.0,0.0,0.0,0.0,0.0,0.0,0.0,0.0,0.0,0.0,0.0,0.0,0.0,0.0,0.0,0.0,0.0,0.0,0.0,0.0,0.0,0.0,0.0,0.0,-1.3578,-1.3154,-1.2965,-1.3012,-1.2943,-1.299,0.0,0.0,0.0,0.0,0.0,0.0,0.0,0.0,0.0,0.0,0.0,0.0,0.0,0.0,0.0,0.0,0.0,0.0,0.0,0.0,0.0,0.0,0.0,0.0,0.0,0.0,0.0,0.0,0.0,0.0,0.0,0.0,0.0,0.0,0.0,0.0,0.0,0.0,0.0,0.0,0.0,0.0,0.0,0.0,0.0,0.0,0.0,0.0,0.0,0.0,0.0,0.0,0.0,0.0,0.0,0.0,0.0,0.0,0.0,0.0,0.0,0.0,0.0,0.0,0.0,0.0,0.0,0.0,0.0,0.0,0.0,0.0,0.0,0.0,0.0,0.0,0.0,0.0,0.0,0.0,0.0,0.0,0.0,0.0,0.0,0.0,0.0,0.0,0.0,0.0,0.0,0.0,0.0,0.0,0.0,0.0,0.0,0.0,0.0,0.0,0.0,0.0,0.0,0.0,0.0,0.0,0.0,0.0,0.0,-1.3851,0.0,-1.3131,-1.3154,-1.307,-1.3056,0.0,0.0,0.0,0.0,0.0,0.0,0.0,0.0,0.0,0.0,0.0,0.0,0.0,0.0,0.0,0.0,0.0,0.0,0.0,0.0,0.0,0.0,0.0,0.0,0.0,0.0,0.0,0.0,0.0,0.0,0.0,0.0,0.0,0.0,0.0,0.0,0.0,0.0,0.0,0.0,0.0,0.0,0.0,0.0,0.0,0.0,0.0,0.0,0.0,0.0,0.0,0.0,0.0,0.0,0.0,0.0,0.0,0.0,0.0,0.0,0.0,0.0,0.0,0.0,0.0,0.0,0.0,0.0,0.0,0.0,0.0,0.0,0.0,0.0,0.0,0.0,0.0,0.0,0.0,0.0,0.0,0.0,0.0,0.0,0.0,0.0,0.0,0.0,0.0,0.0,0.0,0.0,0.0,0.0,0.0,0.0,0.0,0.0,0.0,0.0,0.0,0.0,0.0,0.0,0.0,0.0,0.0,0.0,-1.5114,-1.4968,-1.4582,-1.422,-1.3914,-1.3754,-1.346,0.0,0.0,0.0,0.0,0.0,0.0,0.0,0.0,0.0,0.0,0.0,0.0,0.0,0.0,0.0,0.0,0.0,0.0,0.0,0.0,0.0,0.0,0.0,0.0,0.0,0.0,0.0,0.0,0.0,0.0,0.0,0.0,0.0,0.0,0.0,0.0,0.0,0.0,0.0,0.0,0.0,0.0,0.0,0.0,0.0,0.0,0.0,0.0,0.0,0.0,0.0,0.0,0.0,0.0,0.0,0.0,0.0,0.0,0.0,0.0,0.0,0.0,0.0,0.0,0.0,0.0,0.0,0.0,0.0,0.0,0.0,0.0,0.0,0.0,0.0,0.0,0.0,0.0,0.0,0.0,0.0,0.0,0.0,0.0,0.0,0.0,0.0,0.0,0.0,0.0,0.0,0.0,0.0,0.0,0.0,0.0,0.0,0.0,0.0,0.0,0.0,0.0,0.0,0.0,0.0,0.0,0.0,0.0,0.0,-1.4423,-1.4089,-1.3978,-1.4036,-1.4075,-1.3935,0.0,0.0,0.0,0.0,0.0,0.0,0.0,0.0,0.0,0.0,0.0,0.0,0.0,0.0,0.0,0.0,0.0,0.0,0.0,0.0,0.0,0.0,0.0,0.0,0.0,0.0,0.0,0.0,0.0,0.0,0.0,0.0,0.0,0.0,0.0,0.0,0.0,0.0,0.0,0.0,0.0,0.0,0.0,0.0,0.0,0.0,0.0,0.0,0.0,0.0,0.0,0.0,0.0,0.0,0.0,0.0,0.0,0.0,0.0,0.0,0.0,0.0,0.0,0.0,0.0,0.0,0.0,0.0,0.0,0.0,0.0,0.0,0.0,0.0,0.0,0.0,0.0,0.0,0.0,0.0,0.0,0.0,0.0,0.0,0.0,0.0,0.0,0.0,0.0,0.0,0.0,0.0,0.0,0.0,0.0,0.0,0.0,0.0,0.0,0.0,0.0,0.0,0.0,0.0,0.0,0.0,0.0,0.0,0.0,-1.5444,-1.5339,-1.5352,-1.5511,-1.5551,-1.5016,-1.384,0.0,0.0,0.0,0.0,0.0,0.0,0.0,0.0,0.0,0.0,0.0,0.0,0.0,0.0,0.0,0.0,0.0,0.0,0.0,0.0,0.0,0.0,0.0,0.0,0.0,0.0,0.0,0.0,0.0,0.0,0.0,0.0,0.0,0.0,0.0,0.0,0.0,0.0,0.0,0.0,0.0,0.0,0.0,0.0,0.0,0.0,0.0,0.0,0.0,0.0,0.0,0.0,0.0,0.0,0.0,0.0,0.0,0.0,0.0,0.0,0.0,0.0,0.0,0.0,0.0,0.0,0.0,0.0,0.0,0.0,0.0,0.0,0.0,0.0,0.0,0.0,0.0,0.0,0.0,0.0,0.0,0.0,0.0,0.0,0.0,0.0,0.0,0.0,0.0,0.0,0.0,0.0,0.0,0.0,0.0,0.0,0.0,0.0,0.0,0.0,0.0,0.0,0.0,0.0,0.0,0.0,0.0,0.0,-1.7718,-1.8101,-1.8207,-1.7973,-1.7879,-1.6585,0.0,0.0,0.0,0.0,0.0,0.0,0.0,0.0,0.0,0.0,0.0,0.0,0.0,0.0,0.0,0.0,0.0,0.0,0.0,0.0,0.0,0.0,0.0,0.0,0.0,0.0,0.0,0.0,0.0,0.0,0.0,0.0,0.0,0.0,0.0,0.0,0.0,0.0,0.0,0.0,0.0,0.0,0.0,0.0,0.0,0.0,0.0,0.0,0.0,0.0,0.0,0.0,0.0,0.0,0.0,0.0,0.0,0.0,0.0,0.0,0.0,0.0,0.0,0.0,0.0,0.0,0.0,0.0,0.0,0.0,0.0,0.0,0.0,0.0,0.0,0.0,0.0,0.0,0.0,0.0,0.0,0.0,0.0,0.0,0.0,0.0,0.0,0.0,0.0,0.0,0.0,0.0,0.0,0.0,0.0,0.0,0.0,0.0,0.0,0.0,0.0,0.0,0.0,0.0,0.0,0.0,0.0,0.0,0.0,-2.0087,-2.1383,-2.1434,-2.0179,-1.9097,-1.7976,0.0,0.0,0.0,0.0,0.0,0.0,0.0,0.0,0.0,0.0,0.0,0.0,0.0,0.0,0.0,0.0,0.0,0.0,0.0,0.0,0.0,0.0,0.0,0.0,0.0,0.0,0.0,0.0,0.0,0.0,0.0,0.0,0.0,0.0,0.0,0.0,0.0,0.0,0.0,0.0,0.0,0.0,0.0,0.0,0.0,0.0,0.0,0.0,0.0,0.0,0.0,0.0,0.0,0.0,0.0,0.0,0.0,0.0,0.0,0.0,0.0,0.0,0.0,0.0,0.0,0.0,0.0,0.0,0.0,0.0,0.0,0.0,0.0,0.0,0.0,0.0,0.0,0.0,0.0,0.0,0.0,0.0,0.0,0.0,0.0,0.0,0.0,0.0,0.0,0.0,0.0,0.0,0.0,0.0,0.0,0.0,0.0,0.0,0.0,0.0,0.0,0.0,0.0,0.0,0.0,0.0,0.0,0.0,-2.0205,-2.0472,-2.3315,-2.4349,-2.3346,-2.0852,-1.892,0.0,0.0,0.0,0.0,0.0,0.0,0.0,0.0,0.0,0.0,0.0,0.0,0.0,0.0,0.0,0.0,0.0,0.0,0.0,0.0,0.0,0.0,0.0,0.0,0.0,0.0,0.0,0.0,0.0,0.0,0.0,0.0,0.0,0.0,0.0,0.0,0.0,0.0,0.0,0.0,0.0,0.0,0.0,0.0,0.0,0.0,0.0,0.0,0.0,0.0,0.0,0.0,0.0,0.0,0.0,0.0,0.0,0.0,0.0,0.0,0.0,0.0,0.0,0.0,0.0,0.0,0.0,0.0,0.0,0.0,0.0,0.0,0.0,0.0,0.0,0.0,0.0,0.0,0.0,0.0,0.0,0.0,0.0,0.0,0.0,0.0,0.0,0.0,0.0,0.0,0.0,0.0,0.0,0.0,0.0,0.0,0.0,0.0,0.0,0.0,0.0,0.0,0.0,0.0,0.0,0.0,0.0,0.0,-2.1081,-2.0158,-2.4343,-2.6572,-2.6401,-2.2623,-1.9578,0.0,0.0,0.0,0.0,0.0,0.0,0.0,0.0,0.0,0.0,0.0,0.0,0.0,0.0,0.0,0.0,0.0,0.0,0.0,0.0,0.0,0.0,0.0,0.0,0.0,0.0,0.0,0.0,0.0,0.0,0.0,0.0,0.0,0.0,0.0,0.0,0.0,0.0,0.0,0.0,0.0,0.0,0.0,0.0,0.0,0.0,0.0,0.0,0.0,0.0,0.0,0.0,0.0,0.0,0.0,0.0,0.0,0.0,0.0,0.0,0.0,0.0,0.0,0.0,0.0,0.0,0.0,0.0,0.0,0.0,0.0,0.0,0.0,0.0,0.0,0.0,0.0,0.0,0.0,0.0,0.0,0.0,0.0,0.0,0.0,0.0,0.0,0.0,0.0,0.0,0.0,0.0,0.0,0.0,0.0,0.0,0.0,0.0,0.0,0.0,0.0,0.0,0.0,0.0,0.0,0.0,0.0,0.0,-2.1577,-2.2703,-2.533,-2.6674,-2.664,-2.2663,-2.0332,0.0,0.0,0.0,0.0,0.0,0.0,0.0,0.0,0.0,0.0,0.0,0.0,0.0,0.0,0.0,0.0,0.0,0.0,0.0,0.0,0.0,0.0,0.0,0.0,0.0,0.0,0.0,0.0,0.0,0.0,0.0,0.0,0.0,0.0,0.0,0.0,0.0,0.0,0.0,0.0,0.0,0.0,0.0,0.0,0.0,0.0,0.0,0.0,-2.1435,0.0,0.0,0.0,0.0,0.0,0.0,0.0,0.0,0.0,0.0,0.0,0.0,0.0,0.0,0.0,0.0,0.0,0.0,0.0,0.0,0.0,0.0,0.0,0.0,0.0,0.0,0.0,0.0,0.0,0.0,0.0,0.0,0.0,0.0,0.0,0.0,0.0,0.0,0.0,0.0,0.0,0.0,0.0,0.0,0.0,0.0,0.0,0.0,0.0,0.0,0.0,0.0,0.0,0.0,0.0,0.0,0.0,0.0,0.0,-2.1764,-2.349,-2.5581,-2.6708,-2.659,-2.349,-2.1354,0.0,0.0,0.0,0.0,0.0,0.0,0.0,0.0,0.0,0.0,0.0,0.0,0.0,0.0,0.0,0.0,0.0,0.0,0.0,0.0,0.0,0.0,0.0,0.0,0.0,0.0,0.0,0.0,0.0,0.0,0.0,0.0,0.0,0.0,0.0,0.0,0.0,0.0,0.0,0.0,0.0,0.0,0.0,0.0,0.0,0.0,0.0,0.0,0.0,0.0,0.0,0.0,0.0,0.0,0.0,0.0,0.0,0.0,0.0,0.0,0.0,0.0,0.0,0.0,0.0,0.0,0.0,0.0,0.0,0.0,0.0,0.0,0.0,0.0,0.0,0.0,0.0,0.0,0.0,0.0,0.0,0.0,0.0,0.0,0.0,0.0,0.0,0.0,0.0,0.0,0.0,0.0,0.0,0.0,0.0,0.0,0.0,0.0,0.0,0.0,0.0,0.0,0.0,0.0,0.0,0.0,0.0,-2.0086,-2.1963,-2.4182,-2.595,-2.6928,-2.7012,-2.4742,-2.2525,-2.0498,0.0,0.0,0.0,0.0,0.0,0.0,0.0,0.0,0.0,0.0,0.0,0.0,0.0,0.0,0.0,0.0,0.0,0.0,0.0,0.0,0.0,0.0,0.0,0.0,0.0,0.0,0.0,0.0,0.0,0.0,0.0,0.0,0.0,0.0,0.0,0.0,0.0,0.0,-2.058,-1.99,0.0,0.0,0.0,0.0,0.0,0.0,0.0,0.0,-2.1238,0.0,0.0,0.0,0.0,0.0,0.0,0.0,0.0,0.0,0.0,0.0,0.0,0.0,0.0,0.0,0.0,0.0,0.0,0.0,0.0,0.0,0.0,0.0,0.0,0.0,0.0,0.0,0.0,0.0,0.0,0.0,0.0,0.0,0.0,0.0,0.0,0.0,0.0,0.0,0.0,0.0,0.0,0.0,0.0,0.0,0.0,0.0,0.0,0.0,0.0,0.0,0.0,0.0,0.0,0.0,0.0,-2.1045,-2.0774,-2.2866,-2.7366,-2.7589,-2.7943,-2.8518,-2.6151,-2.3786,-2.165,0.0,0.0,0.0,0.0,0.0,0.0,0.0,0.0,0.0,0.0,0.0,0.0,0.0,0.0,0.0,0.0,0.0,0.0,0.0,0.0,0.0,0.0,0.0,0.0,0.0,0.0,0.0,0.0,0.0,0.0,0.0,0.0,0.0,0.0,0.0,0.0,0.0,0.0,0.0,-2.0754,-2.0604,0.0,0.0,0.0,0.0,0.0,0.0,0.0,0.0,-2.1698,0.0,0.0,0.0,0.0,0.0,0.0,0.0,0.0,0.0,0.0,0.0,0.0,0.0,0.0,0.0,0.0,0.0,0.0,0.0,0.0,0.0,0.0,0.0,0.0,0.0,0.0,0.0,0.0,0.0,0.0,0.0,0.0,0.0,0.0,0.0,0.0,0.0,0.0,0.0,0.0,0.0,0.0,0.0,0.0,0.0,0.0,0.0,0.0,0.0,0.0,0.0,0.0,0.0,0.0,0.0,-2.2806,-2.3373,-2.5347,-2.8766,-2.8612,-2.8602,-2.8941,-2.6496,-2.4255,0.0,0.0,0.0,0.0,0.0,0.0,0.0,0.0,0.0,0.0,0.0,0.0,0.0,0.0,0.0,0.0,0.0,0.0,0.0,0.0,0.0,0.0,0.0,0.0,0.0,0.0,0.0,0.0,0.0,0.0,0.0,0.0,0.0,0.0,0.0,0.0,0.0,0.0,0.0,0.0,-2.0946,-2.0853,-2.201,0.0,0.0,0.0,0.0,0.0,0.0,-2.193,-2.1762,0.0,0.0,0.0,0.0,0.0,0.0,0.0,0.0,0.0,0.0,0.0,0.0,0.0,0.0,0.0,0.0,0.0,0.0,0.0,0.0,0.0,0.0,0.0,0.0,0.0,0.0,0.0,0.0,0.0,0.0,0.0,0.0,0.0,0.0,0.0,0.0,0.0,0.0,0.0,0.0,0.0,0.0,0.0,0.0,0.0,0.0,0.0,0.0,0.0,0.0,0.0,0.0,0.0,0.0,0.0,-2.4094,-2.5612,-2.7487,-2.9592,-2.9396,-2.9279,-2.9381,-2.6531,-2.4217,0.0,0.0,0.0,0.0,0.0,0.0,0.0,0.0,0.0,0.0,0.0,0.0,0.0,0.0,0.0,0.0,0.0,0.0,0.0,0.0,0.0,0.0,0.0,0.0,0.0,0.0,0.0,0.0,0.0,0.0,0.0,0.0,0.0,0.0,0.0,0.0,0.0,0.0,0.0,0.0,0.0,-2.1474,-2.2988,-2.1888,0.0,0.0,0.0,0.0,-2.1967,-2.2035,0.0,0.0,0.0,0.0,0.0,0.0,0.0,0.0,0.0,0.0,0.0,0.0,0.0,0.0,0.0,0.0,0.0,0.0,0.0,0.0,0.0,0.0,0.0,0.0,0.0,0.0,0.0,0.0,0.0,0.0,0.0,0.0,0.0,0.0,0.0,0.0,0.0,0.0,0.0,0.0,0.0,0.0,0.0,0.0,0.0,0.0,0.0,0.0,0.0,0.0,0.0,0.0,0.0,0.0,0.0,0.0,-2.4232,-2.5731,-2.7794,-3.0317,-3.0145,-3.0277,-3.0869,-2.6366,-2.3553,0.0,0.0,0.0,0.0,0.0,0.0,0.0,0.0,0.0,0.0,0.0,0.0,0.0,0.0,0.0,0.0,0.0,0.0,0.0,0.0,0.0,0.0,0.0,0.0,0.0,0.0,0.0,0.0,0.0,0.0,0.0,0.0,0.0,0.0,0.0,0.0,0.0,0.0,0.0,0.0,0.0,-2.3189,-2.4777,-2.3642,-2.2633,0.0,0.0,-2.2635,-2.2604,-2.3187,0.0,0.0,0.0,0.0,0.0,0.0,0.0,0.0,0.0,0.0,0.0,0.0,0.0,0.0,0.0,0.0,0.0,0.0,0.0,0.0,0.0,0.0,0.0,0.0,0.0,0.0,0.0,0.0,0.0,0.0,0.0,0.0,0.0,0.0,0.0,0.0,0.0,0.0,0.0,0.0,0.0,0.0,0.0,0.0,0.0,0.0,0.0,0.0,0.0,0.0,0.0,0.0,0.0,0.0,0.0,-2.456,-2.5059,-2.8151,-3.0231,-3.1179,-3.0874,-3.0869,-3.1173,-2.6365,-2.3572,0.0,0.0,0.0,0.0,0.0,0.0,0.0,0.0,0.0,0.0,0.0,0.0,0.0,0.0,0.0,0.0,0.0,0.0,0.0,0.0,0.0,0.0,0.0,0.0,0.0,0.0,0.0,0.0,0.0,0.0,0.0,0.0,0.0,0.0,0.0,0.0,0.0,0.0,0.0,0.0,0.0,0.0,-2.516,-2.4242,0.0,0.0,0.0,-2.3431,-2.2982,0.0,0.0,0.0,0.0,0.0,0.0,0.0,0.0,0.0,0.0,0.0,0.0,0.0,0.0,0.0,0.0,0.0,0.0,0.0,0.0,0.0,0.0,0.0,0.0,0.0,0.0,0.0,0.0,0.0,0.0,0.0,0.0,0.0,0.0,0.0,0.0,0.0,0.0,0.0,0.0,0.0,0.0,0.0,0.0,0.0,0.0,0.0,0.0,0.0,0.0,0.0,0.0,0.0,0.0,0.0,0.0,0.0,-2.5606,-2.9883,-3.2003,-3.1677,-3.1406,-3.119,-3.11,-2.7034,0.0,0.0,0.0,0.0,0.0,0.0,0.0,0.0,0.0,0.0,0.0,0.0,0.0,0.0,0.0,0.0,0.0,0.0,0.0,0.0,0.0,0.0,0.0,0.0,0.0,0.0,0.0,-2.3648,0.0,0.0,0.0,0.0,0.0,0.0,0.0,0.0,0.0,0.0,0.0,0.0,0.0,0.0,-2.5527,-2.551,-2.4841,-2.4454,0.0,0.0,-2.4152,-2.3995,-2.5642,-2.6163,0.0,0.0,0.0,0.0,0.0,0.0,0.0,0.0,0.0,0.0,0.0,0.0,0.0,0.0,0.0,0.0,0.0,0.0,0.0,0.0,0.0,0.0,0.0,0.0,0.0,0.0,0.0,0.0,0.0,0.0,0.0,0.0,0.0,0.0,0.0,0.0,0.0,0.0,0.0,0.0,0.0,0.0,0.0,0.0,0.0,0.0,0.0,0.0,0.0,0.0,0.0,0.0,0.0,0.0,0.0,-2.5671,-2.9612,-3.1714,-3.1677,-3.1351,-3.119,-3.1157,-2.8646,-2.6109,0.0,0.0,0.0,0.0,0.0,0.0,0.0,0.0,0.0,0.0,0.0,0.0,0.0,0.0,0.0,0.0,0.0,0.0,0.0,0.0,0.0,0.0,0.0,0.0,0.0,0.0,0.0,0.0,0.0,0.0,0.0,0.0,0.0,0.0,0.0,0.0,0.0,0.0,0.0,0.0,0.0,-2.6422,-2.6409,-2.5718,-2.5734,0.0,0.0,-2.4709,-2.6144,-2.7112,-2.691,-2.4503,0.0,0.0,0.0,0.0,0.0,0.0,0.0,0.0,0.0,0.0,0.0,0.0,0.0,0.0,0.0,0.0,0.0,0.0,0.0,0.0,0.0,0.0,0.0,0.0,0.0,0.0,0.0,0.0,0.0,0.0,0.0,0.0,0.0,0.0,0.0,0.0,0.0,0.0,0.0,0.0,0.0,0.0,0.0,0.0,0.0,0.0,0.0,0.0,0.0,0.0,0.0,0.0,0.0,-2.6182,-2.5153,-2.9428,-3.1582,-3.1389,-3.1252,-3.119,-3.119,-2.8801,-2.6342,0.0,0.0,0.0,0.0,0.0,0.0,0.0,0.0,0.0,0.0,0.0,0.0,0.0,0.0,0.0,0.0,0.0,0.0,0.0,0.0,0.0,0.0,0.0,0.0,0.0,0.0,0.0,0.0,-2.7094,-2.7089,-2.6631,0.0,0.0,0.0,0.0,0.0,0.0,0.0,0.0,0.0,0.0,-2.6713,-2.7674,-2.7173,0.0,0.0,-2.7005,-2.6398,-2.6043,-2.7123,-2.6977,-2.4004,-2.3522,0.0,0.0,0.0,0.0,0.0,0.0,0.0,0.0,0.0,0.0,0.0,0.0,0.0,0.0,0.0,0.0,0.0,0.0,0.0,0.0,0.0,0.0,0.0,0.0,0.0,0.0,0.0,0.0,0.0,0.0,0.0,0.0,0.0,0.0,0.0,0.0,0.0,0.0,0.0,0.0,0.0,0.0,0.0,0.0,0.0,0.0,0.0,0.0,0.0,0.0,0.0,0.0,-2.6127,-2.4948,-2.929,-3.1428,-3.1173,-3.119,-3.119,-3.1157,-2.952,-2.755,0.0,0.0,0.0,0.0,0.0,0.0,0.0,0.0,0.0,0.0,0.0,0.0,0.0,0.0,0.0,0.0,0.0,0.0,0.0,0.0,0.0,0.0,0.0,0.0,0.0,0.0,0.0,0.0,-2.7206,-2.7152,-2.6622,0.0,0.0,0.0,0.0,0.0,0.0,0.0,0.0,0.0,0.0,-2.7091,-2.7457,-2.7361,-2.7249,-2.73,-2.7287,-2.6955,-2.61,-2.6957,-2.6841,-2.4255,0.0,0.0,0.0,0.0,0.0,0.0,0.0,0.0,0.0,0.0,0.0,0.0,0.0,0.0,0.0,0.0,0.0,0.0,0.0,0.0,0.0,0.0,0.0,0.0,0.0,0.0,0.0,0.0,0.0,0.0,-2.5703,0.0,0.0,0.0,0.0,0.0,0.0,0.0,0.0,0.0,0.0,0.0,0.0,0.0,0.0,0.0,0.0,0.0,0.0,0.0,0.0,0.0,0.0,-2.5941,-2.5189,-2.9182,-3.123,-3.119,-3.119,-3.119,-3.119,-3.11,-3.0051,-2.7807,0.0,0.0,0.0,0.0,0.0,0.0,0.0,0.0,0.0,0.0,0.0,0.0,0.0,0.0,0.0,0.0,0.0,0.0,0.0,0.0,0.0,0.0,0.0,0.0,0.0,0.0,-2.5572,-2.61,-2.6515,0.0,0.0,0.0,0.0,0.0,0.0,0.0,0.0,0.0,0.0,-2.6553,-2.7592,-2.5447,-2.5858,-2.6485,-2.6656,-2.6102,-2.5931,-2.6627,-2.6831,-2.6595,0.0,0.0,0.0,0.0,0.0,0.0,0.0,0.0,0.0,0.0,0.0,0.0,0.0,0.0,0.0,0.0,0.0,0.0,0.0,0.0,0.0,0.0,0.0,0.0,0.0,0.0,0.0,-2.7359,-2.7373,0.0,0.0,0.0,0.0,0.0,0.0,0.0,0.0,0.0,0.0,0.0,-2.9396,-2.9142,0.0,0.0,0.0,0.0,0.0,0.0,0.0,0.0,0.0,0.0,0.0,0.0,-2.6775,-2.6557,-2.9766,-3.1428,-3.119,-3.119,-3.119,-3.119,-3.119,-3.0118,-2.7809,0.0,0.0,0.0,0.0,0.0,0.0,0.0,0.0,0.0,0.0,0.0,0.0,0.0,0.0,0.0,0.0,0.0,0.0,0.0,0.0,0.0,0.0,0.0,0.0,0.0,-2.6305,0.0,0.0,0.0,0.0,0.0,0.0,0.0,0.0,0.0,0.0,0.0,-2.4941,-2.5373,-2.4929,-2.4664,-2.4896,-2.5291,-2.5964,0.0,0.0,0.0,0.0,0.0,0.0,0.0,0.0,0.0,0.0,0.0,0.0,0.0,0.0,-2.3554,-2.2348,-2.3054,-2.3822,-2.3786,0.0,0.0,0.0,0.0,0.0,0.0,0.0,0.0,0.0,0.0,0.0,0.0,0.0,0.0,-2.874,0.0,-2.8808,0.0,0.0,0.0,0.0,0.0,0.0,0.0,0.0,-2.924,-3.0095,-3.1127,-3.0839,-3.1012,0.0,-3.0963,-2.9923,0.0,0.0,0.0,0.0,0.0,0.0,0.0,0.0,-2.7272,-2.7088,-3.0208,-3.1815,-3.1742,-3.1664,-3.1721,-3.1813,-3.183,-3.1139,-2.9576,-2.7501,-2.6086,0.0,0.0,0.0,0.0,0.0,0.0,0.0,0.0,0.0,0.0,0.0,0.0,0.0,0.0,0.0,0.0,0.0,0.0,0.0,0.0,0.0,0.0,0.0,-2.6931,0.0,0.0,0.0,0.0,0.0,0.0,0.0,0.0,0.0,-2.5948,-2.5214,-2.4965,-2.5659,-2.4898,-2.4258,-2.4151,0.0,0.0,0.0,0.0,0.0,0.0,0.0,-2.3895,-2.2523,-2.3279,-2.418,-2.4652,-2.5167,-2.5508,-2.5551,0.0,0.0,-2.4199,-2.4769,-2.5516,-2.5517,-2.5508,-2.5492,-2.5458,-2.5437,-2.5475,0.0,0.0,0.0,0.0,0.0,0.0,0.0,0.0,-3.0794,-2.9913,0.0,-3.01,0.0,0.0,0.0,0.0,0.0,-2.9057,0.0,0.0,-3.28,-3.3575,-3.2243,-3.2901,-3.3287,-3.3167,-3.1689,-3.1236,-3.177,-3.1616,0.0,0.0,0.0,0.0,0.0,0.0,-2.7482,-2.7211,-3.0525,-3.2438,-3.2754,-3.2615,-3.2717,-3.3007,-3.3014,-3.2981,-3.2947,-3.135,-3.0249,-2.9722,-2.7259,0.0,0.0,0.0,0.0,0.0,0.0,0.0,0.0,0.0,0.0,0.0,0.0,0.0,0.0,0.0,0.0,0.0,0.0,0.0,0.0,-2.7611,0.0,0.0,0.0,0.0,0.0,0.0,0.0,0.0,0.0,0.0,-2.5337,-2.5672,-2.5779,-2.4956,0.0,0.0,0.0,0.0,-2.5389,-2.2503,-2.2698,-2.3051,-2.2323,-2.349,-2.476,-2.5441,0.0,0.0,-2.7978,-2.6697,-2.5781,-2.5711,-2.7105,-2.7672,-2.6082,-2.5848,-2.5824,-2.5799,-2.5894,-2.5697,-2.5701,-2.6061,-2.5995,-3.3763,0.0,0.0,0.0,0.0,-3.1509,-3.209,-3.3374,-3.2752,-3.2213,-3.18,-3.2264,0.0,0.0,0.0,0.0,0.0,0.0,-3.1058,-3.2235,-3.3177,-3.3996,-3.4695,-3.4894,-3.4979,-3.4958,-3.4506,-3.4318,-3.4411,-3.436,-3.2368,-2.8566,0.0,0.0,0.0,0.0,-2.9123,-3.0863,-3.2608,-3.3687,-3.4119,-3.3761,-3.363,-3.3693,-3.3588,-3.3669,-3.3973,-3.3385,-3.2593,-3.1596,-3.1196,0.0,0.0,0.0,0.0,0.0,0.0,0.0,0.0,0.0,0.0,0.0,0.0,0.0,0.0,0.0,0.0,0.0,0.0,0.0,-2.7504,-2.7979,-2.7756,0.0,0.0,0.0,0.0,0.0,0.0,0.0,0.0,0.0,-2.7566,-2.526,-2.3747,0.0,0.0,-2.3225,-2.2863,-2.4532,-2.5893,-2.6159,-2.6417,0.0,-2.7887,-2.7935,-2.7743,-2.735,-2.8171,-2.8666,-2.8103,-2.8579,-2.9071,-2.9052,-2.9477,-2.9641,-2.9245,-2.9128,-2.9109,-2.9156,-2.9144,-2.9152,-2.9152,-2.9144,-2.9125,-3.655,-3.5096,-3.4167,-3.3767,-3.3674,-3.3169,-3.3727,-3.4943,-3.4417,-3.3794,-3.3222,-3.3895,-3.3056,-3.1176,-3.1197,0.0,0.0,0.0,-3.2661,-3.4257,-3.4242,-3.4788,-3.573,-3.5704,-3.5708,-3.5704,-3.5704,-3.5662,-3.5584,-3.4913,-3.3295,-3.0734,0.0,0.0,-2.8991,-2.9801,-3.102,-3.2634,-3.3937,-3.4796,-3.5168,-3.4992,-3.4893,-3.4933,-3.4788,-3.4869,-3.5209,-3.5283,-3.4822,-3.3817,-3.3857,-3.288,0.0,0.0,0.0,0.0,0.0,0.0,0.0,0.0,0.0,0.0,0.0,-2.8556,0.0,0.0,0.0,0.0,-2.8858,-2.8926,-2.8751,-2.8364,0.0,0.0,0.0,0.0,0.0,0.0,0.0,-2.6772,-2.774,-2.8445,-2.8086,-2.5968,-2.4892,-2.6053,-2.5538,-2.5009,-2.4937,0.0,-2.7614,-2.7952,-2.7981,-2.8348,-2.9361,-2.9659,-2.9784,-2.996,-3.0317,-3.0509,-3.0085,-3.0827,-3.1452,-3.1491,-3.1482,-3.1504,-3.1504,-3.1544,-3.1332,-3.0752,-3.0617,-3.0617,-3.0617,-3.0617,-3.0617,-3.8373,-3.8083,-3.5854,-3.4846,-3.469,-3.4691,-3.5165,-3.5878,-3.582,-3.4902,-3.3548,-3.5018,-3.4409,-3.2213,-3.2259,0.0,-3.3399,-3.3418,-3.4207,-3.5714,-3.5708,-3.5716,-3.5703,-3.5705,-3.5715,-3.5704,-3.5762,-3.58,-3.5742,-3.4323,-3.3751,-3.3983,-3.3198,-3.2336,-3.1486,-3.2244,-3.2775,-3.3037,-3.4598,-3.5595,-3.5998,-3.6197,-3.6357,-3.6446,-3.6357,-3.6364,-3.6591,-3.6939,-3.6832,-3.6128,-3.5527,-3.4939,-3.4264,0.0,0.0,0.0,0.0,0.0,0.0,0.0,0.0,0.0,0.0,0.0,0.0,0.0,0.0,0.0,-2.9607,0.0,-3.0807,-2.8983,0.0,0.0,0.0,-2.8209,-2.9574,-2.9866,-2.9624,-2.8717,0.0,0.0,-2.7775,-2.7662,-2.8334,-3.0032,-3.0132,-2.9552,-2.832,-2.9557,-3.0153,-2.8811,-2.8578,-2.8676,-2.9294,-3.026,-3.1502,-3.2569,-3.3006,-3.2884,-3.273,-3.28,-3.296,-3.2883,-3.2972,-3.2937,-3.2976,-3.2932,-3.2607,-3.1149,-3.0868,-3.0849,-3.0907,-3.0946,-3.0965,-3.9785,-3.9127,-3.8551,-3.7912,-3.729,-3.7301,-3.7417,-3.7541,-3.6895,-3.6392,-3.6005,-3.5781,-3.5366,-3.4805,-3.4823,-3.4919,-3.5113,-3.5093,-3.5328,-3.5698,-3.5745,-3.5774,-3.578,-3.5723,-3.5707,-3.5742,-3.6319,-3.6617,-3.6636,-3.6825,-3.6254,-3.5013,-3.4655,-3.3469,-3.1489,-3.1624,-3.2456,-3.3934,-3.4425,-3.5393,-3.6852,-3.6929,-3.6978,-3.6999,-3.6917,-3.7073,-3.7413,-3.7449,-3.7414,-3.7218,-3.7077,-3.6346,-3.4955,-3.3445,0.0,0.0,0.0,0.0,0.0,0.0,0.0,0.0,0.0,-2.8922,-2.8258,0.0,-2.9603,0.0,-3.0012,-3.118,-3.1392,-3.0956,0.0,0.0,-2.9967,-3.0035,-2.9814,-3.1314,-3.1635,-2.9712,-3.049,-3.1089,-3.0902,-3.0883,-3.1541,-3.3162,-3.0988,-2.9289,-2.9558,-3.1207,-3.2271,-3.1975,-3.2779,-3.3698,-3.357,-3.4026,-3.4148,-3.393,-3.3891,-3.366,-3.3026,-3.2891,-3.2923,-3.2923,-3.2967,-3.2991,-3.3045,-3.3068,-3.2993,-3.2599,-3.2502,-3.2502,-3.2502,-3.2483,-3.2502,-4.05,-4.0087,-4.0087,-3.9804,-3.9301,-3.8528,-3.8218,-3.816,-3.7688,-3.7475,-3.7444,-3.7,-3.6806,-3.6826,-3.6826,-3.6806,-3.6806,-3.6826,-3.6806,-3.6806,-3.6884,-3.688,-3.686,-3.6823,-3.681,-3.6837,-3.723,-3.743,-3.7469,-3.7887,-3.769,-3.6952,-3.6762,-3.5718,-3.3833,-3.2668,-3.2873,-3.4498,-3.4722,-3.5711,-3.747,-3.7431,-3.7074,-3.6434,-3.629,-3.6043,-3.5677,-3.5523,-3.549,-3.5596,-3.5525,-3.508,-3.4209,-3.2967,-3.1663,0.0,0.0,0.0,0.0,0.0,0.0,0.0,0.0,0.0,0.0,0.0,-3.0362,-2.988,-3.0987,-3.1597,-3.1254,-3.0961,-3.077,-3.0739,-3.1129,-3.1481,-3.1728,-3.2866,-3.3153,-3.1912,-3.2465,-3.2959,-3.2959,-3.2978,-3.3362,-3.4449,-3.2843,-3.1756,-3.2319,-3.333,-3.4002,-3.4134,-3.4903,-3.5507,-3.5507,-3.5507,-3.5353,-3.4891,-3.4776,-3.4603,-3.4141,-3.4064,-3.4064,-3.4064,-3.4077,-3.4109,-3.4115,-3.414,-3.4176,-3.421,-3.4202,-3.3942,-3.3276,-3.3102,-3.3102,-4.1042,-4.1055,-4.1003,-4.0945,-4.0829,-3.9224,-3.8528,-3.8528,-3.8411,-3.8303,-3.8206,-3.8206,-3.8218,-3.8218,-3.8218,-3.8218,-3.8218,-3.8218,-3.8218,-3.8218,-3.8257,-3.826,-3.8214,-3.8208,-3.8196,-3.8182,-3.824,-3.824,-3.826,-3.8362,-3.8565,-3.8833,-3.8594,-3.7872,-3.6662,-3.4271,-3.3589,-3.4629,-3.5164,-3.6137,-3.7589,-3.722,-3.6381,-3.5111,-3.4884,-3.4242,-3.31,-3.282,-3.2793,-3.3019,-3.2876,-3.2962,-3.3244,-3.2031,-3.1327,0.0,-3.0362,0.0,0.0,0.0,0.0,0.0,0.0,0.0,0.0,-3.0398,-3.0863,-3.1992,-3.2011,-3.1734,-3.1233,-3.0617,-3.079,-3.2109,-3.2231,-3.2728,-3.4017,-3.4216,-3.4216,-3.4216,-3.4216,-3.4216,-3.4141,-3.4221,-3.434,-3.4542,-3.4621,-3.4598,-3.5066,-3.5095,-3.5199,-3.5488,-3.5507,-3.5507,-3.5507,-3.5507,-3.5507,-3.5488,-3.543,-3.5507,-3.5411,-3.5411,-3.5449,-3.5449,-3.5372,-3.543,-3.5488,-3.5451,-3.5477,-3.5456,-3.5461,-3.506,-3.3933,-3.3585,-3.343,-4.2417,-4.2357,-4.1942,-4.1777,-4.168,-4.0732,-4.0307,-4.0249,-3.956,-3.8851,-3.8221,-3.8214,-3.8206,-3.8218,-3.8218,-3.8218,-3.8218,-3.8218,-3.8218,-3.8218,-3.8218,-3.8214,-3.8215,-3.8196,-3.817,-3.8161,-3.8758,-3.9066,-3.9085,-3.9745,-3.9377,-3.8127,-3.7794,-3.7163,-3.6207,0.0,0.0,0.0,-3.488,-3.5582,-3.5816,-3.4452,-3.3519,-3.3066,-3.3214,0.0,-3.2657,-3.2573,-3.2611,-3.2773,-3.2714,0.0,0.0,0.0,0.0,0.0,0.0,0.0,0.0,0.0,0.0,0.0,-3.2631,-3.2216,-3.1626,-3.0318,-3.0405,-3.2408,-3.2014,-3.2064,-3.3229,-3.321,-3.3284,-3.3715,-3.3766,-3.3905,-3.4179,-3.4216,-3.4216,-3.4216,-3.4216,-3.4216,-3.424,-3.4404,-3.4539,-3.4604,-3.4771,-3.4982,-3.5187,-3.5345,-3.5455,-3.5507,-3.5507,-3.5507,-3.5507,-3.5507,-3.5507,-3.5507,-3.5507,-3.5507,-3.5507,-3.5507,-3.5507,-3.5507,-3.5507,-3.5488,-3.5489,-3.5502,-3.5515,-3.5591,-3.5623,-3.5519,-3.5248,-3.5201,-3.5201,-4.2584,0.0,-4.2313,-4.2194,0.0,-4.1771,-4.1349,-4.096,-4.0384,-3.9908,-3.9489,-3.9482,-3.9475,-3.9495,-3.9495,-3.9463,-3.9431,-3.9451,-3.9419,-3.9387,-3.9387,-3.9387,-3.9367,-3.9367,-3.9364,-3.9345,-3.9711,-3.9903,-3.9903,-4.0312,-4.0046,-3.9208,-3.8934,-3.8556,-3.8099,-3.7239,-3.624,-3.5101,-3.5556,-3.6217,-3.6976,-3.6077,-3.5141,-3.4285,-3.4312,0.0,0.0,0.0,0.0,0.0,0.0,0.0,0.0,0.0,0.0,-3.4852,-3.4389,-3.4451,-3.5335,-3.546,-3.5627,-3.594,-3.5696,-3.4652,-3.2657,-3.2404,-3.2669,-3.3395,-3.3074,-3.3167,-3.3938,-3.4049,-3.4099,-3.4197,-3.4216,-3.4216,-3.4216,-3.4216,-3.4216,-3.4216,-3.4216,-3.4216,-3.4197,-3.445,-3.4626,-3.4751,-3.4927,-3.5107,-3.5308,-3.5339,-3.5369,-3.5479,-3.5507,-3.5507,-3.5507,-3.5507,-3.5507,-3.5507,-3.5507,-3.5507,-3.5507,-3.5507,-3.5507,-3.5507,-3.5507,-3.5488,-3.5482,-3.5495,-3.5528,-3.5547,-3.5589,-3.5615,-3.5678,-3.5676,-3.5673,-4.2784,-4.2765,-4.2658,-4.2623,-4.2604,-4.2471,-4.2034,-4.1371,0.0,0.0,0.0,-4.0778,-4.079,-4.0759,-4.0759,-4.0746,-4.0668,-4.0668,-4.0654,-4.0588,-4.0588,-4.0577,-4.0591,-4.0593,-4.0592,-4.0581,-4.0527,-4.0489,-4.0489,-4.0489,-4.0489,-4.0473,-4.0304,-4.0177,-4.0061,-3.9632,-3.8644,-3.7089,-3.6472,-3.6883,-3.8265,-3.7814,-3.6869,-3.5556,-3.552,-3.4889,-3.3585,-3.339,-3.3382,-3.3557,-3.3441,-3.3603,-3.4063,-3.422,-3.4439,-3.4829,-3.4951,-3.5658,-3.7091,-3.7203,-3.7761,-3.9008,-3.8488,-3.6861,-3.3939,-3.4952,-3.5404,-3.4699,-3.4624,-3.4643,-3.4624,-3.4494,-3.4439,-3.4439,-3.429,-3.4216,-3.4216,-3.4216,-3.4216,-3.4216,-3.4216,-3.4216,-3.4221,-3.4427,-3.4647,-3.4831,-3.5037,-3.5273,-3.5432,-3.5369,-3.5339,-3.546,-3.5507,-3.5507,-3.5507,-3.5507,-3.5507,-3.5507,-3.5507,-3.5507,-3.5507,-3.5507,-3.5507,-3.5507,-3.5507,-3.5507,-3.5507,-3.5515,-3.5509,-3.5528,-3.5577,-3.5641,-3.5679,-3.5659,-3.5667,-4.4195,-4.4165,-4.371,-4.352,-4.3463,-4.2718,-4.2329,-4.2132,-4.0985,-4.0424,-4.0381,-4.0665,-4.0746,-4.0635,-4.0681,-4.0687,-4.0621,-4.0621,-4.0621,-4.0588,-4.0588,-4.0588,-4.0579,-4.0603,-4.0573,-4.0523,-4.0489,-4.0489,-4.0489,-4.0489,-4.0489,-4.0473,-4.0304,-3.9982,-3.9604,-3.9279,-3.9017,-3.872,-3.7053,-3.6321,-3.6523,-3.5005,-3.4058,-3.3706,-3.397,-3.3806,-3.3361,-3.3368,-3.335,-3.3422,-3.3408,-3.4084,-3.5551,-3.5714,-3.6428,-3.7945,-3.8132,-3.8348,-3.8729,-3.8794,-3.8859,-3.9064,-3.899,-3.8154,-3.6415,-3.6415,-3.6482,-3.6333,-3.6278,-3.6333,-3.6315,-3.5702,-3.5293,-3.5256,-3.4643,-3.4216,-3.429,-3.4309,-3.4309,-3.4327,-3.4216,-3.4271,-3.437,-3.4562,-3.4755,-3.4764,-3.5229,-3.535,-3.5605,-3.5479,-3.546,-3.5493,-3.5507,-3.5507,-3.5507,-3.5507,-3.5507,-3.5507,-3.5507,-3.5507,-3.5507,-3.5507,-3.5507,-3.5507,-3.5507,-3.5507,-3.5507,-3.556,-3.557,-3.5574,-3.5679,-3.5782,-3.5865,-3.5904,-3.5873,-4.4221,-4.4213,-4.3942,-4.3847,-4.3791,-4.2964,-4.261,-4.2527,-4.1661,-4.1079,-4.0817,-4.094,-4.0741,-4.0262,-4.0399,-4.045,-4.0383,-4.0534,-4.0583,-4.0549,-4.0549,-4.0549,-4.0554,-4.0558,-4.0539,-4.0489,-4.0489,-4.0489,-4.0489,-4.0489,-4.0489,-4.0489,-4.0304,-3.9962,-3.9508,-3.9376,-3.9245,-3.9082,-3.822,-3.7775,-3.7775,-3.698,-3.6519,-3.6462,-3.6565,-3.6565,-3.6462,-3.6462,-3.6462,-3.6509,-3.649,-3.684,-3.7614,-3.7679,-3.805,-3.8876,-3.8979,-3.8989,-3.9101,-3.9101,-3.9101,-3.9101,-3.9101,-3.8822,-3.8061,-3.7596,-3.7151,-3.6742,-3.6705,-3.6705,-3.6705,-3.6352,-3.6147,-3.6147,-3.5776,-3.5578,-3.5541,-3.556,-3.5578,-3.556,-3.556,-3.5553,-3.5553,-3.5754,-3.5893,-3.5919,-3.6255,-3.6559,-3.6786,-3.6834,-3.6488,-3.5705,-3.5507,-3.5507,-3.5526,-3.5507,-3.5507,-3.5507,-3.5507,-3.5507,-3.5507,-3.5507,-3.5526,-3.5507,-3.5507,-3.5507,-3.5526,-3.5509,-3.5547,-3.5623,-3.6096,-3.6334,-3.6464,-3.6872,-3.6971,-4.4005,-4.4005,-4.4005,-4.4005,-4.3949,-4.3336,-4.3076,-4.3039,-4.2623,-4.2118,-4.1588,-4.1515,-4.1105,-4.0475,-4.0482,-4.0443,-4.0424,-4.0468,-4.0492,-4.0441,-4.0473,-4.0489,-4.0489,-4.0489,-4.0489,-4.0489,-4.0489,-4.0489,-4.0489,-4.0489,-4.0489,-4.0473,-4.0232,-3.992,-3.958,-3.9477,-3.9298,-3.9129,-3.9101,-3.9101,-3.9101,-3.9101,-3.9082,-3.9101,-3.9064,-3.9101,-3.9101,-3.9101,-3.9101,-3.9101,-3.9101,-3.9101,-3.9101,-3.9101,-3.9101,-3.9101,-3.9101,-3.9101,-3.9101,-3.9101,-3.9101,-3.9101,-3.9101,-3.9082,-3.9045,-3.8525,-3.7912,-3.7355,-3.7299,-3.7299,-3.7281,-3.7076,-3.6965,-3.6965,-3.6798,-3.6612,-3.6694,-3.6712,-3.6731,-3.6712,-3.6731,-3.6668,-3.6738,-3.6857,-3.6975,-3.7093,-3.7433,-3.7725,-3.7939,-3.7988,-3.7411,-3.6546,-3.6065,-3.6161,-3.6065,-3.6122,-3.6142,-3.6065,-3.6142,-3.6219,-3.6199,-3.6122,-3.6103,-3.6199,-3.6161,-3.6219,-3.6103,-3.6131,-3.6215,-3.6331,-3.685,-3.7294,-3.7322,-3.7826,-3.8112,-4.4005,-4.4005,-4.4005,-4.4005,-4.4005,-4.3912,-4.3856,-4.3856,-4.3819,-4.3385,-4.2627,-4.2406,-4.2198,-4.1987,-4.1323,-4.1019,-4.0959,-4.0482,-4.0271,-4.0308,-4.0425,-4.0489,-4.0511,-4.0508,-4.0489,-4.0489,-4.0489,-4.0508,-4.0566,-4.0566,-4.0527,-4.0457,-4.0062,-3.9876,-3.9766,-3.9376,-3.9147,-3.912,-3.9101,-3.9101,-3.9101,-3.9101,-3.9101,-3.9101,-3.9101,-3.9101,-3.9101,-3.9101,-3.9101,-3.9101,-3.9101,-3.9101,-3.9101,-3.9101,-3.9101,-3.9101,-3.9101,-3.9101,-3.9101,-3.9101,-3.9101,-3.9101,-3.9101,-3.9101,-3.9101,-3.9027,-3.8971,-3.8804,-3.8822,-3.8748,-3.8822,-3.8209,-3.7801,-3.7764,-3.7225,-3.6723,-3.6827,-3.6716,-3.6723,-3.6727,-3.6883,-3.6723,-3.6898,-3.7063,-3.7257,-3.7738,-3.789,-3.8037,-3.8232,-3.8262,-3.8243,-3.7858,-3.7762,-3.7738,-3.7642,-3.7738,-3.7546,-3.7603,-3.77,-3.7584,-3.7488,-3.7546,-3.7738,-3.7276,-3.7565,-3.7507,-3.7574,-3.7783,-3.7713,-3.7507,-3.7807,-3.817,-3.817,-3.8399,-3.8396,-4.4005,-4.4005,-4.4005,-4.4005,-4.4005,-4.4005,-4.4005,-4.4005,-4.4005,-4.3819,-4.3522,-4.3404,-4.2797,-4.19,-4.1669,-4.155,-4.155,-4.1487,-4.1445,-4.1407,-4.1072,-4.0845,-4.0826,-4.046,-4.0321,-4.0339,-4.0441,-4.0758,-4.1277,-4.1777,-4.1888,-4.157,-4.1383,-4.1137,-4.0851,-4.0663,-4.0587,-4.0587,-4.0568,-4.0568,-4.0457,-3.9602,-3.9101,-3.9101,-3.9101,-3.9101,-3.9101,-3.9101,-3.9101,-3.9101,-3.9101,-3.9101,-3.9101,-3.9101,-3.9101,-3.9101,-3.9101,-3.9101,-3.9101,-3.9101,-3.9101,-3.9101,-3.9101,-3.9101,-3.9101,-3.9101,-3.9101,-3.9101,-3.9101,-3.9101,-3.9064,-3.8785,-3.8618,-3.8581,-3.8302,-3.8098,-3.8108,-3.8089,-3.8135,-3.8126,-3.8108,-3.8116,-3.8143,-3.8186,-3.8432,-3.8833,-3.8931,-3.9013,-3.9372,-3.9488,-3.9488,-3.9488,-3.9469,-3.8988,-3.8315,-3.8007,-3.8027,-3.8027,-3.8007,-3.8007,-3.8065,-3.8007,-3.7988,-3.8046,-3.8123,-3.8123,-3.7911,-3.7998,-3.8034,-3.8196,-3.8709,-3.9071,-3.9646,-3.9772,-3.9816,-4.4005,-4.4005,-4.4005,-4.4005,-4.4005,-4.4005,-4.4005,-4.4005,-4.4005,-4.4005,-4.4005,-4.4005,-4.3373,-4.2363,-4.2212,-4.2164,-4.2154,-4.2191,-4.2195,-4.2143,-4.1623,-4.1468,-4.1478,-4.103,-4.0864,-4.0995,-4.1085,-4.1498,-4.2165,-4.2758,-4.2908,-4.2557,-4.2386,-4.2146,-4.1819,-4.1688,-4.159,-4.1571,-4.159,-4.159,-4.1423,-4.042,-3.9788,-3.9807,-3.9788,-3.977,-3.9788,-3.9565,-3.9454,-3.9435,-3.925,-3.9101,-3.9101,-3.9101,-3.9101,-3.9101,-3.9101,-3.9101,-3.9101,-3.9101,-3.9101,-3.9101,-3.9101,-3.9101,-3.9101,-3.9101,-3.9101,-3.9101,-3.9101,-3.9101,-3.9101,-3.9101,-3.9101,-3.9101,-3.9101,-3.9101,-3.9064,-3.9101,-3.9045,-3.9101,-3.8952,-3.911,-3.9173,-3.9152,-3.9258,-3.9596,-3.9821,-3.9996,-4.0339,-4.0399,-4.0431,-4.0489,-4.0469,-3.9988,-3.8911,-3.8815,-3.8681,-3.87,-3.8815,-3.8834,-3.8681,-3.87,-3.87,-3.9161,-3.8815,-3.8738,-3.9008,-3.8854,-3.8642,-3.8806,-3.9224,-3.9837,-4.0343,-4.0629,-4.066,-4.4005,-4.4005,-4.4005,-4.4005,-4.4005,-4.4005,-4.4005,-4.4005,-4.4005,-4.4005,-4.4005,-4.4005,-4.3949,-4.3763,-4.3051,-4.2772,-4.2709,-4.2277,-4.2074,-4.21,-4.2152,-4.2389,-4.26,-4.2351,-4.2423,-4.2563,-4.2412,-4.2603,-4.2994,-4.3126,-4.3104,-4.3056,-4.2667,-4.2328,-4.2259,-4.195,-4.1627,-4.1776,-4.1776,-4.1664,-4.1664,-4.1571,-4.1479,-4.1479,-4.1441,-4.1367,-4.133,-4.0717,-4.0346,-4.0327,-3.9584,-3.9138,-3.912,-3.912,-3.9101,-3.9101,-3.9101,-3.9101,-3.9101,-3.9101,-3.9101,-3.9101,-3.9101,-3.9101,-3.9101,-3.9101,-3.9101,-3.9101,-3.9101,-3.9101,-3.9101,-3.9101,-3.9101,-3.9101,-3.9101,-3.9101,-3.9101,-3.9101,-3.9101,-3.9101,-3.9101,-3.9165,-3.9427,-3.9483,-3.9561,-3.9778,-4.0024,-4.0219,-4.0266,-4.0408,-4.0489,-4.0489,-4.0489,-4.045,-4.0354,-3.9988,-4.0085,-4.0046,-3.9854,-4.0181,-4.0335,-4.0373,-4.0296,-4.0239,-4.0046,-4.0027,-4.0277,-4.0296,-4.0142,-4.0119,-4.0042,-4.0482,-4.0544,-4.053,-4.0545,-4.4488,-4.4005,-4.4005,-4.4005,-4.4005,-4.4005,-4.4005,-4.4005,-4.4005,-4.4005,-4.4005,-4.4005,-4.4005,-4.3968,-4.3708,-4.3578,-4.3522,-4.3327,-4.3245,-4.32,-4.2819,-4.2669,-4.2701,-4.2266,-4.2143,-4.2299,-4.2398,-4.2766,-4.3416,-4.4076,-4.4262,-4.3957,-4.3744,-4.3555,-4.3381,-4.3215,-4.3132,-4.3113,-4.3132,-4.3132,-4.3095,-4.3132,-4.3132,-4.3076,-4.211,-4.159,-4.159,-4.1311,-4.1144,-4.1144,-4.0383,-3.9928,-3.9863,-3.9389,-3.9101,-3.9101,-3.9101,-3.9101,-3.9101,-3.9101,-3.9101,-3.9101,-3.9101,-3.9101,-3.9101,-3.9101,-3.9101,-3.9101,-3.9101,-3.9101,-3.9101,-3.9101,-3.9101,-3.9101,-3.9101,-3.9101,-3.9101,-3.9101,-3.9101,-3.9101,-3.9082,-3.9137,-3.9245,-3.9383,-3.958,-3.9772,-4.0034,-4.0234,-4.0358,-4.0473,-4.0489,-4.0489,-4.0489,-4.0489,-4.0489,-4.0469,-4.0469,-4.0469,-4.0431,-4.0392,-4.0469,-4.0489,-4.0373,-4.0354,-4.0469,-4.0489,-4.0431,-4.0431,-4.0489,-4.0489,-4.0489,-4.0489,-4.0489,-4.0489,-4.0489,-4.4952,-4.4432,-4.4116,-4.4005,-4.4005,-4.4005,-4.4005,-4.4005,-4.4005,-4.4005,-4.4005,-4.4005,-4.4005,-4.4005,-4.4005,-4.4005,-4.4005,-4.4005,-4.4005,-4.3968,-4.3429,-4.323,-4.3218,-4.281,-4.2682,-4.2869,-4.3014,-4.3411,-4.3929,-4.4699,-4.4872,-4.4527,-4.4438,-4.4318,-4.4151,-4.4067,-4.4005,-4.4005,-4.4005,-4.3986,-4.4005,-4.4005,-4.4005,-4.3856,-4.2927,-4.237,-4.237,-4.211,-4.198,-4.1869,-4.12,-4.0671,-4.0375,-3.9844,-3.9389,-3.9138,-3.9101,-3.9101,-3.9101,-3.9101,-3.9101,-3.9101,-3.9101,-3.9101,-3.9101,-3.9101,-3.9101,-3.9101,-3.9101,-3.9101,-3.9101,-3.9101,-3.9101,-3.9101,-3.9101,-3.9101,-3.9101,-3.9101,-3.9101,-3.9101,-3.9101,-3.9082,-3.911,-3.9253,-3.9439,-3.9683,-3.9928,-4.0129,-4.0342,-4.0473,-4.0489,-4.0489,-4.0489,-4.0489,-4.0489,-4.0489,-4.0489,-4.0489,-4.0489,-4.0489,-4.0489,-4.0489,-4.0489,-4.0489,-4.0489,-4.0489,-4.0489,-4.0489,-4.0489,-4.0489,-4.0489,-4.0489,-4.0489,-4.0489,-4.0489,-4.5324,-4.5175,-4.4395,-4.4098,-4.4116,-4.4023,-4.4005,-4.4005,-4.4005,-4.4005,-4.4005,-4.4005,-4.4005,-4.4005,-4.4005,-4.4005,-4.4005,-4.4005,-4.4005,-4.3986,-4.3949,-4.4028,-4.4205,-4.3927,-4.3998,-4.4405,-4.4681,-4.47,-4.4632,-4.4738,-4.4751,-4.4701,-4.4465,-4.4346,-4.4355,-4.414,-4.4005,-4.4005,-4.4005,-4.4005,-4.4005,-4.4005,-4.4005,-4.4005,-4.3875,-4.3801,-4.3856,-4.3188,-4.2816,-4.2723,-4.2036,-4.1237,-4.0634,-4.0402,-4.004,-3.9342,-3.9157,-3.9138,-3.9101,-3.9101,-3.9101,-3.9101,-3.9101,-3.9101,-3.9101,-3.9101,-3.9101,-3.9101,-3.9101,-3.9101,-3.9101,-3.9101,-3.9101,-3.9101,-3.9101,-3.9101,-3.9101,-3.9101,-3.9101,-3.9101,-3.9101,-3.9101,-3.9101,-3.9165,-3.9305,-3.9508,-3.9721,-3.9937,-4.0214,-4.0356,-4.0473,-4.0489,-4.0489,-4.0489,-4.0489,-4.0489,-4.0489,-4.0489,-4.0489,-4.0489,-4.0489,-4.0489,-4.0489,-4.0489,-4.0489,-4.0489,-4.0489,-4.0489,-4.0489,-4.0489,-4.0489,-4.0489,-4.0489,-4.0489,-4.0489,-4.6122,-4.603,-4.5231,-4.4896,-4.4804,-4.4265,-4.4005,-4.4005,-4.4005,-4.4005,-4.4005,-4.4005,-4.4005,-4.4005,-4.4005,-4.4005,-4.4005,-4.4005,-4.4005,-4.4005,-4.4005,-4.4048,-4.4109,-4.4067,-4.406,-4.425,-4.4457,-4.4411,-4.4336,-4.4457,-4.4457,-4.425,-4.4181,-4.4121,-4.4121,-4.4067,-4.4005,-4.4005,-4.4005,-4.4005,-4.4005,-4.4005,-4.4005,-4.4005,-4.4005,-4.4005,-4.3986,-4.3745,-4.3633,-4.3596,-4.2853,-4.2054,-4.1386,-4.121,-4.082,-4.0104,-3.9993,-3.9677,-3.9175,-3.9101,-3.912,-3.9101,-3.9101,-3.9101,-3.9101,-3.9101,-3.9101,-3.9101,-3.9101,-3.9101,-3.9101,-3.9101,-3.9101,-3.9101,-3.9101,-3.9101,-3.9101,-3.9101,-3.9101,-3.9101,-3.9101,-3.9101,-3.9156,-3.9219,-3.9376,-3.9502,-3.966,-3.988,-4.0139,-4.0213,-4.0356,-4.0457,-4.0473,-4.0473,-4.0457,-4.0473,-4.0489,-4.0489,-4.0489,-4.0489,-4.0489,-4.0489,-4.0489,-4.0489,-4.0489,-4.0489,-4.0489,-4.0489,-4.0489,-4.0489,-4.0489,-4.0489,-4.0489,-4.0489,-4.0489,-4.6958,-4.6847,-4.6085,-4.5732,-4.5658,-4.4841,-4.4482,-4.4426,-4.4116,-4.4005,-4.4005,-4.4005,-4.4005,-4.4005,-4.4005,-4.4005,-4.4005,-4.4005,-4.4005,-4.4005,-4.4005,-4.4005,-4.4005,-4.4005,-4.4005,-4.4036,-4.4162,-4.4181,-4.4017,-4.4151,-4.4181,-4.4036,-4.4005,-4.4005,-4.4005,-4.4005,-4.4005,-4.4005,-4.4005,-4.4005,-4.4005,-4.4005,-4.4005,-4.4005,-4.4005,-4.4005,-4.4005,-4.4005,-4.4005,-4.3931,-4.3503,-4.2872,-4.2147,-4.2006,-4.1672,-4.1033,-4.0773,-4.0476,-3.9714,-3.9621,-3.9417,-3.9194,-3.9101,-3.9101,-3.9101,-3.9101,-3.9101,-3.9101,-3.9101,-3.9101,-3.9101,-3.9101,-3.9101,-3.9101,-3.9101,-3.9101,-3.9101,-3.9101,-3.9101,-3.9101,-3.9101,-3.9101,-3.9156,-3.9219,-3.9401,-3.9502,-3.9609,-3.9754,-3.9982,-4.0042,-4.0157,-4.0267,-4.0285,-4.0302,-4.0372,-4.0441,-4.0489,-4.0489,-4.0489,-4.0489,-4.0489,-4.0489,-4.0489,-4.0489,-4.0489,-4.0489,-4.0489,-4.0489,-4.0489,-4.0489,-4.0489,-4.0489,-4.0489,-4.0489,-4.0489,-4.7757,-4.7664,-4.6884,-4.6568,-4.6457,-4.5695,-4.5281,-4.514,-4.4482,-4.4098,-4.4042,-4.4005,-4.4005,-4.4005,-4.4005,-4.4005,-4.4005,-4.4005,-4.4005,-4.4005,-4.4005,-4.4005,-4.4005,-4.4005,-4.4005,-4.4005,-4.4036,-4.4005,-4.4005,-4.4036,-4.4005,-4.4005,-4.4005,-4.4005,-4.4005,-4.4005,-4.4005,-4.4005,-4.4005,-4.4005,-4.4005,-4.4005,-4.4005,-4.4005,-4.4005,-4.4005,-4.4005,-4.4005,-4.4005,-4.4005,-4.3931,-4.3559,-4.3039,-4.2866,-4.2495,-4.1739,-4.1664,-4.1219,-4.0661,-4.0438,-4.0123,-3.9398,-3.9333,-3.912,-3.9138,-3.9101,-3.9101,-3.9101,-3.9101,-3.9101,-3.9101,-3.9101,-3.9101,-3.9101,-3.9101,-3.9101,-3.9101,-3.9101,-3.9101,-3.9101,-3.9101,-3.9101,-3.9101,-3.911,-3.9245,-3.9376,-3.9458,-3.9543,-3.9709,-3.9816,-3.9797,-3.9922,-4.0081,-4.012,-4.0158,-4.0321,-4.0372,-4.0389,-4.0441,-4.0489,-4.0489,-4.0489,-4.0489,-4.0489,-4.0489,-4.0489,-4.0489,-4.0489,-4.0489,-4.0489,-4.0489,-4.0489,-4.0489,-4.0489,-4.0489,-4.8593,-4.85,-4.772,-4.7367,-4.7256,-4.6513,-4.5825,-4.5319,-4.5103,-4.4588,-4.4135,-4.4005,-4.4005,-4.4005,-4.4005,-4.4005,-4.4005,-4.4005,-4.4005,-4.4005,-4.4005,-4.4005,-4.4005,-4.4005,-4.4005,-4.4005,-4.4005,-4.4005,-4.4005,-4.4005,-4.4005,-4.4005,-4.4005,-4.4005,-4.4005,-4.4005,-4.4005,-4.4005,-4.4005,-4.4005,-4.4005,-4.4005,-4.4005,-4.4005,-4.4005,-4.4005,-4.4005,-4.4005,-4.4005,-4.4005,-4.4005,-4.3931,-4.367,-4.3602,-4.3268,-4.2649,-4.2445,-4.2129,-4.1479,-4.1293,-4.0903,-4.0178,-3.9993,-3.9751,-3.9138,-3.9101,-3.9101,-3.9101,-3.9101,-3.9101,-3.9101,-3.9101,-3.9101,-3.9101,-3.9101,-3.9101,-3.9101,-3.9101,-3.9101,-3.9101,-3.9101,-3.9101,-3.9101,-3.9082,-3.911,-3.9192,-3.9245,-3.9324,-3.9537,-3.9609,-3.9651,-3.9766,-3.9876,-3.9895,-3.9979,-4.0139,-4.025,-4.0267,-4.0372,-4.0489,-4.0489,-4.0489,-4.0489,-4.0489,-4.0489,-4.0489,-4.0489,-4.0489,-4.0489,-4.0489,-4.0489,-4.0489,-4.0489,-4.0489,-4.0489,-4.889,-4.8872,-4.8407,-4.8203,-4.811,-4.7348,-4.6754,-4.6201,-4.5536,-4.5034,-4.4544,-4.4153,-4.4005,-4.4005,-4.4005,-4.4005,-4.4005,-4.4005,-4.4005,-4.4005,-4.4005,-4.4005,-4.4005,-4.4005,-4.4005,-4.4005,-4.4005,-4.4005,-4.4005,-4.4005,-4.4005,-4.4005,-4.4005,-4.4005,-4.4005,-4.4005,-4.4005,-4.4005,-4.4005,-4.4005,-4.4005,-4.4005,-4.4005,-4.4005,-4.4005,-4.4005,-4.4005,-4.4005,-4.4005,-4.4005,-4.4005,-4.4005,-4.4005,-4.4005,-4.3782,-4.3299,-4.3299,-4.2946,-4.2296,-4.211,-4.172,-4.0996,-4.0663,-4.0198,-3.9705,-3.9361,-3.9101,-3.9101,-3.9101,-3.9101,-3.9101,-3.9101,-3.9101,-3.9101,-3.9101,-3.9101,-3.9101,-3.9101,-3.9101,-3.9101,-3.9101,-3.9101,-3.9101,-3.9101,-3.9101,-3.9082,-3.911,-3.9272,-3.9452,-3.9471,-3.9545,-3.9693,-3.9867,-3.993,-4.002,-4.0195,-4.0302,-4.0319,-4.0356,-4.0489,-4.0489,-4.0489,-4.0489,-4.0489,-4.0489,-4.0489,-4.0489,-4.0489,-4.0489,-4.0489,-4.0489,-4.0489,-4.0489,-4.0489,-4.0489,-4.889,-4.889,-4.889,-4.889,-4.876,-4.8147,-4.7705,-4.7374,-4.6267,-4.5611,-4.5287,-4.4506,-4.4265,-4.4135,-4.4098,-4.4005,-4.4005,-4.4005,-4.4005,-4.4005,-4.4005,-4.4005,-4.4005,-4.4005,-4.4005,-4.4005,-4.4005,-4.4005,-4.4005,-4.4005,-4.4005,-4.4005,-4.4005,-4.4005,-4.4005,-4.4005,-4.4005,-4.4005,-4.4005,-4.4005,-4.4005,-4.4005,-4.4005,-4.4005,-4.4005,-4.4005,-4.4005,-4.4005,-4.4005,-4.4005,-4.4005,-4.4005,-4.4005,-4.4005,-4.3986,-4.3931,-4.3838,-4.3578,-4.3076,-4.2909,-4.2575,-4.1794,-4.1107,-4.0494,-4.0271,-3.9714,-3.9305,-3.9101,-3.9101,-3.9101,-3.9101,-3.9101,-3.9101,-3.9101,-3.9101,-3.9101,-3.9101,-3.9101,-3.9101,-3.9101,-3.9101,-3.9101,-3.9101,-3.9101,-3.9101,-3.9101,-3.9082,-3.9192,-3.932,-3.9364,-3.9481,-3.9679,-3.9848,-4.0049,-4.0138,-4.0285,-4.0372,-4.0438,-4.0422,-4.0489,-4.0489,-4.0489,-4.0489,-4.0489,-4.0489,-4.0489,-4.0489,-4.0489,-4.0489,-4.0489,-4.0489,-4.0489,-4.0489,-4.0489,-4.0489,-4.889,-4.889,-4.889,-4.889,-4.8872,-4.8704,-4.8296,-4.7686,-4.7336,-4.6739,-4.616,-4.5388,-4.5053,-4.4952,-4.4358,-4.4005,-4.4023,-4.4005,-4.4005,-4.4005,-4.4005,-4.4005,-4.4005,-4.4005,-4.4005,-4.4005,-4.4005,-4.4005,-4.4005,-4.4005,-4.4005,-4.4005,-4.4005,-4.4005,-4.4005,-4.4005,-4.4005,-4.4005,-4.4005,-4.4005,-4.4005,-4.4005,-4.4005,-4.4005,-4.4005,-4.4005,-4.4005,-4.4005,-4.4005,-4.4005,-4.4005,-4.4005,-4.4005,-4.4005,-4.4005,-4.4005,-4.4005,-4.3912,-4.3763,-4.3633,-4.3392,-4.263,-4.2222,-4.1739,-4.0476,-4.029,-3.9788,-3.9324,-3.9101,-3.9175,-3.9101,-3.9101,-3.9101,-3.9101,-3.9101,-3.9101,-3.9101,-3.9101,-3.9101,-3.9101,-3.9101,-3.9101,-3.9101,-3.9101,-3.9101,-3.9101,-3.911,-3.911,-3.9178,-3.9264,-3.9449,-3.966,-3.9812,-4.0005,-4.0118,-4.0267,-4.0406,-4.0473,-4.0489,-4.0489,-4.0489,-4.0489,-4.0489,-4.0489,-4.0489,-4.0489,-4.0489,-4.0489,-4.0489,-4.0489,-4.0489,-4.0489,-4.0489,-4.0489,-4.0489,-4.889,-4.889,-4.889,-4.889,-4.889,-4.889,-4.8667,-4.8259,-4.7856,-4.7485,-4.6962,-4.6201,-4.5681,-4.5287,-4.4822,-4.4451,-4.4079,-4.4005,-4.4005,-4.4005,-4.4005,-4.4005,-4.4005,-4.4005,-4.4005,-4.4005,-4.4005,-4.4005,-4.4005,-4.4005,-4.4005,-4.4005,-4.4005,-4.4005,-4.4005,-4.4005,-4.4005,-4.4005,-4.4005,-4.4005,-4.4005,-4.4005,-4.4005,-4.4005,-4.4005,-4.4005,-4.4005,-4.4005,-4.4005,-4.4005,-4.4005,-4.4005,-4.4005,-4.4005,-4.4005,-4.4005,-4.4005,-4.4005,-4.4005,-4.3986,-4.3801,-4.3392,-4.3039,-4.2407,-4.1609,-4.1219,-4.0568,-3.9955,-3.9677,-3.9584,-3.9157,-3.9101,-3.9101,-3.9101,-3.9101,-3.9101,-3.9101,-3.9101,-3.9101,-3.9101,-3.9101,-3.9101,-3.9101,-3.9101,-3.9101,-3.9101,-3.9101,-3.9129,-3.9328,-3.9414,-3.95,-3.9671,-3.9813,-3.9955,-4.0062,-4.0212,-4.0406,-4.0473,-4.0489,-4.0489,-4.0489,-4.0489,-4.0489,-4.0489,-4.0489,-4.0489,-4.0489,-4.0489,-4.0489,-4.0489,-4.0489,-4.0489,-4.0489,-4.0489,-4.0489,-4.889,-4.889,-4.889,-4.889,-4.889,-4.889,-4.889,-4.8779,-4.8171,-4.7949,-4.7723,-4.703,-4.6376,-4.5755,-4.5342,-4.4804,-4.4209,-4.4005,-4.4005,-4.4005,-4.4005,-4.4005,-4.4005,-4.4005,-4.4005,-4.4005,-4.4005,-4.4005,-4.4005,-4.4005,-4.4005,-4.4005,-4.4005,-4.4005,-4.4005,-4.4005,-4.4005,-4.4005,-4.4005,-4.4005,-4.4005,-4.4005,-4.4005,-4.4005,-4.4005,-4.4005,-4.4005,-4.4005,-4.4005,-4.4005,-4.4005,-4.4005,-4.4005,-4.4005,-4.4005,-4.4005,-4.4005,-4.4005,-4.4005,-4.4005,-4.3968,-4.3949,-4.3429,-4.2927,-4.2593,-4.2054,-4.1293,-4.0587,-4.0104,-3.9714,-3.9194,-3.9101,-3.9101,-3.9101,-3.9101,-3.9101,-3.9101,-3.9101,-3.9101,-3.9101,-3.9101,-3.9101,-3.9101,-3.9101,-3.9101,-3.9101,-3.9101,-3.9175,-3.9346,-3.9451,-3.9496,-3.9583,-3.9686,-3.9925,-4.0063,-4.025,-4.0422,-4.0473,-4.0489,-4.0489,-4.0489,-4.0489,-4.0489,-4.0489,-4.0489,-4.0489,-4.0489,-4.0489,-4.0489,-4.0489,-4.0489,-4.0489,-4.0489,-4.0489,-4.0527,-4.889,-4.889,-4.889,-4.889,-4.889,-4.889,-4.889,-4.889,-4.8688,-4.8704,-4.8558,-4.784,-4.7414,-4.6943,-4.5788,-4.4878,-4.4321,-4.4079,-4.4005,-4.4005,-4.4005,-4.4005,-4.4005,-4.4005,-4.4005,-4.4005,-4.4005,-4.4005,-4.4005,-4.4005,-4.4005,-4.4005,-4.4005,-4.4005,-4.4005,-4.4005,-4.4005,-4.4005,-4.4005,-4.4005,-4.4005,-4.4005,-4.4005,-4.4005,-4.4005,-4.4005,-4.4005,-4.4005,-4.4005,-4.4005,-4.4005,-4.4005,-4.4005,-4.4005,-4.4005,-4.4005,-4.4005,-4.4005,-4.4005,-4.4005,-4.4005,-4.3968,-4.3801,-4.3392,-4.2983,-4.263,-4.1924,-4.0736,-3.99,-3.9324,-3.9138,-3.9101,-3.9101,-3.9101,-3.9101,-3.9101,-3.9101,-3.9101,-3.9101,-3.9101,-3.9101,-3.9101,-3.9101,-3.9101,-3.9101,-3.9101,-3.9101,-3.9101,-3.9202,-3.9256,-3.929,-3.9418,-3.9544,-3.9848,-4.01,-4.0304,-4.0473,-4.0473,-4.0489,-4.0489,-4.0489,-4.0489,-4.0489,-4.0489,-4.0489,-4.0489,-4.0489,-4.0489,-4.0489,-4.0489,-4.0489,-4.0489,-4.0546,-4.0604,-4.0719,-4.889,-4.889,-4.889,-4.889,-4.889,-4.889,-4.889,-4.889,-4.889,-4.889,-4.8797,-4.8484,-4.8076,-4.759,-4.6995,-4.5881,-4.4841,-4.4153,-4.4042,-4.4005,-4.4005,-4.4005,-4.4005,-4.4005,-4.4005,-4.4005,-4.4005,-4.4005,-4.4005,-4.4005,-4.4005,-4.4005,-4.4005,-4.4005,-4.4005,-4.4005,-4.4005,-4.4005,-4.4005,-4.4005,-4.4005,-4.4005,-4.4005,-4.4005,-4.4005,-4.4005,-4.4005,-4.4005,-4.4005,-4.4005,-4.4005,-4.4005,-4.4005,-4.4005,-4.4005,-4.4005,-4.4005,-4.4005,-4.4005,-4.4005,-4.4005,-4.4005,-4.4005,-4.3856,-4.354,-4.328,-4.2612,-4.1311,-4.0271,-3.9565,-3.9157,-3.912,-3.9101,-3.9101,-3.9101,-3.9101,-3.9101,-3.9101,-3.9101,-3.9101,-3.9101,-3.9101,-3.9101,-3.9101,-3.9101,-3.9101,-3.9101,-3.9101,-3.9101,-3.9129,-3.9183,-3.9275,-3.9429,-3.975,-4.004,-4.0251,-4.0457,-4.0489,-4.0489,-4.0489,-4.0489,-4.0489,-4.0489,-4.0489,-4.0489,-4.0489,-4.0489,-4.0489,-4.0489,-4.0489,-4.0489,-4.0527,-4.0642,-4.0739,-4.095,-4.889,-4.889,-4.889,-4.889,-4.889,-4.889,-4.889,-4.889,-4.889,-4.889,-4.889,-4.8853,-4.8519,-4.8036,-4.7571,-4.6791,-4.5324,-4.4525,-4.4265,-4.4005,-4.4005,-4.4005,-4.4005,-4.4005,-4.4005,-4.4005,-4.4005,-4.4005,-4.4005,-4.4005,-4.4005,-4.4005,-4.4005,-4.4005,-4.4005,-4.4005,-4.4005,-4.4005,-4.4005,-4.4005,-4.4005,-4.4005,-4.4005,-4.4005,-4.4005,-4.4005,-4.4005,-4.4005,-4.4005,-4.4005,-4.4005,-4.4005,-4.4005,-4.4005,-4.4005,-4.4005,-4.4005,-4.4005,-4.4005,-4.4005,-4.4005,-4.4005,-4.4005,-4.3986,-4.3856,-4.3559,-4.3095,-4.198,-4.0876,-4.0132,-3.9565,-3.9212,-3.912,-3.9101,-3.9101,-3.9101,-3.9101,-3.9101,-3.9101,-3.9101,-3.9101,-3.9101,-3.9101,-3.9101,-3.9101,-3.9101,-3.9101,-3.9101,-3.9101,-3.9101,-3.9156,-3.9192,-3.9369,-3.9675,-3.992,-4.0139,-4.0339,-4.0489,-4.0489,-4.0489,-4.0489,-4.0489,-4.0489,-4.0489,-4.0489,-4.0489,-4.0489,-4.0489,-4.0489,-4.0489,-4.0489,-4.0681,-4.1008,-4.1316,-4.1566,-4.889,-4.889,-4.889,-4.889,-4.889,-4.889,-4.889,-4.889,-4.889,-4.889,-4.889,-4.889,-4.8834,-4.8574,-4.7943,-4.6791,-4.5677,-4.5101,-4.4599,-4.4098,-4.4005,-4.4005,-4.4005,-4.4005,-4.4005,-4.4005,-4.4005,-4.4005,-4.4005,-4.4005,-4.4005,-4.4005,-4.4005,-4.4005,-4.4005,-4.4005,-4.4005,-4.4005,-4.4005,-4.4005,-4.4005,-4.4005,-4.4005,-4.4005,-4.4005,-4.4005,-4.4005,-4.4005,-4.4005,-4.4005,-4.4005,-4.4005,-4.4005,-4.4005,-4.4005,-4.4005,-4.4005,-4.4005,-4.4005,-4.4005,-4.4005,-4.4005,-4.4005,-4.4005,-4.3893,-4.3485,-4.3039,-4.2742,-4.1407,-4.044,-4.0077,-3.9547,-3.9231,-3.9101,-3.9101,-3.9101,-3.9101,-3.9101,-3.9101,-3.9101,-3.9101,-3.9101,-3.9101,-3.9101,-3.9101,-3.9101,-3.9101,-3.9101,-3.9101,-3.9101,-3.9101,-3.9137,-3.9219,-3.9513,-3.975,-3.9982,-4.0233,-4.0425,-4.0489,-4.0489,-4.0489,-4.0489,-4.0489,-4.0489,-4.0489,-4.0489,-4.0489,-4.0489,-4.0489,-4.0585,-4.0681,-4.1085,-4.1585,-4.1893,-4.2335,-4.889,-4.889,-4.889,-4.889,-4.889,-4.889,-4.889,-4.889,-4.889,-4.889,-4.889,-4.889,-4.889,-4.8723,-4.8054,-4.707,-4.6048,-4.5528,-4.4822,-4.4153,-4.4005,-4.4005,-4.4005,-4.4005,-4.4005,-4.4005,-4.4005,-4.4005,-4.4005,-4.4005,-4.4005,-4.4005,-4.4005,-4.4005,-4.4005,-4.4005,-4.4005,-4.4005,-4.4005,-4.4005,-4.4005,-4.4005,-4.4005,-4.4005,-4.4005,-4.4005,-4.4005,-4.4005,-4.4005,-4.4005,-4.4005,-4.4005,-4.4005,-4.4005,-4.4005,-4.4005,-4.4005,-4.4005,-4.4005,-4.4005,-4.4005,-4.4005,-4.4005,-4.4005,-4.3912,-4.3689,-4.3188,-4.2797,-4.2214,-4.1415,-4.0653,-4.0067,-3.9602,-3.9324,-3.9231,-3.912,-3.912,-3.9101,-3.9101,-3.9101,-3.9101,-3.9101,-3.9101,-3.9101,-3.9101,-3.9101,-3.9101,-3.9101,-3.9101,-3.9101,-3.9101,-3.9101,-3.9192,-3.9331,-3.9566,-3.9794,-4.0061,-4.0267,-4.0473,-4.0473,-4.0489,-4.0489,-4.0489,-4.0489,-4.0489,-4.0489,-4.0489,-4.0489,-4.0489,-4.0681,-4.0912,-4.1412,-4.1989,-4.3085,-4.3585,-4.889,-4.889,-4.889,-4.889,-4.889,-4.889,-4.889,-4.889,-4.889,-4.889,-4.889,-4.889,-4.889,-4.8797,-4.8259,-4.7478,-4.6438,-4.5862,-4.4971,-4.4339,-4.4005,-4.4005,-4.4005,-4.4005,-4.4005,-4.4005,-4.4005,-4.4005,-4.4005,-4.4005,-4.4005,-4.4005,-4.4005,-4.4005,-4.4005,-4.4005,-4.4005,-4.4005,-4.4005,-4.4005,-4.4005,-4.4005,-4.4005,-4.4005,-4.4005,-4.4005,-4.4005,-4.4005,-4.4005,-4.4005,-4.4005,-4.4005,-4.4005,-4.4005,-4.4005,-4.4005,-4.4005,-4.4005,-4.4005,-4.4005,-4.4005,-4.4005,-4.4005,-4.4005,-4.4005,-4.3986,-4.3875,-4.3225,-4.2779,-4.2084,-4.1311,-4.0884,-4.03,-3.9872,-3.9538,-3.9324,-3.9175,-3.9194,-3.9157,-3.9101,-3.9101,-3.9101,-3.9101,-3.9101,-3.9101,-3.9101,-3.9101,-3.9101,-3.9101,-3.9101,-3.9101,-3.9101,-3.9137,-3.9253,-3.9464,-3.9683,-3.992,-4.0139,-4.0356,-4.0473,-4.0489,-4.0489,-4.0489,-4.0489,-4.0489,-4.0489,-4.0489,-4.0489,-4.0508,-4.07,-4.1008,-4.1681,-4.247,-4.3682,-4.4547,-4.889,-4.889,-4.889,-4.889,-4.889,-4.889,-4.889,-4.889,-4.889,-4.889,-4.889,-4.889,-4.889,-4.8853,-4.8667,-4.7887,-4.6494,-4.6438,-4.5361,-4.4432,-4.4005,-4.4005,-4.4005,-4.4005,-4.4005,-4.4005,-4.4005,-4.4005,-4.4005,-4.4005,-4.4005,-4.4005,-4.4005,-4.4005,-4.4005,-4.4005,-4.4005,-4.4005,-4.4005,-4.4005,-4.4005,-4.4005,-4.4005,-4.4005,-4.4005,-4.4005,-4.4005,-4.4005,-4.4005,-4.4005,-4.4005,-4.4005,-4.4005,-4.4005,-4.4005,-4.4005,-4.4005,-4.4005,-4.4005,-4.4005,-4.4005,-4.4005,-4.4005,-4.4005,-4.4005,-4.4005,-4.3912,-4.3763,-4.3299,-4.2835,-4.2333,-4.1943,-4.1173,-4.0597,-4.0225,-4.0048,-3.9788,-3.938,-3.9324,-3.9157,-3.9101,-3.9101,-3.9101,-3.9101,-3.9101,-3.9101,-3.9101,-3.9101,-3.9101,-3.9101,-3.9101,-3.9101,-3.9101,-3.9219,-3.9433,-3.9656,-3.988,-4.0101,-4.0302,-4.0422,-4.0489,-4.0489,-4.0489,-4.0489,-4.0489,-4.0489,-4.0489,-4.0489,-4.0546,-4.07,-4.12,-4.22,-4.322,-4.4374,-4.5009,-4.889,-4.889,-4.889,-4.889,-4.889,-4.889,-4.889,-4.889,-4.889,-4.889,-4.889,-4.889,-4.889,-4.889,-4.8816,-4.8036,-4.6661,-4.6513,-4.5417,-4.4488,-4.4005,-4.4005,-4.4005,-4.4005,-4.4005,-4.4005,-4.4005,-4.4005,-4.4005,-4.4005,-4.4005,-4.4005,-4.4005,-4.4005,-4.4005,-4.4005,-4.4005,-4.4005,-4.4005,-4.4005,-4.4005,-4.4005,-4.4005,-4.4005,-4.4005,-4.4005,-4.4005,-4.4005,-4.4005,-4.4005,-4.4005,-4.4005,-4.4005,-4.4005,-4.4005,-4.4005,-4.4005,-4.4005,-4.4005,-4.4005,-4.4005,-4.4005,-4.4005,-4.4005,-4.4005,-4.4005,-4.4005,-4.3875,-4.3708,-4.3336,-4.2742,-4.2482,-4.2054,-4.1434,-4.1043,-4.0866,-4.0513,-4.0067,-3.9909,-3.9928,-3.9435,-3.9101,-3.9101,-3.9101,-3.9101,-3.9101,-3.9101,-3.9101,-3.9101,-3.9101,-3.9101,-3.9101,-3.9101,-3.9101,-3.9279,-3.9543,-3.9838,-4.0043,-4.0267,-4.0406,-4.0489,-4.0489,-4.0489,-4.0489,-4.0489,-4.0489,-4.0489,-4.0489,-4.07,-4.1085,-4.2008,-4.3124,-4.4143,-4.5086,-4.5355,-4.889,-4.889,-4.889,-4.889,-4.889,-4.889,-4.889,-4.889,-4.889,-4.889,-4.889,-4.889,-4.889,-4.889,-4.8853,-4.7999,-4.6847,-4.6382,-4.5398,-4.4581,-4.4005,-4.4005,-4.4005,-4.4005,-4.4005,-4.4005,-4.4005,-4.4005,-4.4005,-4.4005,-4.4005,-4.4005,-4.4005,-4.4005,-4.4005,-4.4005,-4.4005,-4.4005,-4.4005,-4.4005,-4.4005,-4.4005,-4.4005,-4.4005,-4.4005,-4.4005,-4.4005,-4.4005,-4.4005,-4.4005,-4.4005,-4.4005,-4.4005,-4.4005,-4.4005,-4.4005,-4.4005,-4.4005,-4.4005,-4.4005,-4.4005,-4.4005,-4.4005,-4.4005,-4.4005,-4.4005,-4.4005,-4.4005,-4.3949,-4.3745,-4.3132,-4.3132,-4.2797,-4.2196,-4.1991,-4.1776,-4.1341,-4.0913,-4.082,-4.0746,-4.0281,-3.9918,-3.9435,-3.9435,-3.9231,-3.9194,-3.9101,-3.9101,-3.9101,-3.9101,-3.9101,-3.9101,-3.9101,-3.9101,-3.911,-3.9494,-3.984,-3.9944,-4.0176,-4.0406,-4.0489,-4.0489,-4.0489,-4.0489,-4.0489,-4.0489,-4.0623,-4.0796,-4.12,-4.1643,-4.2739,-4.3912,-4.4605,-4.5393,-4.5451,-4.889,-4.889,-4.889,-4.889,-4.889,-4.889,-4.889,-4.889,-4.889,-4.889,-4.889,-4.889,-4.889,-4.889,-4.889,-4.7961,-4.6791,-4.6457,-4.5602,-4.4358,-4.4005,-4.4005,-4.4005,-4.4005,-4.4005,-4.4005,-4.4005,-4.4005,-4.4005,-4.4005,-4.4005,-4.4005,-4.4005,-4.4005,-4.4005,-4.4005,-4.4005,-4.4005,-4.4005,-4.4005,-4.4005,-4.4005,-4.4005,-4.4005,-4.4005,-4.4005,-4.4005,-4.4005,-4.4005,-4.4005,-4.4005,-4.4005,-4.4005,-4.4005,-4.4005,-4.4005,-4.4005,-4.4005,-4.4005,-4.4005,-4.4005,-4.4005,-4.4005,-4.4005,-4.4005,-4.4005,-4.4005,-4.4005,-4.4005,-4.4005,-4.3912,-4.3856,-4.3336,-4.3058,-4.2853,-4.2667,-4.2233,-4.175,-4.1638,-4.1479,-4.1423,-4.12,-4.042,-3.9844,-3.951,-3.9324,-3.9157,-3.9101,-3.912,-3.9101,-3.9101,-3.9101,-3.9101,-3.9101,-3.9146,-3.9524,-3.98,-3.9924,-4.0101,-4.0389,-4.0489,-4.0489,-4.0489,-4.0489,-4.0489,-4.0489,-4.0835,-4.1181,-4.1835,-4.2566,-4.3547,-4.4566,-4.522,-4.5586,-4.5586,-4.889,-4.889,-4.889,-4.889,-4.889,-4.889,-4.889,-4.889,-4.889,-4.889,-4.889,-4.889,-4.889,-4.889,-4.8723,-4.7999,-4.6735,-4.6438,-4.5602,-4.4172,-4.4005,-4.4005,-4.4005,-4.4005,-4.4005,-4.4005,-4.4005,-4.4005,-4.4005,-4.4005,-4.4005,-4.4005,-4.4005,-4.4005,-4.4005,-4.4005,-4.4005,-4.4005,-4.4005,-4.4005,-4.4005,-4.4005,-4.4005,-4.4005,-4.4005,-4.4005,-4.4005,-4.4005,-4.4005,-4.4005,-4.4005,-4.4005,-4.4005,-4.4005,-4.4005,-4.4005,-4.4005,-4.4005,-4.4005,-4.4005,-4.4005,-4.4005,-4.4005,-4.4005,-4.4005,-4.4005,-4.4005,-4.4005,-4.4005,-4.4005,-4.3986,-4.3986,-4.3708,-4.3708,-4.3596,-4.3559,-4.3225,-4.2686,-4.237,-4.2173,-4.205,-4.1776,-4.1181,-4.0698,-4.0327,-4.003,-3.99,-3.938,-3.925,-3.9138,-3.9101,-3.9101,-3.9101,-3.9101,-3.9227,-3.9571,-3.9819,-3.9924,-4.0157,-4.0422,-4.0489,-4.0489,-4.0489,-4.0489,-4.0489,-4.0527,-4.1143,-4.1835,-4.2758,-4.3605,-4.4412,-4.4932,-4.5355,-4.5586,-4.5586,-4.889,-4.889,-4.889,-4.889,-4.889,-4.889,-4.889,-4.889,-4.889,-4.889,-4.889,-4.889,-4.889,-4.8834,-4.85,-4.7887,-4.6531,-4.6122,-4.5491,-4.4116,-4.4005,-4.4005,-4.4005,-4.4005,-4.4005,-4.4005,-4.4005,-4.4005,-4.4005,-4.4005,-4.4005,-4.4005,-4.4005,-4.4005,-4.4005,-4.4005,-4.4005,-4.4005,-4.4005,-4.4005,-4.4005,-4.4005,-4.4005,-4.4005,-4.4005,-4.4005,-4.4005,-4.4005,-4.4005,-4.4005,-4.4005,-4.4005,-4.4005,-4.4005,-4.4005,-4.4005,-4.4005,-4.4005,-4.4005,-4.4005,-4.4005,-4.4005,-4.4005,-4.4005,-4.4005,-4.4005,-4.4005,-4.4005,-4.4005,-4.4005,-4.4005,-4.4005,-4.4005,-4.3986,-4.3968,-4.3931,-4.3819,-4.3243,-4.3132,-4.2916,-4.2773,-4.2414,-4.1999,-4.1627,-4.1256,-4.0977,-4.0698,-4.0123,-3.9593,-3.9417,-3.9342,-3.9324,-3.924,-3.9212,-3.9343,-3.9571,-3.9775,-3.9922,-4.0194,-4.0473,-4.0489,-4.0489,-4.0489,-4.0508,-4.0527,-4.0796,-4.1662,-4.2489,-4.3489,-4.4297,-4.5009,-4.5374,-4.5566,-4.5586,-4.5586,-4.889,-4.889,-4.889,-4.889,-4.889,-4.889,-4.889,-4.889,-4.889,-4.889,-4.889,-4.889,-4.889,-4.8742,-4.811,-4.7311,-4.6475,-4.5751,-4.4878,-4.4246,-4.4023,-4.4005,-4.4005,-4.4005,-4.4005,-4.4005,-4.4005,-4.4005,-4.4005,-4.4005,-4.4005,-4.4005,-4.4005,-4.4005,-4.4005,-4.4005,-4.4005,-4.4005,-4.4005,-4.4005,-4.4005,-4.4005,-4.4005,-4.4005,-4.4005,-4.4005,-4.4005,-4.4005,-4.4005,-4.4005,-4.4005,-4.4005,-4.4005,-4.4005,-4.4005,-4.4005,-4.4005,-4.4005,-4.4005,-4.4005,-4.4005,-4.4005,-4.4005,-4.4005,-4.4005,-4.4005,-4.4005,-4.4005,-4.4005,-4.4005,-4.4005,-4.4005,-4.4005,-4.4005,-4.4005,-4.3986,-4.4005,-4.3856,-4.3838,-4.3782,-4.3763,-4.3429,-4.289,-4.2482,-4.2203,-4.2054,-4.1757,-4.1322,-4.0727,-3.9974,-3.9881,-3.977,-3.9658,-3.9424,-3.9539,-3.9779,-3.9775,-3.9901,-4.023,-4.0489,-4.0489,-4.0489,-4.0489,-4.0508,-4.06,-4.1085,-4.2124,-4.322,-4.4316,-4.5028,-4.5432,-4.5509,-4.5586,-4.5586,-4.5586,-4.889,-4.889,-4.889,-4.889,-4.889,-4.889,-4.889,-4.889,-4.889,-4.889,-4.889,-4.889,-4.8872,-4.8816,-4.8073,-4.7237,-4.6438,-4.5639,-4.4841,-4.4302,-4.4005,-4.4005,-4.4005,-4.4005,-4.4005,-4.4005,-4.4005,-4.4005,-4.4005,-4.4005,-4.4005,-4.4005,-4.4005,-4.4005,-4.4005,-4.4005,-4.4005,-4.4005,-4.4005,-4.4005,-4.4005,-4.4005,-4.4005,-4.4005,-4.4005,-4.4005,-4.4005,-4.4005,-4.4005,-4.4005,-4.4005,-4.4005,-4.4005,-4.4005,-4.4005,-4.4005,-4.4005,-4.4005,-4.4005,-4.4005,-4.4005,-4.4005,-4.4005,-4.4005,-4.4005,-4.4005,-4.4005,-4.4005,-4.4005,-4.4005,-4.4005,-4.4005,-4.4005,-4.4005,-4.4005,-4.4005,-4.4005,-4.4005,-4.4005,-4.4005,-4.4005,-4.3912,-4.3429,-4.3392,-4.315,-4.3076,-4.2865,-4.24,-4.1805,-4.1014,-4.0513,-4.0401,-4.0281,-4.0123,-3.9956,-4.0083,-3.9955,-3.9903,-4.0267,-4.0508,-4.0489,-4.0489,-4.0489,-4.0719,-4.1085,-4.1835,-4.2777,-4.3835,-4.4836,-4.5201,-4.5547,-4.5566,-4.5586,-4.5586,-4.5586,-4.889,-4.889,-4.889,-4.889,-4.889,-4.889,-4.889,-4.889,-4.889,-4.889,-4.889,-4.889,-4.8723,-4.8277,-4.7534,-4.6735,-4.5937,-4.5101,-4.4413,-4.4191,-4.4005,-4.4005,-4.4005,-4.4005,-4.4005,-4.4005,-4.4005,-4.4005,-4.4005,-4.4005,-4.4005,-4.4005,-4.4005,-4.4005,-4.4005,-4.4005,-4.4005,-4.4005,-4.4005,-4.4005,-4.4005,-4.4005,-4.4005,-4.4005,-4.4005,-4.4005,-4.4005,-4.4005,-4.4005,-4.4005,-4.4005,-4.4005,-4.4005,-4.4005,-4.4005,-4.4005,-4.4005,-4.4005,-4.4005,-4.4005,-4.4005,-4.4005,-4.4005,-4.4005,-4.4005,-4.4005,-4.4005,-4.4005,-4.4005,-4.4005,-4.4005,-4.4005,-4.4005,-4.4005,-4.4005,-4.4005,-4.4005,-4.4005,-4.4005,-4.4005,-4.4005,-4.4005,-4.3968,-4.4005,-4.3968,-4.3726,-4.354,-4.3336,-4.2667,-4.1857,-4.1404,-4.1144,-4.1025,-4.0914,-4.0753,-4.0603,-4.0545,-4.0459,-4.0381,-4.0569,-4.0546,-4.0623,-4.0739,-4.1219,-4.1816,-4.2604,-4.3431,-4.4278,-4.5143,-4.5432,-4.5586,-4.5586,-4.5586,-4.5586,-4.5586,-4.8686,-4.8649,-4.8723,-4.8649,-4.8797,-4.876,-4.8797,-4.8872,-4.8797,-4.8834,-4.8872,-4.889,-4.85,-4.785,-4.7033,-4.6215,-4.5435,-4.4636,-4.4228,-4.4005,-4.4005,-4.4005,-4.4005,-4.4005,-4.4005,-4.4005,-4.4005,-4.4005,-4.4005,-4.4005,-4.4005,-4.4005,-4.4005,-4.4005,-4.4005,-4.4005,-4.4005,-4.4005,-4.4005,-4.4005,-4.4005,-4.4005,-4.4005,-4.4005,-4.4005,-4.4005,-4.4005,-4.4005,-4.4005,-4.4005,-4.4005,-4.4005,-4.4005,-4.4005,-4.4005,-4.4005,-4.4005,-4.4005,-4.4005,-4.4005,-4.4005,-4.4005,-4.4005,-4.4005,-4.4005,-4.4005,-4.4005,-4.4005,-4.4005,-4.4005,-4.4005,-4.4005,-4.4005,-4.4005,-4.4005,-4.4005,-4.4005,-4.4005,-4.4005,-4.4005,-4.4005,-4.4005,-4.4005,-4.4005,-4.4005,-4.3986,-4.3949,-4.3856,-4.3503,-4.2674,-4.234,-4.1999,-4.1824,-4.1752,-4.166,-4.155,-4.1366,-4.1226,-4.1048,-4.1111,-4.145,-4.1296,-4.1027,-4.1623,-4.2297,-4.3201,-4.4047,-4.4797,-4.5278,-4.547,-4.5586,-4.5586,-4.5586,-4.5586,-4.5586,-4.707,-4.7088,-4.707,-4.7404,-4.7943,-4.7999,-4.8351,-4.8834,-4.8227,-4.8301,-4.8797,-4.8797,-4.8351,-4.7441,-4.6717,-4.5955,-4.5157,-4.4413,-4.4079,-4.4005,-4.4005,-4.4005,-4.4005,-4.4005,-4.4005,-4.4005,-4.4005,-4.4005,-4.4005,-4.4005,-4.4005,-4.4005,-4.4005,-4.4005,-4.4005,-4.4005,-4.4005,-4.4005,-4.4005,-4.4005,-4.4005,-4.4005,-4.4005,-4.4005,-4.4005,-4.4005,-4.4005,-4.4005,-4.4005,-4.4005,-4.4005,-4.4005,-4.4005,-4.4005,-4.4005,-4.4005,-4.4005,-4.4005,-4.4005,-4.4005,-4.4005,-4.4005,-4.4005,-4.4005,-4.4005,-4.4005,-4.4005,-4.4005,-4.4005,-4.4005,-4.4005,-4.4005,-4.4005,-4.4005,-4.4005,-4.4005,-4.4005,-4.4005,-4.4005,-4.4005,-4.4005,-4.4005,-4.4005,-4.4005,-4.4005,-4.4005,-4.4005,-4.3968,-4.3949,-4.3454,-4.3361,-4.3058,-4.2686,-4.2571,-4.2548,-4.2378,-4.2185,-4.2216,-4.2143,-4.2232,-4.2354,-4.2181,-4.1989,-4.2239,-4.2797,-4.3701,-4.4451,-4.5009,-4.5413,-4.5547,-4.5586,-4.5586,-4.5586,-4.5586,-4.5586,-4.6513,-4.6513,-4.6513,-4.6735,-4.7107,-4.7163,-4.7423,-4.7686,-4.7376,-4.7414,-4.7813,-4.7776,-4.7404,-4.6717,-4.6122,-4.5547,-4.4804,-4.4265,-4.4061,-4.4005,-4.4005,-4.4005,-4.4005,-4.4005,-4.4005,-4.4005,-4.4005,-4.4005,-4.4005,-4.4005,-4.4005,-4.4005,-4.4005,-4.4005,-4.4005,-4.4005,-4.4005,-4.4005,-4.4005,-4.4005,-4.4005,-4.4005,-4.4005,-4.4005,-4.4005,-4.4005,-4.4005,-4.4005,-4.4005,-4.4005,-4.4005,-4.4005,-4.4005,-4.4005,-4.4005,-4.4005,-4.4005,-4.4005,-4.4005,-4.4005,-4.4005,-4.4005,-4.4005,-4.4005,-4.4005,-4.4005,-4.4005,-4.4005,-4.4005,-4.4005,-4.4005,-4.4005,-4.4005,-4.4005,-4.4005,-4.4005,-4.4005,-4.4005,-4.4005,-4.4005,-4.4005,-4.4005,-4.4005,-4.4005,-4.4005,-4.4005,-4.4005,-4.4005,-4.4005,-4.4005,-4.4005,-4.3931,-4.3429,-4.3431,-4.354,-4.3302,-4.2966,-4.3035,-4.3159,-4.2942,-4.2835,-4.2951,-4.3008,-4.3181,-4.3528,-4.4182,-4.4893,-4.5316,-4.547,-4.5566,-4.5586,-4.5586,-4.5586,-4.5586,-4.5586,-4.6122,-4.616,-4.616,-4.6234,-4.6345,-4.6345,-4.6438,-4.6531,-4.6397,-4.6342,-4.6364,-4.6252,-4.5751,-4.5491,-4.5249,-4.4674,-4.4246,-4.4098,-4.4023,-4.4005,-4.4005,-4.4005,-4.4005,-4.4005,-4.4005,-4.4005,-4.4005,-4.4005,-4.4005,-4.4005,-4.4005,-4.4005,-4.4005,-4.4005,-4.4005,-4.4005,-4.4005,-4.4005,-4.4005,-4.4005,-4.4005,-4.4005,-4.4005,-4.4005,-4.4005,-4.4005,-4.4005,-4.4005,-4.4005,-4.4005,-4.4005,-4.4005,-4.4005,-4.4005,-4.4005,-4.4005,-4.4005,-4.4005,-4.4005,-4.4005,-4.4005,-4.4005,-4.4005,-4.4005,-4.4005,-4.4005,-4.4005,-4.4005,-4.4005,-4.4005,-4.4005,-4.4005,-4.4005,-4.4005,-4.4005,-4.4005,-4.4005,-4.4005,-4.4005,-4.4005,-4.4005,-4.4005,-4.4005,-4.4005,-4.4005,-4.4005,-4.4005,-4.4005,-4.4005,-4.4005,-4.4005,-4.4005,-4.3801,-4.3946,-4.4177,-4.4089,-4.3672,-4.3871,-4.3904,-4.3539,-4.3393,-4.3778,-4.3989,-4.4008,-4.4432,-4.4855,-4.5124,-4.547,-4.5566,-4.5586,-4.5586,-4.5586,-4.5586,-4.5586,-4.5586,-4.4469,-4.4469,-4.4488,-4.4878,-4.5454,-4.5528,-4.5895,-4.6304,-4.5778,-4.5551,-4.5374,-4.4854,-4.4655,-4.5268,-4.5287,-4.4822,-4.4116,-4.4005,-4.4005,-4.4005,-4.4005,-4.4005,-4.4005,-4.4005,-4.4005,-4.4005,-4.4005,-4.4005,-4.4005,-4.4005,-4.4005,-4.4005,-4.4005,-4.4005,-4.4005,-4.4005,-4.4005,-4.4005,-4.4005,-4.4005,-4.4005,-4.4005,-4.4005,-4.4005,-4.4005,-4.4005,-4.4005,-4.4005,-4.4005,-4.4005,-4.4005,-4.4005,-4.4005,-4.4005,-4.4005,-4.4005,-4.4005,-4.4005,-4.4005,-4.4005,-4.4005,-4.4005,-4.4005,-4.4005,-4.4005,-4.4005,-4.4005,-4.4005,-4.4005,-4.4005,-4.4005,-4.4005,-4.4005,-4.4005,-4.4005,-4.4005,-4.4005,-4.4005,-4.4005,-4.4005,-4.4005,-4.4005,-4.4005,-4.4005,-4.4005,-4.4005,-4.4005,-4.4005,-4.4005,-4.4005,-4.4005,-4.4005,-4.4005,-4.4005,-4.4042,-4.4508,-4.4393,-4.4611,-4.4706,-4.442,-4.4432,-4.4874,-4.5028,-4.4759,-4.4932,-4.5336,-4.5566,-4.5586,-4.5586,-4.5586,-4.5586,-4.5586,-4.5586,-4.5586,-4.5586]}]]